[[{"header":{"parameterUnit":"m.s-1","parameterCategory":1,"la1":30.6,"la2":29.2853,"lo1":-89.7004,"lo2":-87.6739,"dy":0.0162,"dx":0.0183,"nx":112,"ny":82,"refTime":"2024-04-15T06:00:00:Z","depth":0,"parameterNumber":2,"parameterNumberName":"U-component_of_WINDS"},"data":[0.0,0.0,0.0,0.0,0.0,0.0,0.0,0.0,0.0,0.0,0.0,0.0,0.0,0.0,0.0,0.0,0.0,0.0,0.0,0.0,0.0,0.0,0.0,0.0,0.0,0.0,0.0,0.0,0.0,0.0,0.0,0.0,0.0,0.0,0.0,0.0,0.0,0.0,0.0,0.0,0.0,0.0,0.0,0.0,0.0,0.0,0.0,0.0,0.0,0.0,0.0,0.0,0.0,0.0,0.0,0.0,0.0,0.0,0.0,0.0,0.0,0.0,0.0,0.0,0.0,0.0,0.0,0.0,0.0,0.0,0.0,0.0,0.0,0.0,0.0,0.0,0.0,0.0,0.0,0.0,0.0,0.0,0.0,0.0,0.0,0.0,0.0,0.0,0.0,0.0,-2.3413,-2.3601,-2.4844,-2.5733,-2.5948,-2.6051,-2.5899,-2.5401,0.0,0.0,0.0,0.0,0.0,0.0,0.0,0.0,0.0,0.0,0.0,0.0,0.0,0.0,0.0,0.0,0.0,0.0,0.0,0.0,0.0,0.0,0.0,0.0,0.0,0.0,0.0,0.0,0.0,0.0,0.0,0.0,0.0,0.0,0.0,0.0,0.0,0.0,0.0,0.0,0.0,0.0,0.0,0.0,0.0,0.0,0.0,0.0,0.0,0.0,0.0,0.0,0.0,0.0,0.0,0.0,0.0,0.0,0.0,0.0,0.0,0.0,0.0,0.0,0.0,0.0,0.0,0.0,0.0,0.0,0.0,0.0,0.0,0.0,0.0,0.0,0.0,0.0,0.0,0.0,0.0,0.0,0.0,0.0,0.0,0.0,0.0,0.0,0.0,0.0,0.0,0.0,0.0,0.0,0.0,0.0,0.0,0.0,0.0,0.0,0.0,0.0,0.0,0.0,-2.3465,-2.4559,-2.5619,-2.64,-2.6711,-2.6913,-2.6755,-2.6174,0.0,0.0,0.0,0.0,0.0,0.0,0.0,0.0,0.0,0.0,0.0,0.0,0.0,0.0,0.0,0.0,0.0,0.0,0.0,0.0,0.0,0.0,0.0,0.0,0.0,0.0,0.0,0.0,0.0,0.0,0.0,0.0,0.0,0.0,0.0,0.0,0.0,0.0,0.0,0.0,0.0,0.0,0.0,0.0,0.0,0.0,0.0,0.0,0.0,0.0,0.0,0.0,0.0,0.0,0.0,0.0,0.0,0.0,0.0,0.0,0.0,0.0,0.0,0.0,0.0,0.0,0.0,0.0,0.0,0.0,0.0,0.0,0.0,0.0,0.0,0.0,0.0,0.0,0.0,0.0,0.0,0.0,0.0,0.0,0.0,0.0,0.0,0.0,0.0,0.0,0.0,0.0,0.0,0.0,0.0,0.0,0.0,0.0,0.0,0.0,0.0,0.0,0.0,-2.4186,-2.4848,-2.5967,-2.6662,-2.7171,-2.7466,-2.7681,-2.7579,-2.7037,-2.6274,0.0,0.0,0.0,0.0,0.0,0.0,0.0,0.0,0.0,0.0,0.0,0.0,0.0,0.0,0.0,0.0,0.0,0.0,0.0,0.0,0.0,0.0,0.0,0.0,0.0,0.0,0.0,0.0,0.0,0.0,0.0,0.0,0.0,0.0,0.0,0.0,0.0,0.0,0.0,0.0,0.0,0.0,0.0,0.0,0.0,0.0,0.0,0.0,0.0,0.0,0.0,0.0,0.0,0.0,0.0,0.0,0.0,0.0,0.0,0.0,0.0,0.0,0.0,0.0,0.0,0.0,0.0,0.0,0.0,0.0,0.0,0.0,0.0,0.0,0.0,0.0,0.0,0.0,0.0,0.0,0.0,0.0,0.0,0.0,0.0,0.0,0.0,0.0,0.0,0.0,0.0,0.0,0.0,0.0,0.0,0.0,0.0,0.0,0.0,0.0,0.0,0.0,-2.502,-2.5949,-2.6959,-2.7488,-2.7915,-2.8204,-2.8266,-2.8064,-2.7587,-2.7033,0.0,0.0,0.0,0.0,0.0,0.0,0.0,0.0,0.0,0.0,0.0,0.0,0.0,0.0,0.0,0.0,0.0,0.0,0.0,0.0,0.0,0.0,0.0,0.0,0.0,0.0,0.0,0.0,0.0,0.0,0.0,0.0,0.0,0.0,0.0,0.0,0.0,0.0,0.0,0.0,0.0,0.0,0.0,0.0,0.0,0.0,0.0,0.0,0.0,0.0,0.0,0.0,0.0,0.0,0.0,0.0,0.0,0.0,0.0,0.0,0.0,0.0,0.0,0.0,0.0,0.0,0.0,0.0,0.0,0.0,0.0,0.0,0.0,0.0,0.0,0.0,0.0,0.0,0.0,0.0,0.0,0.0,0.0,0.0,0.0,0.0,0.0,0.0,0.0,0.0,0.0,0.0,0.0,0.0,0.0,0.0,0.0,0.0,0.0,0.0,0.0,0.0,-2.4998,-2.5822,-2.6894,-2.782,-2.8496,-2.8906,-2.8483,-2.7986,-2.746,-2.7606,0.0,0.0,0.0,0.0,0.0,0.0,0.0,0.0,0.0,0.0,0.0,0.0,0.0,0.0,0.0,0.0,0.0,0.0,0.0,0.0,0.0,0.0,0.0,0.0,0.0,0.0,0.0,0.0,0.0,0.0,0.0,0.0,0.0,0.0,0.0,0.0,0.0,0.0,0.0,0.0,0.0,0.0,0.0,0.0,0.0,0.0,0.0,0.0,0.0,0.0,0.0,0.0,0.0,0.0,0.0,0.0,0.0,0.0,0.0,0.0,0.0,0.0,0.0,0.0,0.0,0.0,0.0,0.0,0.0,0.0,0.0,0.0,0.0,0.0,0.0,0.0,0.0,0.0,0.0,0.0,0.0,0.0,0.0,0.0,0.0,0.0,0.0,0.0,0.0,0.0,0.0,0.0,0.0,0.0,0.0,0.0,0.0,0.0,0.0,0.0,0.0,0.0,-2.5742,-2.6586,0.0,-2.7995,-2.8479,-2.8833,-2.8813,-2.8566,-2.811,0.0,0.0,0.0,0.0,0.0,0.0,0.0,0.0,0.0,0.0,0.0,0.0,0.0,0.0,0.0,0.0,0.0,0.0,0.0,0.0,0.0,0.0,0.0,0.0,0.0,0.0,0.0,0.0,0.0,0.0,0.0,0.0,0.0,0.0,0.0,0.0,0.0,0.0,0.0,0.0,0.0,0.0,0.0,0.0,0.0,0.0,0.0,0.0,0.0,0.0,0.0,0.0,0.0,0.0,0.0,0.0,0.0,0.0,0.0,0.0,0.0,0.0,0.0,0.0,0.0,0.0,0.0,0.0,0.0,0.0,0.0,0.0,0.0,0.0,0.0,0.0,0.0,0.0,0.0,0.0,0.0,0.0,0.0,0.0,0.0,0.0,0.0,0.0,0.0,0.0,0.0,0.0,0.0,0.0,0.0,0.0,0.0,0.0,0.0,0.0,0.0,0.0,-2.5398,-2.5985,-2.6735,0.0,-2.8095,-2.8393,-2.8639,-2.8682,-2.8481,-2.8022,0.0,0.0,0.0,0.0,0.0,0.0,0.0,0.0,0.0,0.0,0.0,0.0,0.0,0.0,0.0,0.0,0.0,0.0,0.0,0.0,0.0,0.0,0.0,0.0,0.0,0.0,0.0,0.0,0.0,0.0,0.0,0.0,0.0,0.0,0.0,0.0,0.0,0.0,0.0,0.0,0.0,0.0,0.0,0.0,0.0,0.0,0.0,0.0,0.0,0.0,0.0,0.0,0.0,0.0,0.0,0.0,0.0,0.0,0.0,0.0,0.0,0.0,0.0,0.0,0.0,0.0,0.0,0.0,0.0,0.0,0.0,0.0,0.0,0.0,0.0,0.0,0.0,0.0,0.0,0.0,0.0,0.0,0.0,0.0,0.0,0.0,0.0,0.0,0.0,0.0,0.0,0.0,0.0,0.0,0.0,0.0,0.0,0.0,0.0,0.0,0.0,0.0,-2.5445,-2.5482,-2.6043,-2.773,-2.8088,-2.8246,-2.8388,-2.8032,-2.7548,0.0,0.0,0.0,0.0,0.0,0.0,0.0,0.0,0.0,0.0,0.0,0.0,0.0,0.0,0.0,0.0,0.0,0.0,0.0,0.0,0.0,0.0,0.0,0.0,0.0,0.0,0.0,0.0,0.0,0.0,0.0,0.0,0.0,0.0,0.0,0.0,0.0,0.0,0.0,0.0,0.0,0.0,0.0,0.0,0.0,0.0,0.0,0.0,0.0,0.0,0.0,0.0,0.0,0.0,0.0,0.0,0.0,0.0,0.0,0.0,0.0,0.0,0.0,0.0,0.0,0.0,0.0,0.0,0.0,0.0,0.0,0.0,0.0,0.0,0.0,0.0,0.0,0.0,0.0,0.0,0.0,0.0,0.0,0.0,0.0,0.0,0.0,0.0,0.0,0.0,0.0,0.0,0.0,0.0,0.0,0.0,0.0,0.0,0.0,0.0,0.0,0.0,0.0,-2.538,-2.5482,-2.6067,-2.7662,-2.7968,-2.8122,-2.8309,-2.8258,-2.8003,-2.7503,0.0,0.0,0.0,0.0,0.0,0.0,0.0,0.0,0.0,0.0,0.0,0.0,0.0,0.0,0.0,0.0,0.0,0.0,0.0,0.0,0.0,0.0,0.0,0.0,0.0,0.0,0.0,0.0,0.0,0.0,0.0,0.0,0.0,0.0,0.0,0.0,0.0,0.0,0.0,0.0,0.0,0.0,0.0,0.0,0.0,0.0,0.0,0.0,0.0,0.0,0.0,0.0,0.0,0.0,0.0,0.0,0.0,0.0,0.0,0.0,0.0,0.0,0.0,0.0,0.0,0.0,0.0,0.0,0.0,0.0,0.0,0.0,0.0,0.0,0.0,0.0,0.0,0.0,0.0,0.0,0.0,0.0,0.0,0.0,0.0,0.0,0.0,0.0,0.0,0.0,0.0,0.0,0.0,0.0,0.0,0.0,0.0,0.0,0.0,0.0,0.0,0.0,-2.4953,-2.5561,-2.6272,-2.7099,-2.7616,-2.7922,-2.8063,-2.821,-2.8062,-2.753,0.0,0.0,0.0,0.0,0.0,0.0,0.0,0.0,0.0,0.0,0.0,0.0,0.0,0.0,0.0,0.0,0.0,0.0,0.0,0.0,0.0,0.0,0.0,0.0,0.0,0.0,0.0,0.0,0.0,0.0,0.0,0.0,0.0,0.0,0.0,0.0,0.0,0.0,0.0,0.0,0.0,0.0,0.0,0.0,0.0,0.0,0.0,0.0,0.0,0.0,0.0,0.0,0.0,0.0,0.0,0.0,0.0,0.0,0.0,0.0,0.0,0.0,0.0,0.0,0.0,0.0,0.0,0.0,0.0,0.0,0.0,0.0,0.0,0.0,0.0,0.0,0.0,0.0,0.0,0.0,0.0,0.0,0.0,0.0,0.0,0.0,0.0,0.0,0.0,0.0,0.0,0.0,0.0,0.0,0.0,0.0,0.0,0.0,0.0,0.0,0.0,0.0,-2.4363,-2.5591,-2.644,-2.6335,-2.7145,-2.7686,-2.7686,-2.7841,-2.7719,-2.7171,0.0,0.0,0.0,0.0,0.0,0.0,0.0,0.0,0.0,0.0,0.0,0.0,0.0,0.0,0.0,0.0,0.0,0.0,0.0,0.0,0.0,0.0,0.0,0.0,0.0,0.0,0.0,0.0,0.0,0.0,0.0,0.0,0.0,0.0,0.0,0.0,0.0,0.0,0.0,0.0,0.0,0.0,0.0,0.0,0.0,0.0,0.0,0.0,0.0,0.0,0.0,0.0,0.0,0.0,0.0,0.0,0.0,0.0,0.0,0.0,-2.7827,0.0,0.0,0.0,0.0,0.0,0.0,0.0,0.0,0.0,0.0,0.0,0.0,0.0,0.0,0.0,0.0,0.0,0.0,0.0,0.0,0.0,0.0,0.0,0.0,0.0,0.0,0.0,0.0,0.0,0.0,0.0,0.0,0.0,0.0,0.0,0.0,0.0,0.0,0.0,0.0,0.0,-2.4422,-2.5152,-2.5883,-2.6471,-2.7192,-2.7585,-2.7539,-2.7116,-2.6792,-2.6661,-2.7291,0.0,0.0,0.0,0.0,0.0,0.0,0.0,0.0,0.0,0.0,0.0,0.0,0.0,0.0,0.0,0.0,0.0,0.0,0.0,0.0,0.0,0.0,0.0,0.0,0.0,0.0,0.0,0.0,0.0,0.0,0.0,0.0,0.0,0.0,0.0,0.0,0.0,0.0,0.0,0.0,0.0,0.0,0.0,0.0,0.0,0.0,0.0,0.0,0.0,0.0,0.0,0.0,0.0,0.0,0.0,0.0,0.0,0.0,0.0,0.0,-2.8003,0.0,0.0,0.0,0.0,0.0,0.0,0.0,0.0,0.0,0.0,0.0,0.0,0.0,0.0,0.0,0.0,0.0,0.0,0.0,0.0,0.0,0.0,0.0,0.0,0.0,0.0,0.0,0.0,0.0,0.0,0.0,0.0,0.0,0.0,0.0,0.0,0.0,0.0,0.0,0.0,-2.4294,-2.5485,-2.6359,-2.6321,-2.6623,-2.6833,-2.6831,-2.6167,-2.5961,-2.6425,-2.6841,0.0,0.0,0.0,0.0,0.0,0.0,0.0,0.0,0.0,0.0,0.0,0.0,0.0,0.0,0.0,0.0,0.0,0.0,0.0,0.0,0.0,0.0,0.0,0.0,0.0,0.0,0.0,0.0,0.0,0.0,0.0,0.0,0.0,0.0,0.0,0.0,0.0,0.0,0.0,0.0,0.0,0.0,0.0,0.0,0.0,0.0,0.0,0.0,0.0,0.0,0.0,0.0,0.0,-2.7801,-2.8068,-2.8558,-2.7953,-2.7951,-2.843,-2.8152,-2.8126,-2.8223,-2.763,0.0,0.0,0.0,0.0,0.0,0.0,0.0,0.0,0.0,0.0,0.0,0.0,0.0,0.0,0.0,0.0,0.0,0.0,0.0,0.0,0.0,0.0,-2.7192,-2.6596,-2.684,-2.7028,-2.6422,0.0,0.0,0.0,0.0,0.0,0.0,0.0,0.0,0.0,0.0,0.0,-2.4147,-2.5773,-2.6705,-2.5913,-2.5934,-2.6018,-2.6061,-2.5523,-2.5495,-2.6256,-2.6602,-2.6899,0.0,0.0,0.0,0.0,0.0,0.0,0.0,0.0,0.0,0.0,0.0,0.0,0.0,0.0,0.0,0.0,0.0,0.0,0.0,0.0,0.0,0.0,0.0,0.0,0.0,0.0,0.0,0.0,0.0,0.0,0.0,0.0,-2.8606,-2.8069,0.0,0.0,0.0,0.0,0.0,0.0,0.0,0.0,0.0,0.0,0.0,0.0,0.0,-2.834,-2.8376,-2.9017,-2.9246,-2.9059,-2.899,-2.8937,-2.886,-2.8811,-2.8437,-2.7824,-2.7845,0.0,-2.771,-2.7738,0.0,0.0,0.0,0.0,0.0,0.0,0.0,0.0,0.0,0.0,0.0,0.0,0.0,0.0,0.0,0.0,0.0,0.0,0.0,0.0,0.0,0.0,-2.6087,-2.6553,-2.6707,-2.6773,-2.673,-2.6688,-2.672,-2.6973,-2.6519,0.0,0.0,0.0,0.0,0.0,0.0,0.0,-2.4133,-2.4819,-2.5337,-2.516,-2.5655,-2.5989,-2.5928,-2.5903,-2.5901,-2.5959,-2.6435,-2.6755,-2.6859,-2.7236,0.0,0.0,0.0,0.0,0.0,0.0,0.0,0.0,0.0,0.0,0.0,0.0,0.0,0.0,0.0,0.0,0.0,0.0,0.0,0.0,0.0,0.0,0.0,0.0,0.0,0.0,0.0,0.0,0.0,-2.8691,-2.8652,-2.8299,-2.85,-2.8669,0.0,0.0,0.0,0.0,0.0,0.0,0.0,0.0,0.0,-2.8389,-2.8613,-2.8733,-2.8662,-2.9004,-2.9067,-2.8906,-2.8869,-2.9033,-2.9343,-2.8958,-2.8789,-2.8802,-2.8471,-2.8027,-2.7537,-2.7397,-2.7714,-2.8225,0.0,0.0,0.0,0.0,-2.833,-2.8236,-2.8147,-2.8076,-2.802,-2.8053,0.0,0.0,0.0,0.0,0.0,0.0,0.0,-2.7078,-2.6861,-2.6508,-2.6286,-2.6623,-2.6674,-2.6657,-2.6691,-2.6601,-2.6674,0.0,-2.6936,-2.6827,-2.7141,0.0,0.0,0.0,0.0,-2.5589,-2.4673,-2.5201,-2.5641,-2.5566,-2.5388,-2.5447,-2.5846,-2.5501,-2.5478,-2.5983,-2.6377,-2.6841,-2.7447,-2.7461,-2.7406,0.0,0.0,0.0,0.0,0.0,0.0,0.0,0.0,0.0,0.0,0.0,0.0,0.0,0.0,0.0,0.0,0.0,0.0,0.0,0.0,0.0,0.0,0.0,0.0,0.0,0.0,0.0,0.0,-2.8706,-2.8556,-2.8458,-2.8375,-2.8291,0.0,0.0,0.0,0.0,0.0,0.0,-2.8023,-2.7893,-2.8066,-2.8656,-2.8787,-2.8917,-2.9024,-2.9225,-2.9288,-2.9176,-2.9156,-2.9401,-2.9902,-2.9371,-2.9318,-2.9579,-2.9123,-2.8473,-2.7738,-2.7334,-2.7502,-2.794,-2.775,-2.7989,-2.8388,-2.8121,-2.7842,-2.7613,-2.7512,-2.7428,-2.734,-2.7373,-2.7338,-2.7396,-2.7722,0.0,0.0,0.0,0.0,-2.7147,-2.7101,-2.6842,-2.6606,-2.664,-2.6606,-2.6537,-2.6468,-2.6365,-2.647,0.0,-2.7131,-2.7241,-2.7607,0.0,0.0,0.0,0.0,-2.6042,-2.5038,-2.5382,-2.5725,-2.5651,-2.506,-2.4995,-2.5779,-2.5335,-2.5309,-2.6012,-2.6321,-2.6815,-2.7579,-2.7571,-2.758,-2.7702,0.0,0.0,0.0,0.0,0.0,0.0,0.0,0.0,0.0,0.0,0.0,0.0,0.0,0.0,0.0,0.0,0.0,0.0,0.0,0.0,0.0,0.0,0.0,0.0,0.0,0.0,0.0,0.0,0.0,-2.8039,-2.7922,0.0,0.0,0.0,0.0,-2.7524,-2.7277,-2.7104,-2.7075,-2.6708,-2.689,-2.7735,-2.8256,-2.8901,-2.9646,-3.0406,-3.0794,-3.0774,-3.0653,-3.0547,-3.046,-3.0551,-3.014,-2.9325,-2.948,-2.9126,-2.8394,-2.788,-2.7316,-2.686,-2.7606,-2.7555,-2.7191,-2.786,-2.7704,-2.7133,-2.7133,-2.7165,-2.7198,-2.7072,-2.7071,-2.7101,-2.707,-2.7195,0.0,0.0,-2.6841,-2.6808,-2.6741,-2.6657,-2.6572,-2.652,-2.6502,-2.6433,-2.6099,-2.601,-2.6171,0.0,-2.6674,-2.6725,-2.7006,0.0,-2.6697,-2.5961,-2.6477,-2.6394,-2.4819,-2.4724,-2.4739,-2.4683,-2.4618,-2.489,-2.5653,-2.58,-2.5864,-2.5914,-2.6219,-2.6458,-2.6565,-2.7581,-2.7923,-2.7429,-2.7703,0.0,0.0,0.0,0.0,0.0,0.0,0.0,0.0,0.0,0.0,0.0,0.0,0.0,0.0,0.0,0.0,0.0,0.0,0.0,0.0,0.0,0.0,0.0,0.0,0.0,0.0,0.0,0.0,-2.8478,-2.7972,0.0,-2.8206,-2.7836,-2.7448,-2.7201,-2.7451,-2.7742,-2.8004,-2.8308,-2.8779,-2.9473,-2.9776,-3.0005,-3.0214,-3.0579,-3.0708,-3.0584,-3.0543,-3.0422,-3.0316,-3.0359,-3.0248,-2.9984,-2.9584,-2.9281,-2.9045,-2.8408,-2.8319,-2.8561,-2.8454,-2.8523,-2.8654,-2.8474,-2.8258,-2.8075,-2.8075,-2.7772,-2.7299,-2.6724,-2.6657,-2.6759,-2.6607,-2.6674,-2.6825,-2.6657,-2.6538,-2.647,-2.6452,-2.6382,-2.6345,-2.6381,-2.6365,-2.6347,-2.6225,-2.6152,-2.6151,-2.6242,-2.6242,-2.6295,-2.6521,-2.659,-2.6539,-2.6353,-2.6232,-2.5941,-2.5319,-2.4934,-2.4846,-2.52,-2.5251,-2.5588,-2.6448,-2.6058,-2.5863,-2.6077,-2.6291,-2.6438,-2.6549,-2.7589,-2.7897,-2.7405,-2.8157,-2.8073,0.0,0.0,0.0,0.0,0.0,0.0,0.0,0.0,0.0,0.0,0.0,0.0,0.0,0.0,0.0,0.0,0.0,0.0,0.0,0.0,0.0,0.0,0.0,0.0,0.0,0.0,-2.7894,-2.8219,-2.794,-2.7882,-2.8317,-2.8161,-2.7958,-2.7725,-2.7996,-2.8308,-2.8647,-2.9015,-2.9516,-3.017,-3.0268,-3.0381,-3.0464,-3.0547,-3.0526,-3.0396,-3.0312,-3.0231,-3.0189,-3.0146,-3.0167,-3.0236,-2.9823,-2.9671,-2.9626,-2.9264,-2.9403,-2.9792,-2.8929,-2.8734,-2.8829,-2.8386,-2.8109,-2.7996,-2.823,-2.794,-2.7384,-2.6846,-2.66,-2.6469,-2.6312,-2.6365,-2.6486,-2.6415,-2.6311,-2.6207,-2.6259,-2.6222,-2.6203,-2.6276,-2.6278,-2.6278,-2.6207,-2.6151,-2.6061,-2.5919,-2.5721,-2.5612,-2.5772,-2.5626,-2.5629,-2.6033,-2.5765,-2.5527,-2.5511,-2.52,-2.5129,-2.5526,-2.5592,-2.5946,-2.6807,-2.6211,-2.576,-2.5727,-2.6091,-2.6153,-2.5809,-2.6943,-2.7504,-2.7344,-2.8105,-2.7827,-2.646,0.0,0.0,0.0,0.0,0.0,0.0,0.0,0.0,0.0,0.0,0.0,0.0,0.0,0.0,0.0,0.0,0.0,0.0,0.0,0.0,0.0,0.0,0.0,-2.7803,-2.773,-2.7585,-2.7297,-2.7757,-2.8118,-2.8152,-2.873,-2.9084,-2.9086,-2.8864,-2.8768,-2.8807,-2.8672,-2.889,-2.9612,-2.9626,-2.9895,-3.0401,-3.0396,-3.0396,-3.0396,-3.0146,-3.0081,-3.0189,-3.006,-2.9995,-3.0017,-3.0274,-3.0333,-3.021,-3.0422,-3.0443,-3.0269,-2.895,-2.8073,-2.757,-2.757,-2.7243,-2.6911,-2.7533,-2.7607,-2.7426,-2.7393,-2.6877,-2.6278,-2.6221,-2.624,-2.6278,-2.6221,-2.6097,-2.6045,-2.6168,-2.6202,-2.6202,-2.6185,-2.624,-2.6242,-2.6028,-2.5954,-2.5862,-2.5719,-2.5165,-2.471,-2.4815,-2.4243,-2.4081,-2.4994,-2.5162,0.0,-2.5313,-2.543,-2.5495,-2.5529,-2.5578,-2.5914,-2.664,-2.6212,-2.5589,-2.488,-2.562,-2.5542,-2.4313,-2.577,-2.6809,-2.7184,-2.745,-2.6859,-2.539,0.0,0.0,0.0,0.0,0.0,0.0,0.0,0.0,0.0,0.0,0.0,0.0,0.0,0.0,0.0,0.0,0.0,0.0,0.0,0.0,0.0,-2.7901,-2.7713,-2.7415,-2.7261,-2.7498,-2.8337,-2.8063,-2.8247,-2.9385,-2.9162,-2.8976,-2.9012,-2.928,-2.9412,-2.939,-2.9732,-3.0033,-3.0253,-3.0208,-3.0265,-3.0485,-3.0422,-3.0338,-3.0269,-3.0338,-3.0231,-2.9989,-3.0098,-3.0081,-2.9995,-3.0081,-3.0146,-3.0189,-3.0253,-3.0316,-3.0297,-2.9415,-2.896,-2.8817,-2.8817,-2.9055,-2.9344,-2.8989,-2.8467,-2.788,-2.7243,-2.6658,-2.6187,-2.6025,-2.6134,-2.626,-2.6099,-2.6134,-2.6189,-2.6081,-2.6115,-2.615,-2.6007,-2.6026,-2.6064,-2.601,-2.5954,-2.5881,-2.5844,-2.5147,-2.4751,-2.5344,-2.537,-2.5428,-2.5854,-2.5494,0.0,-2.5963,-2.5715,-2.5698,-2.6168,-2.6252,-2.6404,-2.6809,-2.6048,-2.554,-2.5591,-2.5886,-2.5859,-2.552,-2.6569,-2.7075,-2.6846,-2.5887,-2.5257,0.0,0.0,0.0,0.0,0.0,0.0,0.0,0.0,0.0,0.0,0.0,0.0,0.0,0.0,0.0,0.0,0.0,0.0,0.0,0.0,0.0,0.0,-2.7686,-2.7524,-2.7197,-2.7086,-2.7282,-2.7909,-2.809,-2.8509,-2.9407,-2.9583,-2.9717,-2.9829,-2.9967,-3.0062,-3.0139,-3.0377,-3.0526,-3.0589,-3.0485,-3.0422,-3.038,-3.0354,-3.0274,-3.0189,-3.0231,-3.0167,-3.0033,-3.0055,-3.0033,-2.9968,-2.9995,-3.0033,-3.0076,-3.0103,-3.0146,-3.0133,0.0,0.0,0.0,0.0,-2.8946,-2.9497,-2.9321,-2.8968,-2.8451,-2.7637,-2.6953,-2.6422,-2.6016,-2.6008,-2.61,-2.599,-2.601,-2.6012,-2.5885,-2.5919,-2.5954,-2.5828,-2.5899,-2.5954,-2.5954,-2.5864,-2.5809,-2.5809,-2.5354,0.0,-2.5601,-2.5246,-2.5059,-2.5549,-2.5307,-2.5359,-2.6158,-2.6015,-2.5983,-2.6366,-2.6486,-2.6589,-2.6725,-2.6219,0.0,0.0,0.0,-2.6051,-2.5554,-2.5863,0.0,0.0,0.0,-2.427,-2.4058,-2.3543,0.0,0.0,-2.5089,-2.5717,0.0,0.0,0.0,0.0,0.0,0.0,0.0,0.0,0.0,0.0,0.0,0.0,0.0,0.0,0.0,0.0,-2.7465,-2.7327,-2.7151,-2.7101,-2.7023,-2.681,-2.7918,-2.8753,-2.8858,-2.9939,-3.0733,-3.0935,-3.0671,-3.0589,-3.0831,0.0,0.0,0.0,0.0,-3.038,-3.0189,-3.0189,-3.0167,-3.0184,-3.0033,-3.0033,-3.0162,-2.9989,-2.9924,-2.9902,-2.9951,-2.9946,-2.9902,-2.9951,-2.9924,-2.9751,-2.849,-2.8165,-2.8351,-2.7703,-2.7796,-2.8345,-2.905,0.0,0.0,-2.8261,-2.7545,-2.6779,-2.6155,-2.5928,-2.5899,-2.5881,-2.5809,-2.5738,-2.5719,-2.5719,-2.5719,-2.5701,-2.5789,-2.5881,-2.5881,-2.5772,-2.5682,-2.5701,-2.564,-2.5619,-2.5682,-2.4603,-2.402,-2.4815,-2.4951,-2.5285,-2.6085,-2.6241,-2.6295,-2.6295,0.0,0.0,-2.6502,-2.6537,-2.6303,-2.5713,-2.6169,-2.5997,-2.4991,-2.4472,-2.3868,-2.3137,-2.3776,-2.3707,-2.2838,-2.2738,-2.2672,-2.2733,-2.4526,-2.49,0.0,0.0,0.0,0.0,0.0,0.0,0.0,0.0,0.0,0.0,0.0,0.0,0.0,0.0,0.0,-2.7448,-2.7421,-2.736,-2.7198,-2.7133,-2.7162,-2.7327,-2.7831,-2.8418,-2.9132,-2.9951,-3.0485,-3.0589,-3.0485,-3.0422,-3.0485,-3.0338,-3.0274,-3.0295,-3.0167,-3.0124,-3.0189,-3.0081,-3.0038,-3.0038,-3.0227,0.0,-2.9946,-3.0098,-3.0055,-2.9896,-2.9902,-2.9902,-2.9896,-2.9902,-2.9562,-2.8945,-2.8209,-2.7947,-2.799,-2.7859,-2.7892,-2.8147,-2.9412,-2.9077,-2.8156,-2.8412,-2.777,-2.6839,-2.6494,-2.6208,0.0,-2.5775,-2.5846,-2.5901,-2.5738,-2.5791,-2.5807,-2.5656,-2.5677,-2.5738,-2.5738,-2.5677,-2.5656,-2.5682,-2.564,-2.5619,-2.5682,-2.5413,-2.5318,-2.565,-2.5615,-2.5648,-2.601,-2.6151,-2.624,-2.6295,-2.633,-2.6399,-2.6485,-2.6363,-2.6243,-2.6165,-2.5731,-2.5414,-2.5309,-2.463,-2.3947,-2.3277,-2.3454,-2.3235,-2.2582,-2.2555,-2.2569,-2.2636,-2.3133,-2.3786,0.0,0.0,0.0,0.0,0.0,0.0,0.0,0.0,0.0,0.0,0.0,-2.683,-2.6124,0.0,-2.7182,-2.707,-2.72,-2.7294,-2.7294,-2.7168,-2.706,-2.7042,-2.7792,-2.8395,-2.8619,-2.9592,-3.0274,-3.0443,-3.0375,-3.0338,-3.0443,-3.0295,-3.0253,-3.0338,-3.0124,-3.006,-3.0189,-3.006,-2.9995,-2.9995,-3.0098,-3.0076,-2.9946,-2.9946,-2.988,-2.9808,-2.9808,-2.9808,-2.9808,-2.9874,-2.9626,-2.9194,-2.8593,-2.792,-2.7302,-2.7302,-2.7302,-2.7497,-2.8906,-2.8939,-2.8399,-2.8613,-2.8308,-2.768,-2.6763,-2.6374,-2.6151,-2.5627,-2.5567,-2.564,-2.5567,-2.5567,-2.5602,-2.564,-2.5659,-2.5677,-2.5772,-2.5717,-2.5661,-2.5701,-2.564,-2.5616,-2.564,-2.5619,-2.5672,-2.5879,-2.5791,-2.5775,-2.5974,-2.6063,-2.6133,-2.624,-2.6294,-2.6278,-2.6241,-2.6115,-2.6061,-2.6099,-2.5093,-2.458,-2.4746,-2.3692,-2.2984,-2.2752,-2.2779,-2.2637,-2.2352,-2.2377,-2.2578,-2.2949,-2.3061,-2.3397,0.0,0.0,0.0,0.0,0.0,0.0,0.0,0.0,-2.5896,-2.5542,-2.5819,-2.6003,-2.5697,-2.6252,-2.6775,-2.6742,-2.6989,-2.7297,-2.7615,-2.7319,-2.7024,-2.6911,-2.7743,-2.8213,-2.7954,-2.9039,-2.9913,-3.0274,-3.021,-3.0231,-3.038,-3.0274,-3.0253,-3.0401,-3.0146,-3.0038,-3.0146,-3.0038,-2.9973,-2.9973,-2.9924,-2.9902,-2.993,-2.9792,-2.972,-2.9653,-2.9653,-2.9675,-2.972,-2.983,-2.9808,-2.9645,-2.8876,-2.7862,-2.6875,-2.6875,-2.6694,-2.6642,-2.8218,-2.865,-2.8585,-2.8882,-2.8763,-2.8306,-2.7042,-2.6491,-2.6133,-2.5474,-2.5294,-2.5314,-2.532,-2.5317,-2.5355,-2.5589,-2.5602,-2.5619,-2.5807,-2.5754,-2.5645,-2.568,-2.5621,-2.5562,-2.5619,-2.5616,-2.5654,-2.5824,-2.5752,-2.5754,-2.5919,-2.5937,-2.6008,-2.615,-2.6206,-2.6171,-2.6008,-2.5917,-2.5862,-2.5862,-2.4557,-2.3869,-2.4016,-2.2651,-2.1959,-2.2125,-2.2154,-2.2236,-2.2387,-2.2459,-2.2844,-2.351,-2.3675,-2.3649,-2.8863,-2.8761,-2.8524,-2.83,-2.7644,-2.6977,0.0,0.0,-2.6576,-2.6193,-2.6478,-2.6721,-2.6505,-2.6556,-2.6674,-2.6842,-2.7071,-2.7519,-2.8421,-2.7856,-2.749,-2.7895,-2.7538,-2.738,-2.7701,-2.8454,-2.9221,-2.9897,-3.0011,-3.0011,-2.9968,-3.0119,-3.0146,-3.006,-3.0017,-2.9995,-3.0017,-2.9946,-2.9902,-2.9902,-2.9902,-2.9852,-2.9742,-2.983,-2.9742,-2.9518,-2.9518,-2.9586,-2.9697,-2.972,-2.977,-2.9729,-2.8301,-2.763,-2.7501,-2.7501,-2.6635,-2.5753,-2.7879,-2.8142,-2.7769,-2.9144,-2.8672,-2.7507,-2.7363,-2.6435,-2.541,-2.533,-2.5294,-2.5259,-2.5166,-2.522,-2.5333,-2.5416,-2.5416,-2.5473,-2.5682,-2.557,-2.547,-2.5581,-2.5508,-2.5473,-2.5663,-2.564,-2.5616,-2.5635,-2.5635,-2.5656,-2.5719,-2.5738,-2.5811,-2.5992,-2.6045,-2.6008,-2.5917,-2.5791,-2.5719,-2.5719,-2.447,-2.3752,-2.3836,-2.2529,-2.1827,-2.1842,-2.1957,-2.2379,-2.31,-2.3158,-2.3575,-2.4285,-2.4762,-2.493,-2.9188,-2.9209,0.0,0.0,-2.7402,-2.7061,-2.6974,-2.6432,-2.6055,-2.6575,-2.6197,-2.5882,-2.6193,-2.6259,-2.6479,0.0,-2.7538,-2.8063,-2.9021,-2.8947,-2.8762,-2.8681,-2.8503,-2.8237,-2.7898,-2.8851,-2.9643,-2.9951,-3.0076,-3.0103,-3.0076,-3.0227,-3.0274,-3.0231,-3.0081,-3.0038,-3.0119,-2.9968,-2.9874,-2.977,-2.977,-2.972,-2.9586,-2.9653,-2.9608,-2.9496,-2.9496,-2.9496,-2.948,-2.9653,-2.9412,-2.8912,-2.834,-2.7581,-2.6739,-2.6379,-2.5849,-2.5554,-2.7293,-2.7714,-2.7671,-2.8683,-2.8603,-2.7923,-2.6981,-2.631,-2.5771,-2.527,-2.5143,-2.5166,-2.5127,-2.5107,-2.5182,-2.5451,-2.5451,-2.5473,-2.5754,-2.5659,-2.5524,-2.5597,-2.5489,-2.5416,-2.5511,-2.5581,-2.5597,-2.5597,-2.5597,-2.5619,-2.5682,-2.5701,-2.5775,-2.5974,-2.5901,-2.5846,-2.5897,-2.5733,-2.5696,-2.5826,-2.4452,-2.3719,-2.3918,-2.2514,-2.1981,-2.2486,-2.2145,-2.2325,-2.3093,-2.3152,-2.3537,-2.4243,-2.4863,-2.5291,-2.944,0.0,0.0,-2.778,-2.724,-2.7027,-2.6921,-2.6073,-2.5537,-2.6291,-2.5729,-2.5328,-2.6055,-2.63,-2.6652,-2.7527,-2.8081,-2.8648,-2.9403,-2.9626,-2.9644,-2.9483,-2.95,-2.9228,-2.8464,-2.9255,-2.9874,-2.9979,-3.0146,-3.021,-3.0119,-3.0316,-3.0297,-3.0016,-3.0026,-3.0,-2.9868,-2.9908,-2.983,-2.9697,-2.9697,-2.9592,-2.9434,-2.9434,-2.9434,-2.9434,-2.9243,-2.9102,-2.9003,-2.9006,-2.8622,-2.805,-2.7908,-2.7295,-2.6372,-2.5556,-2.522,-2.5412,-2.6666,-2.7251,-2.7544,-2.8078,-2.8223,-2.7924,-2.6605,-2.6094,-2.5823,-2.5187,-2.5048,-2.5107,-2.5088,-2.5045,-2.5084,-2.5467,-2.5467,-2.5451,-2.5749,-2.5656,-2.5521,-2.5521,-2.5413,-2.5339,-2.5397,-2.547,-2.5562,-2.5597,-2.5597,-2.5619,-2.5661,-2.5682,-2.5756,-2.5901,-2.5793,-2.5738,-2.5844,-2.5694,-2.5575,-2.553,-2.448,-2.3881,-2.3918,-2.2863,-2.258,-2.3251,-2.2566,-2.2665,-2.3614,-2.3444,-2.3828,-2.4713,-2.5126,-2.5479,0.0,0.0,-2.8982,-2.8407,-2.7585,-2.6912,-2.6894,-2.6131,-2.532,-2.5117,-2.5255,-2.5631,-2.6421,-2.7002,-2.7451,-2.7754,-2.8558,-2.9229,-2.9472,-2.9506,-2.9713,-3.0289,-3.0248,-2.995,0.0,-2.94,-2.9572,-2.9968,-3.0231,-3.0248,-2.994,-3.0274,-3.0046,-2.9077,-2.9781,-2.9835,-2.9039,-2.9621,-2.983,-2.9697,-2.9697,-2.957,-2.9305,-2.9305,-2.9305,-2.9273,-2.8621,-2.8335,-2.8287,-2.7556,-2.7338,-2.7347,-2.6573,-2.6638,-2.6999,-2.5616,-2.5048,-2.5136,-2.6034,-2.667,-2.7163,-2.7522,-2.7412,-2.7031,-2.6395,-2.57,-2.5103,-2.5041,-2.5048,-2.5088,-2.5025,-2.5005,-2.5064,-2.5339,-2.5355,-2.5352,-2.5562,-2.5448,-2.5314,-2.5314,-2.5201,-2.5166,-2.5359,-2.5397,-2.5451,-2.5578,-2.5597,-2.5597,-2.5597,-2.5661,-2.5701,-2.5719,-2.5701,-2.5701,-2.5719,-2.564,-2.5308,-2.4581,-2.4553,-2.43,-2.3735,-2.3737,-2.3819,-2.3967,-2.3301,-2.3681,-2.513,-2.4413,-2.483,-2.6229,-2.5994,-2.5717,0.0,0.0,-2.913,-2.8419,-2.7603,-2.693,-2.6854,-2.5712,-2.4738,-2.4953,-2.4968,-2.5146,-2.5813,-2.6438,-2.7076,-2.7705,-2.8504,-2.9254,-2.9819,-3.0351,-3.0706,-3.0675,-3.0731,0.0,0.0,0.0,0.0,-3.0258,-3.0401,-3.0359,-3.0119,-3.0295,-3.0197,-2.9691,-2.9924,-2.994,-2.9669,-2.9723,-2.9726,-2.9697,-2.9608,-2.948,-2.9305,-2.9305,-2.9066,-2.8621,-2.8399,-2.8033,-2.7556,-2.7301,-2.6957,-2.6548,-2.6108,-2.6135,-2.6271,-2.5273,-2.517,-2.5595,-2.6073,-2.6352,-2.6518,-2.6522,-2.6522,-2.637,-2.5635,-2.5318,-2.5201,-2.5045,-2.5103,-2.5201,-2.5045,-2.5005,-2.5025,-2.5166,-2.5185,-2.5204,-2.5371,-2.5278,-2.5166,-2.5166,-2.5127,-2.5146,-2.5317,-2.5375,-2.5451,-2.5578,-2.5597,-2.5597,-2.5597,-2.5619,-2.5621,-2.5621,-2.5621,-2.5621,-2.5621,-2.5659,-2.5547,-2.5306,-2.4938,-2.4668,-2.4509,-2.4049,-2.41,-2.4729,-2.3488,-2.3619,-2.5128,-2.4348,-2.443,-2.5302,-2.5579,-2.5476,0.0,-2.9408,-2.909,-2.8378,-2.783,-2.7308,-2.6668,-2.5631,-2.4708,-2.4388,-2.456,-2.5056,-2.5974,-2.6673,-2.747,-2.8486,-2.9097,-2.9588,-3.004,-3.0736,-3.1098,-3.0801,-3.0905,-3.0845,0.0,0.0,0.0,-3.0417,-3.0506,-3.0443,-3.0146,-3.0269,-3.0095,-2.9578,-2.9805,-2.9821,-2.9578,-2.9663,-2.9637,-2.9547,-2.9412,-2.9321,-2.9236,-2.9328,-2.9066,-2.857,-2.815,-2.7673,-2.7127,-2.6624,-2.6163,-2.5746,-2.5589,-2.5868,-2.6256,-2.5273,-2.5464,-2.6167,-2.5901,-2.5925,-2.6043,-2.5769,-2.5869,-2.5989,-2.5231,-2.5103,-2.5201,-2.5045,-2.5103,-2.5201,-2.5045,-2.5005,-2.5025,-2.5072,-2.5091,-2.5127,-2.522,-2.5166,-2.5091,-2.5068,-2.5068,-2.5107,-2.5275,-2.541,-2.547,-2.5524,-2.5578,-2.5597,-2.5597,-2.5597,-2.5578,-2.5524,-2.5584,-2.5637,-2.5597,-2.5715,-2.564,-2.5361,-2.5165,-2.4893,-2.4457,-2.4194,-2.4343,-2.4974,-2.3753,-2.3868,-2.5386,-2.4593,-2.4523,-2.5085,-2.5394,-2.5246,-2.9915,-2.9433,-2.8832,-2.8318,-2.8264,-2.7906,-2.6401,-2.5905,-2.5282,-2.3606,-2.4218,-2.5461,0.0,0.0,-2.8595,-2.9867,-3.0138,-3.0133,-3.0021,-3.0564,-3.0895,0.0,0.0,0.0,0.0,0.0,0.0,-3.0438,0.0,-3.0506,-3.0038,-3.0146,-2.9793,-2.8876,-2.947,-2.9502,-2.8854,-2.9425,-2.9547,-2.9282,-2.9167,-2.9098,-2.9098,-2.9382,-2.9328,-2.8995,-2.7881,-2.7269,-2.6941,-2.5571,-2.5017,-2.5069,-2.5001,-2.5851,-2.6941,-2.5572,-2.5819,-2.6665,-2.5504,-2.5412,-2.5763,-2.5251,-2.5488,-2.5819,-2.5191,-2.5064,-2.5088,-2.5025,-2.5048,-2.5088,-2.5025,-2.5005,-2.5025,-2.5088,-2.5091,-2.5091,-2.5091,-2.5091,-2.5088,-2.5005,-2.5005,-2.5064,-2.5256,-2.5448,-2.5543,-2.5432,-2.5505,-2.5597,-2.5597,-2.5597,-2.5543,-2.5413,-2.557,-2.5661,-2.5597,-2.5768,-2.555,-2.4741,-2.5234,-2.4956,-2.3648,-2.4148,-2.4541,-2.4717,-2.4046,-2.4407,-2.5832,-2.5127,-2.5053,-2.5586,-2.5435,-2.5013,-2.8656,-2.8457,-2.8389,-2.83,-2.8313,-2.8076,-2.6942,-2.6592,-2.6343,-2.5691,-2.6246,-2.7095,0.0,0.0,0.0,-2.8471,-2.9181,0.0,-2.8977,-2.9856,0.0,0.0,0.0,-3.0531,-3.0417,-3.0692,0.0,0.0,-3.0671,-3.0609,-3.038,-3.0253,-3.0021,-2.9643,-2.9695,-2.9645,-2.9468,-2.9512,-2.9412,-2.9144,-2.9321,-2.9298,-2.9098,-2.9382,-2.908,-2.83,-2.7566,-2.6941,-2.6349,-2.5285,-2.5262,-2.581,-2.4995,-2.5691,-2.6925,-2.5422,-2.5356,-2.5921,-2.5246,-2.5052,-2.5058,-2.4909,-2.5052,-2.5223,-2.5049,-2.5064,-2.5107,-2.5088,-2.5088,-2.5107,-2.5088,-2.5045,-2.5005,-2.5025,-2.5025,-2.5025,-2.5025,-2.5025,-2.5025,-2.5005,-2.5045,-2.5088,-2.5146,-2.5278,-2.5391,-2.5413,-2.5432,-2.5489,-2.5597,-2.5505,-2.5413,-2.5336,-2.5432,-2.5454,-2.5371,-2.5562,-2.5348,-2.4601,-2.4695,-2.4439,-2.3632,-2.3745,-2.386,-2.3895,-2.3715,-2.4091,-2.5005,-2.4722,-2.4853,-2.5355,-2.5088,-2.4675,-2.8429,-2.8294,-2.8182,-2.8313,-2.8445,-2.8204,-2.6932,-2.7118,-2.7264,-2.6278,-2.7172,0.0,0.0,0.0,0.0,0.0,0.0,0.0,-2.9465,-3.0033,-3.0443,0.0,-3.0526,0.0,-3.0443,-3.0671,-3.077,0.0,-3.0609,-3.0547,-3.038,-3.0151,-2.9995,-2.9902,-2.9764,-2.9675,-2.9608,-2.948,-2.9321,-2.9098,-2.9252,-2.9252,-2.9098,-2.9321,-2.9098,-2.8489,-2.7565,-2.6952,-2.6482,-2.5307,-2.5158,-2.5599,-2.5024,-2.5543,-2.6462,-2.5251,-2.5185,-2.5623,-2.5022,-2.4786,-2.4726,-2.4862,-2.4926,-2.5005,-2.5029,-2.5048,-2.5048,-2.5088,-2.5088,-2.5029,-2.497,-2.4946,-2.4902,-2.4846,-2.4866,-2.4906,-2.4906,-2.4946,-2.5005,-2.5005,-2.5048,-2.5068,-2.497,-2.5143,-2.5278,-2.524,-2.532,-2.5432,-2.5448,-2.5486,-2.5448,-2.5314,-2.5435,-2.5492,-2.5429,-2.5619,-2.5368,-2.4549,-2.45,-2.4175,-2.3444,-2.3394,-2.354,-2.3863,-2.3863,-2.4236,-2.5003,-2.4839,-2.4862,-2.5068,-2.4806,-2.4426,-2.8637,-2.847,-2.8196,-2.8384,-2.8574,-2.8324,-2.6797,-2.7586,-2.8167,-2.6507,0.0,-2.936,-2.9934,0.0,-2.9403,-3.103,0.0,-2.9475,-3.0549,-3.0609,-3.0526,-3.0526,-3.0651,-3.0692,-3.0547,-3.0651,-3.0671,-3.051,-3.0485,-3.038,-3.021,-2.9979,-2.9826,-2.9814,-2.9726,-2.963,-2.945,-2.9366,-2.9236,-2.9098,-2.9098,-2.9098,-2.9098,-2.9236,-2.9236,-2.9035,-2.7674,-2.711,-2.6967,-2.5424,-2.4909,-2.5092,-2.4977,-2.5352,-2.5873,-2.5094,-2.5138,-2.5483,-2.4873,-2.465,-2.465,-2.4906,-2.4985,-2.5005,-2.5068,-2.5064,-2.5005,-2.5088,-2.5048,-2.4966,-2.4862,-2.4802,-2.4782,-2.463,-2.4706,-2.4802,-2.4802,-2.4922,-2.5005,-2.5005,-2.5029,-2.5009,-2.4846,-2.508,-2.5217,-2.5045,-2.524,-2.5375,-2.5314,-2.5448,-2.5502,-2.5278,-2.5492,-2.5624,-2.5543,-2.5615,-2.5295,-2.4384,-2.4317,-2.3922,-2.3088,-2.3083,-2.3401,-2.4026,-2.4156,-2.4545,-2.5192,-2.5118,-2.4954,-2.4735,-2.4523,-2.4193,-2.8131,-2.8243,-2.8367,-2.8523,-2.8675,-2.8524,-2.7531,-2.8337,0.0,0.0,0.0,-3.0937,-3.1638,-3.1462,0.0,-3.1287,0.0,0.0,0.0,0.0,-3.0671,0.0,0.0,0.0,0.0,0.0,0.0,0.0,-3.0338,-3.0231,-3.0189,-3.006,-2.9798,-2.9418,-2.9592,-2.9525,-2.9183,-2.9259,-2.9236,-2.9098,-2.9098,-2.9098,-2.9098,-2.9236,-2.9236,-2.9019,-2.7723,0.0,-2.6967,-2.5326,-2.5039,-2.5596,-2.4864,-2.5108,-2.5754,-2.5073,-2.486,-2.4959,-2.4997,-2.489,-2.4782,-2.4822,-2.4922,-2.5005,-2.5005,-2.5005,-2.5005,-2.5088,-2.5048,-2.4985,-2.4966,-2.4882,-2.4782,-2.463,-2.4706,-2.4802,-2.4802,-2.4922,-2.5005,-2.5005,-2.4922,-2.4882,-2.4946,-2.5005,-2.51,-2.5236,-2.5294,-2.5298,-2.5294,-2.5333,-2.5314,-2.5146,-2.5278,-2.5317,-2.5204,-2.4759,-2.4188,-2.3462,-2.3325,-2.297,-2.2319,-2.2812,-2.3143,-2.3201,-2.3971,-2.4265,-2.409,-2.465,-2.4739,-2.4385,-2.4172,-2.3925,-2.8485,-2.8415,-2.8353,-2.8549,-2.8749,-2.879,-2.8336,0.0,0.0,0.0,0.0,-3.1915,-3.2144,0.0,0.0,0.0,0.0,0.0,0.0,0.0,0.0,0.0,0.0,0.0,0.0,0.0,0.0,0.0,-3.0316,-3.0231,-3.0103,-2.9946,-2.9681,-2.9328,-2.9418,-2.9366,-2.9098,-2.9167,-2.9167,-2.9098,-2.9098,-2.9137,-2.9213,-2.919,-2.8978,-2.8514,-2.7413,-2.6702,-2.6282,-2.5087,-2.4873,-2.5241,-2.4907,-2.523,-2.5795,-2.5073,-2.5022,-2.534,-2.5381,-2.51,-2.4769,-2.5169,-2.5165,-2.5005,-2.5045,-2.5025,-2.5005,-2.5045,-2.4966,-2.4866,-2.4806,-2.4726,-2.4641,-2.4609,-2.4706,-2.4802,-2.4802,-2.4922,-2.4966,-2.4922,-2.4842,-2.4782,-2.4762,-2.4842,-2.4886,-2.4926,-2.5068,-2.5182,-2.5158,-2.5182,-2.5201,-2.5201,-2.5259,-2.5278,-2.5262,-2.4981,-2.4484,-2.372,-2.3708,-2.3512,-2.3054,-2.3408,-2.374,-2.4049,-2.4474,-2.4572,-2.4324,-2.4574,-2.4508,-2.4151,-2.3903,-2.3516,-2.8943,-2.861,-2.8282,-2.8574,-2.881,-2.8952,-2.8905,-3.0044,0.0,0.0,-3.1639,-3.2524,-3.2284,0.0,0.0,0.0,0.0,0.0,0.0,0.0,0.0,0.0,0.0,0.0,0.0,0.0,0.0,0.0,-3.0269,-3.0189,-2.9973,-2.9792,-2.957,-2.9282,-2.9282,-2.9236,-2.9052,-2.9075,-2.9098,-2.9098,-2.9098,-2.9144,-2.9259,-2.9121,-2.8775,-2.8207,-2.7196,-2.6436,-2.5894,-2.5009,-2.4686,-2.4782,-2.4866,-2.5332,-2.5863,-2.5226,-2.5351,-2.5864,-2.591,-2.5384,-2.4775,-2.5545,-2.5392,-2.4926,-2.5009,-2.5005,-2.4946,-2.4946,-2.4902,-2.4822,-2.4686,-2.4605,-2.458,-2.4645,-2.4836,-2.4975,-2.4874,-2.4942,-2.4982,-2.4862,-2.4802,-2.4722,-2.462,-2.4681,-2.4742,-2.471,-2.489,-2.5029,-2.5064,-2.5103,-2.5166,-2.5298,-2.5278,-2.5278,-2.5317,-2.5192,-2.4814,-2.4084,-2.4217,-2.4199,-2.3942,-2.4157,-2.4509,-2.5009,-2.4985,-2.4871,-2.4695,-2.4523,-2.4178,-2.3707,-2.3479,-2.2971,-2.8943,-2.8656,-2.838,-2.8706,-2.8839,-2.891,-2.8897,0.0,0.0,0.0,-3.1731,-3.2755,-3.244,-3.2369,-3.2511,0.0,0.0,0.0,0.0,0.0,0.0,0.0,0.0,0.0,0.0,0.0,0.0,0.0,-3.0033,-2.9908,-2.9832,-2.9732,-2.9525,-2.9121,-2.9236,-2.9175,-2.8904,-2.9052,-2.9098,-2.9098,-2.9098,-2.9098,-2.9098,-2.899,-2.8873,-2.8747,-2.746,-2.6863,0.0,-2.5351,-2.4726,-2.4609,-2.463,-2.5071,-2.5722,-2.5628,-2.577,-2.6046,-2.6533,-2.5864,-2.4892,-2.5571,-2.5258,-2.465,-2.4786,-2.4822,-2.4822,-2.4822,-2.4902,-2.4946,-2.4822,-2.4782,-2.4782,-2.4782,-2.5257,-2.5565,-2.5088,-2.4985,-2.5001,-2.4985,-2.4771,-2.469,-2.4906,-2.4722,-2.4645,-2.4993,-2.4926,-2.4942,-2.5236,-2.5166,-2.5169,-2.5359,-2.5224,-2.5088,-2.5045,-2.4531,-2.4134,-2.3923,-2.3942,-2.3995,-2.4087,-2.4617,-2.4981,-2.5088,-2.4914,-2.4655,-2.4343,-2.4219,-2.3669,-2.2834,-2.2673,-2.2254,-2.9548,-2.8909,-2.8259,-2.8612,-2.8761,-2.9071,-3.0013,0.0,0.0,-3.1803,-3.2438,-3.282,-3.2557,-3.2506,-3.2578,0.0,0.0,0.0,0.0,0.0,0.0,0.0,0.0,0.0,0.0,0.0,0.0,0.0,-3.0184,-3.0038,-2.9935,-2.9792,-2.9518,-2.9098,-2.9236,-2.9175,-2.8904,-2.8626,-2.8528,-2.8557,-2.8437,-2.8483,-2.8653,-2.8399,-2.811,-2.7766,-2.6734,-2.601,0.0,-2.5001,-2.4726,-2.4609,-2.4686,-2.5435,-2.6359,-2.5968,-2.6392,-2.7152,-2.7293,-2.6408,-2.5331,-2.6,-2.5408,-2.4446,-2.4625,-2.4726,-2.4782,-2.4706,-2.4766,-2.4862,-2.4802,-2.4862,-2.4866,-2.4726,-2.5011,-2.5217,-2.4833,-2.4826,-2.4842,-2.4722,-2.4645,-2.4609,-2.4701,-2.4701,-2.4742,-2.4886,-2.4906,-2.4985,-2.5146,-2.5127,-2.5146,-2.5224,-2.5146,-2.5146,-2.5224,-2.4907,-2.471,-2.4748,-2.4748,-2.4783,-2.4821,-2.5038,-2.5162,-2.5091,-2.4895,-2.4594,-2.4183,-2.3707,-2.3141,-2.245,-2.2111,-2.1575,-3.0306,-2.9576,-2.8863,-2.9116,-2.9306,-2.9746,0.0,0.0,-3.1759,-3.2711,-3.2932,-3.29,-3.2706,-3.2623,-3.259,0.0,0.0,0.0,0.0,0.0,0.0,0.0,0.0,0.0,0.0,0.0,0.0,-3.0401,-3.0231,-3.0081,-2.9935,-2.9836,-2.957,-2.9167,-2.9144,-2.9052,-2.8865,-2.8268,-2.8034,-2.8123,-2.7816,-2.7905,-2.8305,-2.7784,-2.7504,-2.7342,-2.6293,-2.5555,0.0,-2.4881,-2.4766,-2.4695,-2.4766,-2.5524,-2.6506,-2.624,-2.6757,-2.7635,-2.7844,-2.6984,-2.5871,-2.6351,-2.5651,-2.4585,-2.459,-2.4645,-2.4701,-2.4609,-2.4847,-2.51,-2.5141,-2.5379,-2.553,-2.5111,-2.5165,-2.5199,-2.4798,-2.4786,-2.4822,-2.4681,-2.4645,-2.4666,-2.4661,-2.4701,-2.4766,-2.4866,-2.4946,-2.5045,-2.5166,-2.5204,-2.5204,-2.5243,-2.5185,-2.5185,-2.5262,-2.5166,-2.5146,-2.522,-2.524,-2.5259,-2.5294,-2.5236,-2.5143,-2.5013,-2.4775,-2.4358,-2.3768,-2.3234,-2.2586,-2.1824,-2.1456,-2.0852,-3.1112,-3.0794,-3.0406,-3.0537,-3.0733,-3.1052,0.0,0.0,-3.2311,-3.2802,-3.3011,-3.3042,-3.2838,-3.2807,-3.2807,-3.2807,-3.269,0.0,0.0,0.0,0.0,0.0,0.0,0.0,0.0,0.0,0.0,-3.0396,-3.0146,0.0,-2.981,-2.9864,-2.9704,-2.9305,-2.8967,-2.8794,-2.8794,-2.8077,-2.7764,-2.7893,-2.7365,-2.7462,-2.8063,-2.7149,-2.7234,-2.8,-2.6406,-2.5921,0.0,-2.5206,-2.4831,-2.4883,-2.4826,-2.5185,-2.579,-2.6449,-2.6764,-2.7055,-2.8053,-2.7574,-2.6505,-2.6505,-2.5938,-2.5201,-2.473,-2.4544,-2.4518,-2.4569,-2.5175,-2.5816,-2.5952,-2.653,-2.6893,-2.6167,-2.5993,-2.5803,-2.5144,-2.5005,-2.5005,-2.5001,-2.4902,-2.4842,-2.4966,-2.4786,-2.471,-2.5048,-2.5045,-2.5103,-2.5359,-2.5397,-2.5451,-2.5578,-2.541,-2.5217,-2.5025,-2.5068,-2.5091,-2.5091,-2.5091,-2.5166,-2.5294,-2.5103,-2.4946,-2.4815,-2.4487,-2.3876,-2.3016,-2.2791,-2.2029,-2.0718,-2.0582,-2.0017,-3.1179,-3.0731,-3.0305,-3.0502,-3.0576,-3.082,-3.1592,0.0,-3.2104,-3.2771,-3.3378,-3.3609,-3.3039,-3.3265,-3.3344,-3.2762,-3.259,0.0,0.0,0.0,0.0,0.0,0.0,0.0,0.0,0.0,0.0,-3.0274,-3.0,-2.9826,-2.9748,-2.9493,-2.9335,-2.9305,-2.919,-2.9091,-2.9014,-2.8238,-2.7938,-2.8085,-2.7334,-2.7156,-2.7444,-2.6481,-2.6255,-2.6588,-2.5446,-2.5116,-2.5413,-2.5414,-2.5451,-2.5507,-2.5446,-2.5884,-2.6491,-2.6139,-2.6617,-2.7491,-2.776,-2.7543,-2.7041,-2.6579,-2.5925,-2.5195,-2.4699,-2.4518,-2.4632,-2.5305,-2.5773,-2.6075,-2.6127,-2.6306,-2.629,-2.5512,-2.5342,-2.5258,-2.4818,-2.4866,-2.4966,-2.4882,-2.4902,-2.4966,-2.5048,-2.5084,-2.5123,-2.522,-2.5143,-2.5146,-2.5359,-2.5355,-2.5371,-2.5451,-2.5371,-2.5333,-2.5391,-2.522,-2.5204,-2.5429,-2.5317,-2.5278,-2.5375,-2.5259,-2.4846,-2.4142,-2.3888,-2.3231,-2.2179,-2.1667,-2.0948,-2.0074,-2.0004,-1.9719,0.0,-3.1351,-3.1063,-3.1191,-3.1251,0.0,0.0,0.0,0.0,-3.2809,-3.3327,-3.3539,-3.3069,-3.3311,-3.3355,-3.281,-3.2639,0.0,0.0,0.0,0.0,0.0,0.0,0.0,0.0,0.0,-3.0253,-3.0065,-2.9897,-2.9722,-2.957,-2.9373,-2.9243,-2.9236,-2.916,-2.9075,-2.9029,-2.8283,-2.7983,-2.8151,-2.7072,-2.6919,-2.7566,-2.6303,-2.6104,-2.6751,-2.579,-2.5555,0.0,-2.5999,-2.6129,-2.6183,-2.6166,-2.6233,-2.6389,-2.643,-2.6791,-2.7316,-2.7744,-2.7851,-2.7673,-2.7026,-2.6399,-2.5774,-2.515,-2.4953,-2.515,-2.6089,-2.6409,-2.6533,-2.6627,-2.642,-2.6061,-2.5572,-2.5215,-2.495,-2.4831,-2.4866,-2.4942,-2.4982,-2.4985,-2.5045,-2.5162,-2.5201,-2.524,-2.5294,-2.5259,-2.5262,-2.5378,-2.5375,-2.5355,-2.5413,-2.5336,-2.5352,-2.5483,-2.5259,-2.5185,-2.5394,-2.5298,-2.524,-2.5282,-2.522,-2.4819,-2.401,-2.3871,-2.311,-2.1684,-2.0733,-2.0075,-1.9723,-1.9687,-1.9596,0.0,-3.2388,-3.2388,-3.2388,-3.249,-3.2556,0.0,0.0,0.0,0.0,0.0,0.0,0.0,-3.3053,-3.3039,-3.3012,-3.286,0.0,0.0,0.0,0.0,0.0,0.0,0.0,0.0,-3.0286,-3.0044,-2.981,-2.975,-2.9611,-2.9289,-2.9389,-2.9337,-2.9091,-2.8897,-2.8834,-2.8904,-2.8285,-2.8039,-2.8142,-2.6777,-2.6857,-2.8132,-2.6524,-2.6545,0.0,-2.6964,-2.6763,-2.6999,-2.6829,-2.6795,-2.6889,-2.6936,-2.6436,-2.5843,-2.7143,-2.716,-2.6684,-2.792,-2.8334,-2.8227,-2.7697,-2.719,-2.6685,-2.6009,-2.5801,-2.5984,-2.6862,-2.7084,-2.7095,-2.7285,-2.6785,-2.6209,-2.612,-2.5456,-2.4882,-2.5048,-2.4946,-2.4922,-2.5236,-2.5143,-2.5064,-2.5294,-2.522,-2.5166,-2.5314,-2.5355,-2.5378,-2.5397,-2.5378,-2.5378,-2.5378,-2.5336,-2.5294,-2.5294,-2.5166,-2.5127,-2.5127,-2.5091,-2.5107,-2.5091,-2.5025,-2.4735,-2.4241,-2.4138,-2.3264,-2.152,-2.0148,-1.9561,-1.9685,-1.9641,-1.9593,-3.2371,0.0,-3.2249,-3.2249,-3.2266,-3.2301,0.0,0.0,0.0,0.0,0.0,0.0,0.0,0.0,0.0,0.0,0.0,0.0,0.0,0.0,0.0,0.0,0.0,0.0,0.0,-3.0288,-2.9804,-2.9592,-2.9373,-2.9236,-2.9144,-2.9037,-2.8936,-2.8873,-2.8865,-2.892,-2.9052,-2.8724,-2.8623,-2.8715,-2.7753,-2.7274,-2.718,-2.6086,-2.5566,-2.5576,-2.5625,-2.5845,-2.6236,-2.6929,-2.7455,-2.7775,-2.7597,-2.7503,-2.7457,-2.7187,-2.6911,-2.6747,-2.7527,-2.772,-2.7635,-2.7589,-2.6796,-2.5934,-2.6529,-2.6767,-2.6878,-2.7116,-2.7353,-2.7412,-2.684,-2.6563,-2.6246,-2.5465,-2.5136,-2.4989,-2.4886,-2.495,-2.5088,-2.5259,-2.5182,-2.5166,-2.5467,-2.5371,-2.5314,-2.5486,-2.5317,-2.5224,-2.5378,-2.5262,-2.5204,-2.5317,-2.522,-2.5146,-2.5146,-2.522,-2.524,-2.524,-2.5103,-2.5064,-2.5091,-2.4946,-2.4416,-2.3548,-2.2722,-2.2094,-2.1655,-2.0795,-2.0407,-2.043,-1.9926,-1.965,-3.2686,-3.2649,-3.2558,-3.2703,-3.2649,-3.2595,-3.2721,0.0,0.0,0.0,0.0,0.0,0.0,0.0,0.0,0.0,0.0,0.0,0.0,0.0,0.0,0.0,0.0,0.0,0.0,-3.0141,-2.9754,-2.9518,-2.9382,-2.9229,-2.9098,-2.8998,-2.8944,-2.8944,-2.8982,-2.8982,-2.8967,-2.8881,-2.8842,-2.8811,-2.8,-2.7486,-2.7246,-2.6361,-2.5812,-2.5612,-2.6168,-2.6457,-2.6654,-2.7635,-2.8116,-2.8241,-2.8217,-2.8015,-2.7779,-2.7778,-2.7476,-2.7214,-2.7845,-2.8007,-2.7914,-2.7713,-2.7422,-2.7149,-2.7083,-2.7434,-2.787,-2.7934,-2.7819,-2.7624,-2.7235,-2.6574,-2.5856,-2.5277,-2.5162,-2.5162,-2.4985,-2.5029,-2.5146,-2.5275,-2.5162,-2.5143,-2.541,-2.5317,-2.5259,-2.5355,-2.5278,-2.5204,-2.5262,-2.5166,-2.5127,-2.5201,-2.5201,-2.5146,-2.5048,-2.524,-2.5317,-2.5204,-2.5123,-2.5048,-2.5091,-2.4966,-2.4534,-2.3763,-2.258,-2.1837,-2.1615,-2.0847,-2.0372,-2.0203,-1.9815,-1.965,-3.2947,-3.3019,-3.3078,-3.333,-3.3221,-3.3058,-3.321,0.0,0.0,0.0,0.0,0.0,0.0,0.0,0.0,0.0,0.0,0.0,0.0,0.0,0.0,0.0,0.0,0.0,-3.013,-2.9945,-2.9742,-2.9496,-2.9377,-2.9207,-2.9009,-2.8963,-2.894,-2.8933,-2.9028,-2.8951,-2.8747,-2.8858,-2.8826,-2.8685,-2.7969,-2.7643,-2.7641,-2.6838,-2.6505,-2.655,-2.7207,-2.748,-2.7489,-2.8372,-2.8652,-2.8493,-2.8723,-2.8342,-2.7752,-2.8553,-2.8342,-2.7736,-2.8264,-2.8442,-2.8388,-2.8,-2.834,-2.8688,-2.7561,-2.7849,-2.8571,-2.8493,-2.8049,-2.7567,-2.7554,-2.6494,-2.5416,-2.5333,-2.5294,-2.5259,-2.5107,-2.5068,-2.5088,-2.5217,-2.5064,-2.5005,-2.522,-2.5127,-2.5048,-2.5127,-2.5182,-2.5182,-2.5127,-2.5091,-2.5107,-2.5088,-2.5201,-2.5201,-2.5025,-2.5224,-2.5282,-2.5146,-2.5107,-2.5088,-2.5048,-2.495,-2.4706,-2.4302,-2.3113,-2.2224,-2.1689,-2.0843,-2.0194,-1.976,-1.9656,-1.965,-3.2371,-3.2961,-3.3534,-3.336,-3.3242,-3.3048,0.0,0.0,0.0,0.0,0.0,0.0,0.0,0.0,0.0,0.0,0.0,0.0,0.0,0.0,0.0,0.0,0.0,-3.0855,-3.069,-3.0006,-2.9518,-2.9328,-2.8748,-2.8421,-2.8509,-2.8399,-2.8259,-2.8088,-2.8645,-2.8795,-2.846,-2.87,-2.8755,-2.8621,-2.8384,-2.8006,-2.7496,-2.6756,-2.6454,-2.6505,-2.6562,-2.6971,-2.7628,-2.8215,-2.8597,-2.8826,-2.8803,-2.8811,-2.8864,-2.8997,-2.8542,-2.7832,-2.779,-2.7798,-2.7945,-2.8467,-2.8372,-2.7973,-2.738,-2.7849,-2.8383,-2.7316,-2.699,-2.6799,-2.6124,-2.5802,-2.5589,-2.5355,-2.5294,-2.5256,-2.5045,-2.4926,-2.4862,-2.4862,-2.4766,-2.4771,-2.5088,-2.489,-2.4811,-2.5201,-2.506,-2.4926,-2.5072,-2.5091,-2.5088,-2.5025,-2.5088,-2.5127,-2.5088,-2.5111,-2.5185,-2.5259,-2.5103,-2.4966,-2.4862,-2.4564,-2.4364,-2.4302,-2.3697,-2.3103,-2.2497,-2.1819,-2.1142,-2.052,-1.9941,-1.969,-3.288,-3.3444,-3.3936,-3.3769,-3.3527,-3.3181,0.0,0.0,0.0,0.0,0.0,0.0,0.0,0.0,0.0,0.0,0.0,0.0,0.0,0.0,0.0,0.0,0.0,-2.9661,-2.9572,-2.9195,-2.9058,-2.9273,-2.8647,-2.8408,-2.8751,-2.8025,-2.7851,-2.8433,-2.8379,-2.8412,-2.8517,-2.8636,-2.8565,-2.8275,-2.8201,-2.785,-2.7224,-2.7026,-2.6787,-2.6528,-2.6938,-2.7294,-2.7635,-2.8262,-2.8597,-2.8724,-2.8692,-2.8803,-2.8944,-2.8982,-2.8732,-2.8365,-2.8288,-2.8225,-2.8186,-2.821,-2.8144,-2.7879,-2.6988,-2.7116,-2.7385,-2.6377,-2.6438,-2.6707,-2.6344,-2.5972,-2.5645,-2.5413,-2.5489,-2.5508,-2.5084,-2.5041,-2.5001,-2.4746,-2.4706,-2.4726,-2.4831,-2.4751,-2.4766,-2.5001,-2.4902,-2.4862,-2.5009,-2.5088,-2.5068,-2.5005,-2.5123,-2.5146,-2.5064,-2.5185,-2.5262,-2.5294,-2.5143,-2.5029,-2.4966,-2.463,-2.4405,-2.4302,-2.3639,-2.2911,-2.2164,-2.1509,-2.0831,-2.0094,-1.9857,-1.9708,-3.3125,-3.3574,-3.3829,-3.3563,0.0,-3.3485,-3.3125,0.0,0.0,0.0,0.0,0.0,0.0,0.0,0.0,0.0,0.0,0.0,0.0,0.0,0.0,-2.8468,-2.8415,-2.8441,-2.8456,-2.8456,-2.8598,-2.8996,-2.8243,-2.7945,-2.8385,-2.7415,-2.7318,-2.8386,-2.8042,-2.8084,-2.8597,-2.8565,-2.8396,-2.8079,-2.8079,-2.782,-2.7318,-2.7426,-2.728,-2.7015,-2.7501,-2.7782,-2.7915,-2.8451,-2.8653,-2.8653,-2.8692,-2.8763,-2.8795,-2.8747,-2.8748,-2.8811,-2.8654,-2.8506,-2.835,-2.7867,-2.779,-2.7692,-2.6575,-2.6411,-2.6512,-2.6002,-2.6289,-2.674,-2.6561,-2.6124,-2.5698,-2.5492,-2.5621,-2.564,-2.5143,-2.5084,-2.5025,-2.4666,-2.4666,-2.4701,-2.4609,-2.4686,-2.4782,-2.4862,-2.4862,-2.4902,-2.5045,-2.5127,-2.5127,-2.5025,-2.5182,-2.5217,-2.5005,-2.5185,-2.5317,-2.5259,-2.5166,-2.5091,-2.5088,-2.4771,-2.445,-2.4128,-2.3402,-2.2531,-2.1534,-2.1046,-2.0404,-1.9629,-1.9741,-1.9705,-3.2336,-3.2625,-3.2794,-3.1979,0.0,0.0,-3.3797,0.0,0.0,0.0,0.0,0.0,0.0,0.0,0.0,0.0,0.0,0.0,0.0,0.0,-2.8233,-2.7718,-2.8046,-2.8315,-2.8325,-2.8303,-2.8275,-2.818,-2.6946,-2.6244,-2.64,-2.6197,-2.6356,-2.6936,-2.7451,-2.8,-2.8597,-2.8468,-2.8411,-2.8363,-2.8363,-2.8356,-2.828,-2.7798,-2.7899,-2.8411,-2.7914,-2.8108,-2.8716,-2.8834,-2.8897,-2.8881,-2.9029,-2.899,-2.8826,-2.8327,-2.8462,-2.8802,-2.8191,-2.7955,-2.7924,-2.7741,-2.7387,-2.6875,-2.6209,-2.6172,-2.6375,-2.6568,-2.6656,-2.6558,-2.5859,-2.5782,-2.5826,-2.5619,-2.5508,-2.5378,-2.5146,-2.4871,-2.4609,-2.4539,-2.4518,-2.4539,-2.4589,-2.4609,-2.471,-2.5029,-2.5025,-2.506,-2.5256,-2.5336,-2.5301,-2.5127,-2.522,-2.5217,-2.5005,-2.5068,-2.5127,-2.5111,-2.5127,-2.5068,-2.5005,-2.4746,-2.4273,-2.3568,-2.3257,-2.2406,-2.1049,-2.0877,-2.0426,-1.969,-1.9708,-1.9599,-3.2354,-3.292,-3.3316,-3.2488,0.0,0.0,0.0,0.0,0.0,0.0,0.0,0.0,0.0,0.0,0.0,0.0,0.0,0.0,0.0,-2.8586,-2.7957,-2.7428,-2.6984,-2.6783,-2.6862,-2.6836,-2.6961,-2.7343,-2.6413,-2.6015,-2.6498,-2.5634,-2.5801,-2.7237,-2.715,-2.7579,-2.8597,-2.8565,-2.8517,-2.8517,-2.8444,-2.8411,-2.8396,-2.8349,-2.8498,-2.8716,-2.8514,-2.8615,-2.8865,-2.8897,-2.8904,-2.8904,-2.8967,-2.8722,-2.8399,-2.8512,-2.8349,-2.8139,-2.8373,-2.8093,-2.761,-2.7302,-2.6844,-2.6303,-2.5743,-2.6018,-2.6566,-2.6668,-2.7068,-2.7286,-2.6539,-2.6401,-2.6322,-2.5793,-2.5624,-2.553,-2.5278,-2.5025,-2.4786,-2.4605,-2.4564,-2.4605,-2.4706,-2.4726,-2.4806,-2.5005,-2.5025,-2.5025,-2.5103,-2.5278,-2.532,-2.5111,-2.5146,-2.5182,-2.5197,-2.5103,-2.5048,-2.5107,-2.5048,-2.5064,-2.5048,-2.4574,-2.4033,-2.351,-2.2664,-2.1818,-2.0992,-2.057,-2.0146,-1.9708,-1.9744,-1.9687,-3.2197,-3.2554,-3.2801,0.0,0.0,0.0,0.0,0.0,0.0,0.0,0.0,0.0,0.0,0.0,0.0,0.0,0.0,0.0,-2.8792,-2.8205,-2.7428,-2.6846,-2.6157,-2.5827,-2.5962,-2.59,-2.5999,-2.6398,-2.5732,-2.5487,-2.5852,-2.502,-2.534,-2.7117,-2.6782,-2.7224,-2.8597,-2.8636,-2.866,-2.866,-2.8597,-2.8525,-2.8468,-2.87,-2.8818,-2.885,-2.892,-2.8943,-2.8904,-2.899,-2.9013,-2.8935,-2.8669,-2.8449,-2.8245,-2.817,-2.8039,-2.7969,-2.8373,-2.8093,-2.7526,-2.7344,-2.6888,-2.6354,-2.6074,-2.6442,-2.7053,-2.734,-2.7624,-2.7745,-2.7264,-2.699,-2.6632,-2.5863,-2.5682,-2.5605,-2.5429,-2.5201,-2.497,-2.4791,-2.4751,-2.4751,-2.4866,-2.4886,-2.4946,-2.5103,-2.5123,-2.5162,-2.5204,-2.532,-2.532,-2.5111,-2.5146,-2.5166,-2.5217,-2.5103,-2.5045,-2.5068,-2.5025,-2.493,-2.4731,-2.4271,-2.3677,-2.2916,-2.2095,-2.1377,-2.0782,-2.0292,-1.9957,-1.9726,-1.9741,-1.965,-3.1757,-3.132,0.0,0.0,0.0,0.0,0.0,0.0,0.0,0.0,0.0,0.0,0.0,0.0,0.0,0.0,0.0,0.0,-2.7695,-2.711,-2.6467,-2.5869,-2.5728,-2.5743,-2.5879,-2.578,-2.5611,-2.5407,-2.4823,-2.438,-2.412,-2.4219,-2.4912,-2.6265,-2.6311,-2.7041,-2.8597,-2.8747,-2.8794,-2.8794,-2.8865,-2.8779,-2.8597,-2.8747,-2.885,-2.892,-2.9052,-2.9013,-2.8928,-2.9198,-2.9198,-2.8996,-2.8196,-2.817,-2.8435,-2.7174,-2.751,-2.8528,-2.8075,-2.7825,-2.7764,-2.8012,-2.7642,-2.7137,-2.7353,-2.7515,-2.7817,-2.8733,-2.8371,-2.7741,-2.7883,-2.7392,-2.6695,-2.5882,-2.5659,-2.5597,-2.5597,-2.5336,-2.5091,-2.5091,-2.5064,-2.5025,-2.5088,-2.5091,-2.5166,-2.5359,-2.5397,-2.5473,-2.5682,-2.5513,-2.532,-2.5111,-2.522,-2.5217,-2.5005,-2.5048,-2.5068,-2.5005,-2.4985,-2.4669,-2.392,-2.3888,-2.3167,-2.1624,-2.1592,-2.1161,-2.0304,-2.0111,-1.9919,-1.9797,-1.9665,-1.9501,-3.186,-3.1785,0.0,0.0,0.0,0.0,0.0,0.0,0.0,0.0,0.0,0.0,0.0,0.0,0.0,-2.7326,-2.6769,-2.6611,-2.7578,-2.6623,-2.5814,-2.5754,-2.5197,-2.4875,-2.4911,-2.4777,-2.4652,-2.4505,-2.4279,-2.4109,-2.403,-2.4508,-2.5229,-2.6206,-2.678,-2.762,-2.8732,-2.8684,-2.8708,-2.8794,-2.8525,-2.8525,-2.8732,-2.8834,-2.8858,-2.885,-2.9021,-2.9013,-2.8873,-2.8584,-2.8529,-2.8618,-2.8,-2.7614,-2.7436,-2.7767,-2.7914,-2.7953,-2.8389,-2.8224,-2.787,-2.805,-2.7729,-2.7322,-2.7369,-2.789,-2.8493,-2.8783,-2.8665,-2.8373,-2.7875,-2.7333,-2.6714,-2.6008,-2.5826,-2.5768,-2.5621,-2.5413,-2.522,-2.5127,-2.5072,-2.5127,-2.5282,-2.5301,-2.5339,-2.5397,-2.5397,-2.547,-2.5619,-2.5451,-2.5317,-2.5301,-2.5224,-2.5146,-2.5088,-2.5064,-2.4985,-2.4862,-2.4543,-2.4274,-2.4049,-2.3541,-2.2756,-2.168,-2.121,-2.0694,-2.0168,-2.0043,-1.9919,-1.9797,-1.9665,-1.9574,-3.1605,0.0,0.0,0.0,0.0,0.0,0.0,0.0,0.0,0.0,0.0,0.0,0.0,0.0,0.0,-2.6682,-2.6069,-2.592,-2.7038,-2.6209,-2.5511,-2.5532,-2.488,-2.438,-2.4312,-2.4193,-2.4051,-2.3894,-2.3867,-2.3839,-2.3839,-2.4474,-2.5198,-2.6032,-2.6802,-2.768,-2.8565,-2.8589,-2.8589,-2.8565,-2.8405,-2.8429,-2.8565,-2.8668,-2.8716,-2.8747,-2.892,-2.8936,-2.8857,-2.825,-2.8275,-2.8554,-2.7666,-2.7413,-2.7632,-2.7961,-2.7998,-2.8007,-2.8591,-2.8561,-2.8293,-2.8505,-2.8421,-2.8238,-2.8346,-2.8801,-2.9183,-2.8892,-2.8579,-2.8211,-2.7518,-2.6925,-2.6405,-2.6034,-2.6149,-2.626,-2.5801,-2.5791,-2.5712,-2.5268,-2.5166,-2.532,-2.5763,-2.5644,-2.5567,-2.5876,-2.5705,-2.553,-2.5597,-2.5524,-2.5416,-2.5375,-2.5282,-2.5204,-2.5127,-2.5068,-2.4985,-2.4902,-2.4337,-2.4033,-2.4105,-2.3135,-2.219,-2.1322,-2.0848,-2.06,-2.0584,-2.0472,-2.0485,-2.0669,-2.0139,-1.9923,0.0,0.0,0.0,0.0,0.0,0.0,0.0,0.0,0.0,0.0,0.0,0.0,0.0,0.0,0.0,-2.6086,-2.565,-2.5428,-2.6173,-2.5753,-2.5327,-2.5204,-2.4629,-2.4177,-2.3982,-2.3839,-2.3717,-2.3573,-2.3573,-2.3573,-2.3588,-2.4291,-2.5009,-2.5778,-2.6652,-2.7463,-2.8186,-2.8429,-2.8429,-2.821,-2.8405,-2.8381,-2.8162,-2.8323,-2.8468,-2.8589,-2.8747,-2.8834,-2.8834,-2.8175,-2.8276,-2.8684,-2.7333,-2.7517,-2.8466,-2.7884,-2.7991,-2.846,-2.87,-2.8794,-2.885,-2.9167,-2.9389,-2.9525,-2.9728,-2.9799,-2.9637,-2.8924,-2.8174,-2.7482,-2.6929,-2.6393,-2.5997,-2.6089,-2.6552,-2.6813,-2.611,-2.6306,-2.6361,-2.5481,-2.5381,-2.5644,-2.6321,-2.6047,-2.5926,-2.6545,-2.6084,-2.568,-2.5619,-2.5661,-2.5605,-2.5352,-2.5375,-2.532,-2.5146,-2.5127,-2.5068,-2.5005,-2.4321,-2.3961,-2.4087,-2.28,-2.1698,-2.0898,-2.0732,-2.0905,-2.1378,-2.1176,-2.1402,-2.1959,-2.0955,-2.0484,0.0,0.0,0.0,0.0,0.0,0.0,0.0,0.0,0.0,0.0,0.0,0.0,0.0,0.0,-2.5204,-2.5158,-2.4663,-2.4508,-2.5194,-2.483,-2.4422,-2.4301,-2.4143,-2.3967,-2.3717,-2.3603,-2.3494,-2.337,-2.3348,-2.3407,-2.3516,-2.461,-2.5403,-2.5794,-2.7082,-2.7926,-2.821,-2.8259,-2.8259,-2.821,-2.7949,-2.785,-2.789,-2.825,-2.8411,-2.846,-2.87,-2.8779,-2.8709,-2.8243,-2.8129,-2.8223,-2.77,-2.771,-2.8061,-2.8074,-2.8345,-2.87,-2.8532,-2.8645,-2.8912,-2.9075,-2.9298,-2.9422,-2.9,-2.8952,-2.8892,-2.8142,-2.7446,-2.6879,-2.6753,-2.6652,-2.6654,-2.6827,-2.6535,-2.6299,-2.6482,-2.62,-2.5802,-2.5368,-2.5941,-2.6357,-2.5954,-2.629,-2.6493,-2.6136,-2.5852,-2.5719,-2.5824,-2.5712,-2.56,-2.554,-2.5451,-2.5375,-2.5275,-2.5166,-2.5091,-2.5088,-2.4433,-2.4068,-2.4105,-2.3101,-2.2456,-2.2263,-2.2082,-2.1991,-2.2007,-2.1858,-2.1803,-2.1827,-2.1451,-2.0976,0.0,0.0,0.0,0.0,0.0,0.0,0.0,0.0,0.0,0.0,0.0,0.0,0.0,0.0,-2.4541,-2.4272,-2.4109,-2.4125,-2.4474,-2.4231,-2.3961,-2.3818,-2.3775,-2.3661,-2.3385,-2.3334,-2.3268,-2.3201,-2.3142,-2.3319,-2.3807,-2.4722,-2.5488,-2.5992,-2.7174,-2.784,-2.79,-2.8039,-2.8088,-2.8103,-2.775,-2.76,-2.763,-2.7955,-2.8152,-2.8226,-2.8493,-2.8636,-2.863,-2.8175,-2.8261,-2.862,-2.8041,-2.8005,-2.8287,-2.8362,-2.8429,-2.8517,-2.8493,-2.8645,-2.8881,-2.9052,-2.9037,-2.8926,-2.8667,-2.8441,-2.8126,-2.7429,-2.6976,-2.6685,-2.6668,-2.6506,-2.6659,-2.7787,-2.7797,-2.7534,-2.7434,-2.7382,-2.7153,-2.6606,-2.6636,-2.6717,-2.6665,-2.6775,-2.6643,-2.6051,-2.5846,-2.5828,-2.5936,-2.5842,-2.5712,-2.5659,-2.5562,-2.5467,-2.5355,-2.5259,-2.5201,-2.5201,-2.4531,-2.4273,-2.4567,-2.3711,-2.3064,-2.2718,-2.2499,-2.2516,-2.2735,-2.2559,-2.2611,-2.2838,-2.2024,-2.145,0.0,0.0,0.0,0.0,0.0,0.0,0.0,0.0,0.0,0.0,0.0,0.0,0.0,-2.3631,-2.3674,-2.3566,-2.3754,-2.3919,-2.394,-2.3861,-2.3754,-2.3566,-2.3494,-2.3356,-2.3105,-2.306,-2.3037,-2.306,-2.3072,-2.3393,-2.4112,-2.4828,-2.5502,-2.6144,-2.7055,-2.7549,-2.7575,-2.7815,-2.793,-2.788,-2.7665,-2.7514,-2.7361,-2.764,-2.784,-2.798,-2.8299,-2.8493,-2.8574,-2.8247,-2.8555,-2.9173,-2.8369,-2.8334,-2.8685,-2.8549,-2.8396,-2.8259,-2.8429,-2.8612,-2.8794,-2.8982,-2.8817,-2.8499,-2.8421,-2.8044,-2.7482,-2.6674,-2.6529,-2.6626,-2.6597,-2.6454,-2.682,-2.8641,-2.9264,-2.9247,-2.851,-2.8569,-2.8518,-2.7741,-2.7039,-2.6779,-2.7433,-2.7042,-2.651,-2.6072,-2.5954,-2.5952,-2.6026,-2.5972,-2.5881,-2.5756,-2.5696,-2.56,-2.5508,-2.5375,-2.5317,-2.5355,-2.474,-2.462,-2.5134,-2.4393,-2.3629,-2.2907,-2.2757,-2.296,-2.3471,-2.3163,-2.3289,-2.3812,-2.246,-2.1786,0.0,0.0,0.0,0.0,0.0,0.0,0.0,0.0,0.0,0.0,0.0,0.0,0.0,-2.3348,-2.3363,-2.3326,-2.3473,-2.3596,-2.3653,-2.3739,-2.3689,-2.3385,-2.3341,-2.3216,-2.2949,-2.288,-2.2849,-2.2925,-2.3455,-2.3827,-2.3923,-2.5058,-2.5806,-2.6019,-2.6802,-2.731,-2.7427,-2.769,-2.7715,-2.7478,-2.7437,-2.7361,-2.7233,-2.7499,-2.77,-2.784,-2.8356,-2.8573,-2.8621,-2.8857,-2.9019,-2.9098,-2.8803,-2.8685,-2.8637,-2.8235,-2.8201,-2.8348,-2.8152,-2.8323,-2.8645,-2.885,-2.895,-2.8826,-2.7838,-2.7491,-2.7176,-2.5865,-2.591,-2.6375,-2.6494,-2.7372,-2.8387,-2.8888,-2.9552,-2.9861,-2.9062,-2.8079,-2.7246,-2.6837,-2.6349,-2.6202,-2.6802,-2.6466,-2.6071,-2.6008,-2.599,-2.6026,-2.6168,-2.6063,-2.5974,-2.5956,-2.5899,-2.5844,-2.5826,-2.5565,-2.5454,-2.5645,-2.5335,-2.5221,-2.5359,-2.491,-2.4347,-2.366,-2.3864,-2.404,-2.4164,-2.3392,-2.3087,-2.3193,-2.2422,-2.1751,0.0,0.0,0.0,0.0,0.0,0.0,0.0,0.0,0.0,0.0,0.0,0.0,-2.2884,-2.268,-2.2622,-2.3098,-2.298,-2.297,-2.337,-2.3334,-2.3201,-2.2979,-2.2926,-2.2828,-2.2632,-2.2661,-2.2841,-2.3209,-2.3506,-2.3981,-2.4714,-2.5275,-2.5773,-2.6274,-2.6735,-2.7093,-2.7284,-2.7463,-2.7463,-2.7284,-2.7437,-2.7412,-2.7207,-2.7473,-2.7625,-2.77,-2.8088,-2.8381,-2.8566,-2.8748,-2.8959,-2.9167,-2.8912,-2.8684,-2.8501,-2.8299,-2.8217,-2.8177,-2.8201,-2.8444,-2.8732,-2.885,-2.8768,-2.85,-2.8007,-2.7647,-2.7278,-2.6654,-2.6702,-2.6942,-2.6988,-2.7557,-2.8128,-2.8232,-2.8641,-2.8878,-2.8604,-2.8478,-2.8089,-2.7071,-2.6719,-2.651,-2.6332,-2.6094,-2.5954,-2.5992,-2.6063,-2.6151,-2.6241,-2.6276,-2.624,-2.6115,-2.6096,-2.5989,-2.5809,-2.5645,-2.5607,-2.5701,-2.5546,-2.5448,-2.5397,-2.5107,-2.4784,-2.4383,-2.4287,-2.3887,-2.3115,-2.3076,-2.2863,-2.2483,-2.187,-2.1433,0.0,0.0,0.0,0.0,0.0,0.0,0.0,0.0,0.0,0.0,0.0,0.0,-2.1883,-2.1764,-2.1729,-2.2367,-2.2141,-2.2139,-2.2805,-2.2702,-2.2566,-2.2566,-2.2683,-2.2657,-2.2385,-2.2628,-2.3044,-2.3502,-2.3688,-2.4236,-2.534,-2.5569,-2.5881,-2.6431,-2.6618,-2.687,-2.7207,-2.7284,-2.7284,-2.7207,-2.7397,-2.7397,-2.7258,-2.7524,-2.7675,-2.7715,-2.798,-2.8259,-2.8527,-2.8629,-2.8865,-2.9137,-2.885,-2.8604,-2.8387,-2.8339,-2.8177,-2.8079,-2.8241,-2.8484,-2.8723,-2.8842,-2.8644,-2.8338,-2.8215,-2.7906,-2.7546,-2.737,-2.7343,-2.7364,-2.7385,-2.7515,-2.7664,-2.7684,-2.7847,-2.7961,-2.7931,-2.8431,-2.847,-2.7081,-2.6852,-2.6671,-2.6016,-2.5952,-2.5989,-2.6045,-2.6151,-2.6258,-2.6347,-2.6451,-2.645,-2.6292,-2.6274,-2.6152,-2.5956,-2.5811,-2.5775,-2.5848,-2.5696,-2.5562,-2.5473,-2.5227,-2.495,-2.4634,-2.4471,-2.3773,-2.254,-2.2734,-2.2476,-2.1816,-2.1259,-2.1006,0.0,0.0,0.0,0.0,0.0,0.0,0.0,0.0,0.0,0.0,0.0,-2.0113,-2.0299,-2.0564,-2.0762,-2.0818,-2.0811,-2.1011,-2.1693,-2.1721,-2.181,-2.217,-2.2847,-2.2998,-2.2287,-2.2942,-2.3526,-2.3688,-2.4225,-2.4783,-2.5369,-2.5942,-2.627,-2.6299,-2.6445,-2.6736,-2.7207,-2.7207,-2.7207,-2.7207,-2.7192,-2.7284,-2.7401,-2.7665,-2.7855,-2.798,-2.825,-2.8468,-2.8597,-2.8803,-2.8865,-2.8818,-2.866,-2.8517,-2.8363,-2.8103,-2.8103,-2.8162,-2.8054,-2.8217,-2.846,-2.8723,-2.8803,-2.8693,-2.8232,-2.8101,-2.7927,-2.7294,-2.7153,-2.7248,-2.7385,-2.7453,-2.7541,-2.7664,-2.7806,-2.7767,-2.7271,-2.7346,-2.7221,-2.6242,-2.6203,-2.6257,-2.5952,-2.6059,-2.6202,-2.6185,-2.6241,-2.6347,-2.6468,-2.6554,-2.6571,-2.6485,-2.6434,-2.6435,-2.6537,-2.6151,-2.6008,-2.626,-2.5844,-2.5637,-2.5682,-2.5304,-2.4789,-2.414,-2.4426,-2.4206,-2.3429,-2.2567,-2.1865,-2.1316,-2.0725,-2.0435,0.0,0.0,0.0,0.0,0.0,0.0,0.0,0.0,0.0,0.0,0.0,-1.919,-1.9014,-1.9607,-2.0297,-2.0886,-2.0848,-2.0851,-2.1156,-2.1443,-2.1523,-2.1333,-2.2193,-2.272,-2.2547,-2.3238,-2.3935,-2.4481,-2.4824,-2.5223,-2.581,-2.6051,-2.6245,-2.6418,-2.6392,-2.6645,-2.7181,-2.7207,-2.7233,-2.7335,-2.7335,-2.7386,-2.7524,-2.7715,-2.7915,-2.8152,-2.8323,-2.8453,-2.8542,-2.847,-2.8558,-2.8716,-2.8541,-2.8396,-2.8259,-2.825,-2.8177,-2.8079,-2.8201,-2.8372,-2.8565,-2.8747,-2.8873,-2.8951,-2.8791,-2.8674,-2.8581,-2.8413,-2.8417,-2.8262,-2.7583,-2.779,-2.8028,-2.7308,-2.6899,-2.6775,-2.7156,-2.7393,-2.7419,-2.7079,-2.7083,-2.7252,-2.7626,-2.769,-2.7709,-2.7781,-2.7858,-2.7764,-2.7381,-2.747,-2.7352,-2.681,-2.6742,-2.6691,-2.6606,-2.6452,-2.6383,-2.6487,-2.6171,-2.5954,-2.5901,-2.5132,-2.4537,-2.4167,-2.416,-2.349,-2.2161,-2.2329,-2.1812,-2.0641,-2.0479,-2.0388,0.0,0.0,0.0,0.0,0.0,0.0,0.0,0.0,0.0,0.0,0.0,-1.8553,-1.8246,-1.8987,-1.9734,-1.9998,-2.0204,-2.0339,-2.0361,-2.0755,-2.1033,-2.0947,-2.1983,-2.2631,-2.2418,-2.3478,-2.4329,-2.4735,-2.505,-2.5459,-2.6055,-2.6084,-2.6218,-2.6484,-2.6486,-2.6686,-2.7144,-2.7181,-2.7233,-2.735,-2.7624,-2.779,-2.7944,-2.8312,-2.8622,-2.8868,-2.8679,-2.8547,-2.847,-2.8365,-2.8453,-2.8597,-2.8444,-2.8348,-2.8259,-2.8323,-2.825,-2.8152,-2.8275,-2.8444,-2.8636,-2.8771,-2.892,-2.9052,-2.9144,-2.9106,-2.9059,-2.9144,-2.9039,-2.8748,-2.7939,-2.7869,-2.7809,-2.7052,-2.662,-2.6557,-2.7201,-2.7484,-2.7712,-2.7928,-2.8033,-2.8202,-2.8632,-2.868,-2.8682,-2.8734,-2.8811,-2.8634,-2.7996,-2.8015,-2.781,-2.7043,-2.6975,-2.6908,-2.6792,-2.6691,-2.6624,-2.6624,-2.6348,-2.6152,-2.6026,-2.5299,-2.4855,-2.4724,-2.4556,-2.3668,-2.2045,-2.2426,-2.183,-2.0373,-2.0407,-2.0407,0.0,0.0,0.0,0.0,0.0,0.0,0.0,0.0,0.0,0.0,0.0,-1.8293,-1.8062,-1.8776,-1.9064,-1.8052,-1.8763,-1.9409,-1.9328,-1.9718,-2.0311,-2.1086,-2.2289,-2.2753,-2.1925,-2.3694,-2.4725,-2.4368,-2.4878,-2.5487,-2.6082,-2.6111,-2.6245,-2.6484,-2.6712,-2.6873,-2.7003,-2.713,-2.7222,-2.7237,-2.8043,-2.8502,-2.8652,-2.9444,-2.9955,-3.0143,-2.9387,-2.8824,-2.8458,-2.8572,-2.8548,-2.8458,-2.8442,-2.8442,-2.8427,-2.8275,-2.8299,-2.8372,-2.8235,-2.8381,-2.8612,-2.8747,-2.8834,-2.8951,-2.9198,-2.9305,-2.9305,-2.9305,-2.8968,-2.8592,-2.8436,-2.7618,-2.6857,-2.6992,-2.7087,-2.7184,-2.7406,-2.7607,-2.7968,-2.8598,-2.8898,-2.8989,-2.882,-2.895,-2.9024,-2.8897,-2.8987,-2.8862,-2.8254,-2.8152,-2.7878,-2.7206,-2.7119,-2.7101,-2.7119,-2.6858,-2.6708,-2.6708,-2.64,-2.6152,-2.601,-2.5795,-2.5687,-2.5687,-2.5624,-2.48,-2.3276,-2.283,-2.1887,-2.051,-2.051,-2.051,-2.9094,0.0,0.0,0.0,0.0,0.0,-2.4122,-2.3321,-2.2373,0.0,0.0,-1.9488,-1.8357,-1.8762,-1.8898,-1.7793,-1.9144,-2.0228,-1.9853,-2.0193,-2.0494,-2.0481,-2.1521,-2.2398,-2.2854,-2.3989,-2.4866,0.0,-2.5744,-2.6074,-2.6245,-2.6474,-2.6527,-2.6353,-2.6753,-2.7029,-2.713,-2.7299,-2.7639,-2.8219,-2.8424,-2.8873,-2.9485,-2.98,-3.0099,-3.034,-3.0197,-3.0089,-2.9964,-2.9404,-2.9496,-2.9948,-2.9577,-2.9399,-2.9328,-2.8605,-2.8372,-2.8372,-2.8235,-2.8323,-2.8468,-2.8612,-2.8771,-2.8928,-2.9082,-2.9082,-2.9082,-2.9366,-2.9291,-2.9026,-2.8753,-2.8073,-2.751,-2.7692,-2.7751,-2.7981,-2.8802,-2.9109,-2.9324,-2.964,-2.9766,-2.9956,-3.0484,-3.0643,-3.0662,-3.0607,-3.0717,-3.0554,-2.9859,-2.9385,-2.8835,-2.8128,-2.7654,-2.7357,-2.7249,-2.7217,-2.7121,-2.6942,-2.6691,-2.6469,-2.6225,-2.5568,-2.5146,-2.5059,-2.4986,-2.4197,-2.2652,-2.2963,-2.2294,-2.0795,-2.0745,-2.0712,0.0,0.0,0.0,0.0,0.0,0.0,-2.4225,-2.3753,-2.3091,0.0,-2.0419,-1.9933,-1.8859,-1.8899,-1.8838,-1.8019,-1.9347,-2.025,-1.9522,-1.9954,-2.0287,-2.0159,-2.1106,-2.2019,-2.2743,-2.3834,-2.4747,-2.5297,-2.5888,-2.6233,-2.6233,-2.6447,-2.6527,-2.6406,-2.6727,-2.7015,-2.7207,-2.7335,-2.7646,-2.811,-2.8715,-2.9274,-2.9744,-3.034,-3.08,-3.1068,-3.0909,-3.0891,-3.0881,-3.0303,-3.0111,-3.0154,-2.9909,-2.963,-2.9325,-2.8768,-2.858,-2.8556,-2.8468,-2.8525,-2.8645,-2.8763,-2.8936,-2.9082,-2.9229,-2.9213,-2.919,-2.9366,-2.9412,-2.9425,-2.9625,-2.921,-2.8783,-2.8932,-2.9239,-2.9527,-2.9586,-3.0152,-3.0583,-3.0499,-3.0526,-3.0719,-3.1167,-3.1293,-3.1276,-3.1254,-3.1404,-3.1124,-3.0137,-2.9713,-2.9126,-2.8168,-2.7743,-2.7467,-2.7345,-2.7329,-2.7217,-2.6958,-2.6809,-2.6607,-2.6382,-2.5894,-2.5591,-2.5506,-2.5418,-2.4607,-2.308,-2.3219,-2.2516,-2.1023,-2.1006,-2.1006,0.0,0.0,0.0,0.0,0.0,0.0,-2.3776,-2.3612,-2.3349,-2.1246,-2.0577,-2.0176,-1.9571,-1.9237,-1.8934,-1.8623,-1.9436,-1.9798,-1.8916,-1.9443,-2.0,-2.0226,-2.0943,-2.1614,-2.2052,-2.3455,-2.446,-2.4755,-2.561,-2.6111,-2.6111,-2.6286,-2.6406,-2.6484,-2.6724,-2.6963,-2.7207,-2.7335,-2.7501,-2.7665,-2.8958,-2.9654,-2.9834,-3.1029,-3.1741,-3.1994,-3.1564,-3.142,-3.1416,-3.1226,-3.0585,-2.9729,-2.9808,-2.9467,-2.8927,-2.881,-2.8865,-2.8951,-2.8927,-2.8967,-2.9053,-2.9162,-2.9231,-2.9305,-2.945,-2.9473,-2.9473,-2.9373,-2.9434,-2.9707,-3.0561,-3.051,-3.0282,-3.0389,-3.1077,-3.135,-3.0085,-3.0875,-3.1616,-3.1086,-3.1092,-3.119,-3.121,-3.1254,-3.1293,-3.1249,-3.1385,-3.1043,-2.9764,-2.9558,-2.9038,-2.782,-2.7594,-2.7481,-2.7392,-2.7279,-2.7119,-2.6892,-2.6758,-2.664,-2.6502,-2.6502,-2.6502,-2.6502,-2.6281,-2.5462,-2.4017,-2.342,-2.2489,-2.1262,-2.1309,-2.134,0.0,0.0,0.0,0.0,0.0,0.0,-2.5531,-2.4913,-2.4163,0.0,-2.2739,-2.1698,-2.0631,-1.982,-1.9378,-1.9592,-1.9578,-1.9665,-2.0003,-2.0412,-2.0801,-2.1116,-2.1122,-2.1367,-2.2037,-2.3151,-2.4057,-2.4594,-2.5664,-2.626,-2.626,-2.6527,-2.6633,-2.651,-2.6907,-2.7155,-2.7207,-2.7423,-2.8087,-2.9164,-2.946,-3.0133,-3.1165,-3.1677,-3.1981,-3.2163,-3.2442,-3.226,-3.1726,-3.1954,-3.1397,-3.038,-3.0207,-2.9981,-2.9688,-2.899,-2.9226,-2.9895,-2.9687,-2.9744,-2.9935,-2.9864,-2.9509,-2.9167,-2.9305,-2.9328,-2.9373,-2.957,-2.9653,-2.973,-3.0014,-3.0354,-3.0684,-3.1013,-3.1697,-3.206,-3.1366,-3.1506,-3.1574,-3.0903,-3.0915,-3.1095,-3.1254,-3.1387,-3.1462,-3.144,-3.1521,-3.1271,-3.0415,-2.9868,-2.9262,-2.8411,-2.7921,-2.7537,-2.7261,-2.7308,-2.7182,-2.6775,-2.6708,-2.664,-2.6502,-2.6502,-2.6502,-2.6502,-2.5798,-2.498,-2.4081,-2.2745,-2.1927,-2.1603,-2.1678,-2.1678,0.0,0.0,0.0,-2.5618,0.0,0.0,0.0,-2.4362,-2.4106,-2.2894,-2.2287,0.0,0.0,0.0,-1.9431,-1.9421,-1.9418,-1.9746,-2.0581,-2.0688,-2.0681,-2.0661,-2.0927,-2.1358,-2.2023,-2.3016,-2.4083,-2.5252,-2.5941,-2.6313,-2.6313,-2.6621,-2.6738,-2.6645,-2.7026,-2.7207,-2.7207,-2.7473,-2.8083,-2.9006,-2.9469,-3.0225,-3.1159,-3.1745,-3.1855,-3.1619,-3.2002,-3.1564,-3.0629,-3.0999,-3.0616,-2.9777,-3.0068,-2.9935,-2.9541,-2.9549,-2.9643,-2.9784,-3.0117,-3.0116,-3.0002,-3.0337,-3.0233,-3.0071,-3.043,-3.0279,-2.9984,-3.0115,-3.0167,-3.038,-3.1191,-3.1657,-3.1913,-3.1772,-3.239,-3.2636,-3.1297,-3.1371,-3.1511,-3.0924,-3.0875,-3.1015,-3.1232,-3.1329,-3.1287,-3.1003,-3.1319,-3.1205,-3.0142,-3.0127,-2.9798,-2.8752,-2.8342,-2.7925,-2.7405,-2.7293,-2.7135,-2.6875,-2.6758,-2.6674,-2.6606,-2.6589,-2.6589,-2.6554,-2.5782,-2.5195,-2.4794,-2.3688,-2.2675,-2.1812,-2.1825,-2.1855,0.0,0.0,0.0,0.0,0.0,-2.533,0.0,0.0,0.0,0.0,0.0,0.0,0.0,0.0,0.0,0.0,0.0,0.0,0.0,-2.1297,0.0,-2.0584,-2.1037,-2.1589,-2.2113,-2.3016,-2.4221,-2.5815,-2.6154,-2.6304,-2.6299,-2.6621,-2.6806,-2.6806,-2.7143,-2.7299,-2.7207,-2.7675,-2.8166,-2.8654,-2.951,-3.0307,-3.1026,-3.1682,-3.1721,-3.1287,-3.157,-3.101,-2.9923,-3.0322,-3.0044,-2.9391,-2.9848,-2.9753,-2.9421,-2.9981,-3.0019,-2.9881,-3.0482,-3.0461,-3.0242,-3.092,-3.1121,-3.1212,-3.1644,-3.1356,-3.0836,-3.0692,-3.0674,-3.0969,-3.22,-3.2619,-3.2657,-3.232,-3.2833,-3.2856,-3.1028,-3.1141,-3.1447,-3.0944,-3.0892,-3.0972,-3.119,-3.1291,-3.1183,-3.0697,-3.1201,-3.1173,-2.9903,-3.0335,-3.03,-2.9077,-2.8871,-2.8475,-2.773,-2.747,-2.7225,-2.6992,-2.6842,-2.6758,-2.6758,-2.6758,-2.6742,-2.6674,-2.615,-2.5777,-2.5593,-2.4983,-2.3841,-2.2174,-2.2337,-2.2365,0.0,0.0,0.0,0.0,-2.5332,0.0,0.0,0.0,-2.3349,-2.3668,0.0,0.0,0.0,0.0,0.0,0.0,0.0,0.0,-2.3309,-2.3406,-2.3213,-2.2878,-2.2395,-2.2152,-2.2353,-2.3198,-2.4195,-2.523,-2.5905,-2.6294,-2.6312,-2.6621,-2.6806,-2.6806,-2.7462,-2.7609,-2.7207,-2.8477,-2.9223,-2.9475,-3.0103,-3.0874,-3.1707,-3.191,-3.2076,-3.2262,-3.2594,-3.2346,-3.1726,-3.2064,-3.1702,-3.0835,-2.9807,-2.9766,-3.0179,-2.9623,-3.0311,-3.1428,-3.0889,-3.1151,-3.1769,-3.1967,-3.1983,-3.1866,-3.1829,-3.1813,-3.1706,-3.1036,-3.0797,-3.0767,-3.1052,-3.1062,-3.1221,-3.2145,-3.2472,-3.2344,-3.1616,-3.1548,-3.1426,-3.0842,-3.0831,-3.0975,-3.1237,-3.1387,-3.1466,-3.1458,-3.1638,-3.1489,-3.0662,-3.0593,-3.0335,-2.9591,-2.9504,-2.9142,-2.8284,-2.8232,-2.7874,-2.696,-2.6942,-2.6958,-2.6958,-2.6958,-2.6925,-2.6876,-2.684,-2.6514,-2.5864,-2.5603,-2.4664,-2.3158,-2.3932,-2.3928,0.0,0.0,0.0,0.0,0.0,0.0,-2.4541,0.0,-2.2988,0.0,0.0,0.0,0.0,0.0,0.0,0.0,-2.1803,0.0,0.0,0.0,-2.3458,0.0,0.0,0.0,-2.3466,-2.4427,-2.5171,-2.5568,-2.6468,-2.6882,-2.6592,-2.6806,-2.6925,-2.6925,-2.7683,-2.798,-2.7768,-2.8913,-2.9704,-3.0118,-3.0569,-3.1205,-3.1912,-3.215,-3.2032,-3.1719,-3.1936,-3.171,-3.1202,-3.1508,-3.1559,-3.1389,-3.0942,-3.0607,-3.0426,-3.067,-3.0931,-3.1202,-3.147,-3.1806,-3.2194,-3.2631,-3.299,-3.3129,-3.2692,-3.2603,-3.2579,-3.2271,-3.1819,-3.1569,-3.2053,-3.1819,-3.1584,-3.2141,-3.2338,-3.2239,-3.1671,-3.1555,-3.1426,-3.0821,-3.081,-3.0975,-3.1257,-3.1406,-3.1401,-3.1123,-3.1433,-3.1415,-3.0675,-3.0896,-3.0879,-3.0195,-3.0126,-2.9816,-2.9059,-2.8594,-2.8166,-2.7741,-2.7263,-2.6991,-2.6991,-2.6991,-2.6992,-2.6959,-2.6992,-2.6853,-2.6546,-2.6447,-2.5855,-2.4786,-2.462,-2.4414,-2.6798,0.0,0.0,0.0,0.0,0.0,0.0,0.0,0.0,0.0,0.0,0.0,0.0,0.0,0.0,0.0,0.0,-2.281,0.0,0.0,0.0,0.0,0.0,0.0,0.0,-2.5309,-2.591,-2.5889,-2.6945,-2.7385,-2.6974,-2.7015,-2.7067,-2.7107,-2.7992,-2.837,-2.8261,-2.9513,-3.0238,-3.0507,-3.0983,-3.1498,-3.2025,-3.2247,-3.2054,-3.1593,-3.1728,-3.161,-3.1306,-3.1608,-3.1997,-3.2437,-3.2643,-3.2305,-3.1678,-3.1774,-3.1565,-3.1363,-3.1952,-3.229,-3.259,-3.3226,-3.3729,-3.3953,-3.3468,-3.3323,-3.3274,-3.308,-3.2668,-3.2417,-3.2951,-3.2424,-3.1871,-3.2402,-3.2351,-3.2132,-3.1935,-3.1939,-3.1876,-3.145,-3.147,-3.1618,-3.1845,-3.164,-3.1331,-3.1003,-3.1309,-3.1389,-3.0841,-3.1158,-3.1259,-3.0822,-3.0772,-3.05,-2.9799,-2.9265,-2.8853,-2.8629,-2.8047,-2.7672,-2.7656,-2.7484,-2.7381,-2.7365,-2.7175,-2.7106,-2.7089,-2.7072,-2.6797,-2.628,-2.556,-2.5186,0.0,0.0,0.0,-2.6472,0.0,0.0,0.0,0.0,-2.3398,0.0,0.0,0.0,0.0,0.0,0.0,0.0,0.0,0.0,0.0,0.0,0.0,0.0,0.0,0.0,0.0,-2.5383,-2.5951,0.0,-2.7033,-2.7665,-2.7397,-2.7258,-2.7258,-2.7376,-2.8485,-2.8855,-2.8408,-3.0421,-3.112,-3.0507,-3.1366,-3.184,-3.1981,-3.215,-3.2315,-3.2563,-3.2784,-3.2904,-3.306,-3.3465,-3.3968,-3.4537,-3.4959,-3.4978,-3.4617,-3.2555,-3.2192,-3.2659,-3.2175,-3.2504,-3.3282,-3.3875,-3.4009,-3.3899,-3.3866,-3.3866,-3.3721,-3.3005,-3.2934,-3.3064,-3.308,-3.2122,-3.1505,-3.3008,-3.2467,-3.1845,-3.269,-3.2949,-3.3053,-3.3031,-3.3117,-3.3262,-3.3318,-3.2221,-3.1372,-3.1545,-3.154,-3.1481,-3.1464,-3.137,-3.1351,-3.1464,-3.1464,-3.1175,-3.0443,-3.0538,-3.0282,-2.9523,-2.9437,-2.9386,-2.9317,-2.8697,-2.8319,-2.8252,-2.7676,-2.7362,-2.7299,-2.7231,-2.7246,-2.7341,-2.7115,-2.6639,-2.7076,-2.6684,-2.6346,-2.6516,0.0,0.0,0.0,0.0,0.0,0.0,0.0,0.0,0.0,0.0,0.0,0.0,0.0,0.0,0.0,0.0,0.0,0.0,0.0,0.0,0.0,0.0,0.0,0.0,-2.7837,0.0,-2.8332,-2.7675,-2.7787,-2.8823,-2.9136,-2.9409,-2.9659,-3.0871,-3.1433,-3.1353,-3.1749,-3.1996,-3.215,-3.2259,-3.237,-3.2453,-3.2551,-3.2703,-3.3005,-3.3309,-3.3863,-3.4579,-3.5029,-3.5382,-3.546,-3.3887,-3.346,-3.3646,-3.3543,-3.3632,-3.3851,-3.4144,-3.4151,-3.4025,-3.4025,-3.4025,-3.3977,-3.3734,-3.3396,-3.3105,-3.3145,-3.2501,-3.2115,-3.3257,-3.3294,-3.3155,-3.3556,-3.3651,-3.3562,-3.3056,-3.2994,-3.306,-3.3113,-3.282,-3.2669,-3.2952,-3.2849,-3.2615,-3.2219,-3.1975,-3.1715,-3.14,-3.1443,-3.1416,-3.1218,-3.0883,-3.0351,-2.9558,-2.9506,-2.9489,-2.9472,-2.9248,-2.911,-2.9093,-2.8986,-2.8638,-2.8088,-2.8168,-2.8216,-2.8249,-2.8184,-2.7752,-2.7133,-2.6785,-2.6393,-2.6251,-2.6164,0.0,-2.5219,0.0,-2.445,0.0,0.0,0.0,0.0,0.0,0.0,0.0,0.0,0.0,0.0,-2.5768,0.0,0.0,0.0,0.0,0.0,0.0,0.0,0.0,0.0,0.0,0.0,-2.8455,-2.8598,-2.9776,-2.9964,-3.0213,-3.0537,-3.1309,-3.1712,-3.1799,-3.1955,-3.2053,-3.215,-3.2315,-3.2425,-3.248,-3.2551,-3.273,-3.2993,-3.3524,-3.4202,-3.5015,-3.5648,-3.6276,-3.6669,-3.5079,-3.4327,-3.4126,-3.4201,-3.4176,-3.4126,-3.4325,-3.4226,-3.405,-3.4101,-3.4075,-3.4025,-3.4025,-3.3793,-3.3535,-3.3575,-3.315,-3.2901,-3.3724,-3.3855,-3.3879,-3.4167,-3.428,-3.417,-3.3642,-3.3605,-3.3712,-3.3746,-3.3918,-3.3907,-3.3562,-3.3452,-3.3237,-3.2822,-3.2397,-3.2043,-3.1695,-3.1557,-3.1538,-3.1671,-3.1334,-3.0887,-3.0351,-3.0352,-3.0335,-3.0317,-3.0093,-2.9955,-2.992,-2.9747,-2.9417,-2.8932,-2.9031,-2.9096,-2.9128,-2.9128,-2.8865]},{"header":{"parameterUnit":"m.s-1","parameterCategory":1,"la1":30.6,"la2":29.2853,"lo1":-89.7004,"lo2":-87.6739,"dy":0.0162,"dx":0.0183,"nx":112,"ny":82,"refTime":"2024-04-15T06:00:00:Z","depth":0,"parameterNumber":3,"parameterNumberName":"V-component_of_WINDS"},"data":[0.0,0.0,0.0,0.0,0.0,0.0,0.0,0.0,0.0,0.0,0.0,0.0,0.0,0.0,0.0,0.0,0.0,0.0,0.0,0.0,0.0,0.0,0.0,0.0,0.0,0.0,0.0,0.0,0.0,0.0,0.0,0.0,0.0,0.0,0.0,0.0,0.0,0.0,0.0,0.0,0.0,0.0,0.0,0.0,0.0,0.0,0.0,0.0,0.0,0.0,0.0,0.0,0.0,0.0,0.0,0.0,0.0,0.0,0.0,0.0,0.0,0.0,0.0,0.0,0.0,0.0,0.0,0.0,0.0,0.0,0.0,0.0,0.0,0.0,0.0,0.0,0.0,0.0,0.0,0.0,0.0,0.0,0.0,0.0,0.0,0.0,0.0,0.0,0.0,0.0,1.0701,1.0569,0.9724,0.8892,0.8181,0.7779,0.6879,0.5341,0.0,0.0,0.0,0.0,0.0,0.0,0.0,0.0,0.0,0.0,0.0,0.0,0.0,0.0,0.0,0.0,0.0,0.0,0.0,0.0,0.0,0.0,0.0,0.0,0.0,0.0,0.0,0.0,0.0,0.0,0.0,0.0,0.0,0.0,0.0,0.0,0.0,0.0,0.0,0.0,0.0,0.0,0.0,0.0,0.0,0.0,0.0,0.0,0.0,0.0,0.0,0.0,0.0,0.0,0.0,0.0,0.0,0.0,0.0,0.0,0.0,0.0,0.0,0.0,0.0,0.0,0.0,0.0,0.0,0.0,0.0,0.0,0.0,0.0,0.0,0.0,0.0,0.0,0.0,0.0,0.0,0.0,0.0,0.0,0.0,0.0,0.0,0.0,0.0,0.0,0.0,0.0,0.0,0.0,0.0,0.0,0.0,0.0,0.0,0.0,0.0,0.0,0.0,0.0,1.1098,1.0425,1.0156,0.9641,0.8743,0.81,0.7231,0.6013,0.0,0.0,0.0,0.0,0.0,0.0,0.0,0.0,0.0,0.0,0.0,0.0,0.0,0.0,0.0,0.0,0.0,0.0,0.0,0.0,0.0,0.0,0.0,0.0,0.0,0.0,0.0,0.0,0.0,0.0,0.0,0.0,0.0,0.0,0.0,0.0,0.0,0.0,0.0,0.0,0.0,0.0,0.0,0.0,0.0,0.0,0.0,0.0,0.0,0.0,0.0,0.0,0.0,0.0,0.0,0.0,0.0,0.0,0.0,0.0,0.0,0.0,0.0,0.0,0.0,0.0,0.0,0.0,0.0,0.0,0.0,0.0,0.0,0.0,0.0,0.0,0.0,0.0,0.0,0.0,0.0,0.0,0.0,0.0,0.0,0.0,0.0,0.0,0.0,0.0,0.0,0.0,0.0,0.0,0.0,0.0,0.0,0.0,0.0,0.0,0.0,0.0,0.0,1.1536,1.1554,1.1156,1.0704,1.0091,0.9257,0.8529,0.7551,0.618,0.5465,0.0,0.0,0.0,0.0,0.0,0.0,0.0,0.0,0.0,0.0,0.0,0.0,0.0,0.0,0.0,0.0,0.0,0.0,0.0,0.0,0.0,0.0,0.0,0.0,0.0,0.0,0.0,0.0,0.0,0.0,0.0,0.0,0.0,0.0,0.0,0.0,0.0,0.0,0.0,0.0,0.0,0.0,0.0,0.0,0.0,0.0,0.0,0.0,0.0,0.0,0.0,0.0,0.0,0.0,0.0,0.0,0.0,0.0,0.0,0.0,0.0,0.0,0.0,0.0,0.0,0.0,0.0,0.0,0.0,0.0,0.0,0.0,0.0,0.0,0.0,0.0,0.0,0.0,0.0,0.0,0.0,0.0,0.0,0.0,0.0,0.0,0.0,0.0,0.0,0.0,0.0,0.0,0.0,0.0,0.0,0.0,0.0,0.0,0.0,0.0,0.0,0.0,1.1967,1.1963,1.1862,1.1316,1.0611,0.9815,0.8946,0.7849,0.6401,0.5746,0.0,0.0,0.0,0.0,0.0,0.0,0.0,0.0,0.0,0.0,0.0,0.0,0.0,0.0,0.0,0.0,0.0,0.0,0.0,0.0,0.0,0.0,0.0,0.0,0.0,0.0,0.0,0.0,0.0,0.0,0.0,0.0,0.0,0.0,0.0,0.0,0.0,0.0,0.0,0.0,0.0,0.0,0.0,0.0,0.0,0.0,0.0,0.0,0.0,0.0,0.0,0.0,0.0,0.0,0.0,0.0,0.0,0.0,0.0,0.0,0.0,0.0,0.0,0.0,0.0,0.0,0.0,0.0,0.0,0.0,0.0,0.0,0.0,0.0,0.0,0.0,0.0,0.0,0.0,0.0,0.0,0.0,0.0,0.0,0.0,0.0,0.0,0.0,0.0,0.0,0.0,0.0,0.0,0.0,0.0,0.0,0.0,0.0,0.0,0.0,0.0,0.0,1.2058,1.2282,1.2009,1.1988,1.1586,1.0521,0.9358,0.819,0.7006,0.5962,0.0,0.0,0.0,0.0,0.0,0.0,0.0,0.0,0.0,0.0,0.0,0.0,0.0,0.0,0.0,0.0,0.0,0.0,0.0,0.0,0.0,0.0,0.0,0.0,0.0,0.0,0.0,0.0,0.0,0.0,0.0,0.0,0.0,0.0,0.0,0.0,0.0,0.0,0.0,0.0,0.0,0.0,0.0,0.0,0.0,0.0,0.0,0.0,0.0,0.0,0.0,0.0,0.0,0.0,0.0,0.0,0.0,0.0,0.0,0.0,0.0,0.0,0.0,0.0,0.0,0.0,0.0,0.0,0.0,0.0,0.0,0.0,0.0,0.0,0.0,0.0,0.0,0.0,0.0,0.0,0.0,0.0,0.0,0.0,0.0,0.0,0.0,0.0,0.0,0.0,0.0,0.0,0.0,0.0,0.0,0.0,0.0,0.0,0.0,0.0,0.0,0.0,1.2313,1.2539,0.0,1.2464,1.1833,1.0888,1.0027,0.8904,0.7532,0.0,0.0,0.0,0.0,0.0,0.0,0.0,0.0,0.0,0.0,0.0,0.0,0.0,0.0,0.0,0.0,0.0,0.0,0.0,0.0,0.0,0.0,0.0,0.0,0.0,0.0,0.0,0.0,0.0,0.0,0.0,0.0,0.0,0.0,0.0,0.0,0.0,0.0,0.0,0.0,0.0,0.0,0.0,0.0,0.0,0.0,0.0,0.0,0.0,0.0,0.0,0.0,0.0,0.0,0.0,0.0,0.0,0.0,0.0,0.0,0.0,0.0,0.0,0.0,0.0,0.0,0.0,0.0,0.0,0.0,0.0,0.0,0.0,0.0,0.0,0.0,0.0,0.0,0.0,0.0,0.0,0.0,0.0,0.0,0.0,0.0,0.0,0.0,0.0,0.0,0.0,0.0,0.0,0.0,0.0,0.0,0.0,0.0,0.0,0.0,0.0,0.0,1.208,1.2394,1.268,0.0,1.2767,1.2089,1.1389,1.051,0.9426,0.8068,0.0,0.0,0.0,0.0,0.0,0.0,0.0,0.0,0.0,0.0,0.0,0.0,0.0,0.0,0.0,0.0,0.0,0.0,0.0,0.0,0.0,0.0,0.0,0.0,0.0,0.0,0.0,0.0,0.0,0.0,0.0,0.0,0.0,0.0,0.0,0.0,0.0,0.0,0.0,0.0,0.0,0.0,0.0,0.0,0.0,0.0,0.0,0.0,0.0,0.0,0.0,0.0,0.0,0.0,0.0,0.0,0.0,0.0,0.0,0.0,0.0,0.0,0.0,0.0,0.0,0.0,0.0,0.0,0.0,0.0,0.0,0.0,0.0,0.0,0.0,0.0,0.0,0.0,0.0,0.0,0.0,0.0,0.0,0.0,0.0,0.0,0.0,0.0,0.0,0.0,0.0,0.0,0.0,0.0,0.0,0.0,0.0,0.0,0.0,0.0,0.0,0.0,1.1798,1.2223,1.2632,1.3226,1.2875,1.2428,1.205,1.0796,0.962,0.0,0.0,0.0,0.0,0.0,0.0,0.0,0.0,0.0,0.0,0.0,0.0,0.0,0.0,0.0,0.0,0.0,0.0,0.0,0.0,0.0,0.0,0.0,0.0,0.0,0.0,0.0,0.0,0.0,0.0,0.0,0.0,0.0,0.0,0.0,0.0,0.0,0.0,0.0,0.0,0.0,0.0,0.0,0.0,0.0,0.0,0.0,0.0,0.0,0.0,0.0,0.0,0.0,0.0,0.0,0.0,0.0,0.0,0.0,0.0,0.0,0.0,0.0,0.0,0.0,0.0,0.0,0.0,0.0,0.0,0.0,0.0,0.0,0.0,0.0,0.0,0.0,0.0,0.0,0.0,0.0,0.0,0.0,0.0,0.0,0.0,0.0,0.0,0.0,0.0,0.0,0.0,0.0,0.0,0.0,0.0,0.0,0.0,0.0,0.0,0.0,0.0,0.0,1.1936,1.2223,1.2538,1.3231,1.3042,1.2705,1.2236,1.1705,1.0925,0.9807,0.0,0.0,0.0,0.0,0.0,0.0,0.0,0.0,0.0,0.0,0.0,0.0,0.0,0.0,0.0,0.0,0.0,0.0,0.0,0.0,0.0,0.0,0.0,0.0,0.0,0.0,0.0,0.0,0.0,0.0,0.0,0.0,0.0,0.0,0.0,0.0,0.0,0.0,0.0,0.0,0.0,0.0,0.0,0.0,0.0,0.0,0.0,0.0,0.0,0.0,0.0,0.0,0.0,0.0,0.0,0.0,0.0,0.0,0.0,0.0,0.0,0.0,0.0,0.0,0.0,0.0,0.0,0.0,0.0,0.0,0.0,0.0,0.0,0.0,0.0,0.0,0.0,0.0,0.0,0.0,0.0,0.0,0.0,0.0,0.0,0.0,0.0,0.0,0.0,0.0,0.0,0.0,0.0,0.0,0.0,0.0,0.0,0.0,0.0,0.0,0.0,0.0,1.1835,1.2329,1.2743,1.3364,1.3283,1.3094,1.2789,1.2413,1.1767,1.074,0.0,0.0,0.0,0.0,0.0,0.0,0.0,0.0,0.0,0.0,0.0,0.0,0.0,0.0,0.0,0.0,0.0,0.0,0.0,0.0,0.0,0.0,0.0,0.0,0.0,0.0,0.0,0.0,0.0,0.0,0.0,0.0,0.0,0.0,0.0,0.0,0.0,0.0,0.0,0.0,0.0,0.0,0.0,0.0,0.0,0.0,0.0,0.0,0.0,0.0,0.0,0.0,0.0,0.0,0.0,0.0,0.0,0.0,0.0,0.0,0.0,0.0,0.0,0.0,0.0,0.0,0.0,0.0,0.0,0.0,0.0,0.0,0.0,0.0,0.0,0.0,0.0,0.0,0.0,0.0,0.0,0.0,0.0,0.0,0.0,0.0,0.0,0.0,0.0,0.0,0.0,0.0,0.0,0.0,0.0,0.0,0.0,0.0,0.0,0.0,0.0,0.0,1.162,1.2447,1.311,1.3491,1.3534,1.3541,1.3541,1.2945,1.2269,1.1568,0.0,0.0,0.0,0.0,0.0,0.0,0.0,0.0,0.0,0.0,0.0,0.0,0.0,0.0,0.0,0.0,0.0,0.0,0.0,0.0,0.0,0.0,0.0,0.0,0.0,0.0,0.0,0.0,0.0,0.0,0.0,0.0,0.0,0.0,0.0,0.0,0.0,0.0,0.0,0.0,0.0,0.0,0.0,0.0,0.0,0.0,0.0,0.0,0.0,0.0,0.0,0.0,0.0,0.0,0.0,0.0,0.0,0.0,0.0,0.0,1.006,0.0,0.0,0.0,0.0,0.0,0.0,0.0,0.0,0.0,0.0,0.0,0.0,0.0,0.0,0.0,0.0,0.0,0.0,0.0,0.0,0.0,0.0,0.0,0.0,0.0,0.0,0.0,0.0,0.0,0.0,0.0,0.0,0.0,0.0,0.0,0.0,0.0,0.0,0.0,0.0,0.0,1.1356,1.2098,1.2694,1.309,1.3483,1.3791,1.3881,1.3372,1.2923,1.261,1.1585,0.0,0.0,0.0,0.0,0.0,0.0,0.0,0.0,0.0,0.0,0.0,0.0,0.0,0.0,0.0,0.0,0.0,0.0,0.0,0.0,0.0,0.0,0.0,0.0,0.0,0.0,0.0,0.0,0.0,0.0,0.0,0.0,0.0,0.0,0.0,0.0,0.0,0.0,0.0,0.0,0.0,0.0,0.0,0.0,0.0,0.0,0.0,0.0,0.0,0.0,0.0,0.0,0.0,0.0,0.0,0.0,0.0,0.0,0.0,0.0,1.1031,0.0,0.0,0.0,0.0,0.0,0.0,0.0,0.0,0.0,0.0,0.0,0.0,0.0,0.0,0.0,0.0,0.0,0.0,0.0,0.0,0.0,0.0,0.0,0.0,0.0,0.0,0.0,0.0,0.0,0.0,0.0,0.0,0.0,0.0,0.0,0.0,0.0,0.0,0.0,0.0,1.1718,1.2706,1.3358,1.352,1.3785,1.3931,1.3893,1.3477,1.3192,1.3139,1.2268,0.0,0.0,0.0,0.0,0.0,0.0,0.0,0.0,0.0,0.0,0.0,0.0,0.0,0.0,0.0,0.0,0.0,0.0,0.0,0.0,0.0,0.0,0.0,0.0,0.0,0.0,0.0,0.0,0.0,0.0,0.0,0.0,0.0,0.0,0.0,0.0,0.0,0.0,0.0,0.0,0.0,0.0,0.0,0.0,0.0,0.0,0.0,0.0,0.0,0.0,0.0,0.0,0.0,1.4357,1.4689,1.5225,1.4824,1.4745,1.4839,1.3655,1.2744,1.2089,1.1586,0.0,0.0,0.0,0.0,0.0,0.0,0.0,0.0,0.0,0.0,0.0,0.0,0.0,0.0,0.0,0.0,0.0,0.0,0.0,0.0,0.0,0.0,1.3483,1.3625,1.4046,1.3809,1.1626,0.0,0.0,0.0,0.0,0.0,0.0,0.0,0.0,0.0,0.0,0.0,1.2237,1.3345,1.405,1.396,1.4044,1.4053,1.393,1.3571,1.3414,1.3559,1.2867,1.2188,0.0,0.0,0.0,0.0,0.0,0.0,0.0,0.0,0.0,0.0,0.0,0.0,0.0,0.0,0.0,0.0,0.0,0.0,0.0,0.0,0.0,0.0,0.0,0.0,0.0,0.0,0.0,0.0,0.0,0.0,0.0,0.0,1.0376,0.9905,0.0,0.0,0.0,0.0,0.0,0.0,0.0,0.0,0.0,0.0,0.0,0.0,0.0,1.4674,1.4732,1.5065,1.5387,1.5737,1.5864,1.6122,1.6536,1.6425,1.6253,1.6064,1.5754,0.0,1.3403,1.2934,0.0,0.0,0.0,0.0,0.0,0.0,0.0,0.0,0.0,0.0,0.0,0.0,0.0,0.0,0.0,0.0,0.0,0.0,0.0,0.0,0.0,0.0,1.4535,1.5023,1.5187,1.5109,1.4664,1.327,1.1966,1.1484,1.0849,0.0,0.0,0.0,0.0,0.0,0.0,0.0,1.2263,1.2851,1.3295,1.3378,1.3821,1.4147,1.4298,1.4101,1.4063,1.4242,1.3252,1.2547,1.2276,1.1004,0.0,0.0,0.0,0.0,0.0,0.0,0.0,0.0,0.0,0.0,0.0,0.0,0.0,0.0,0.0,0.0,0.0,0.0,0.0,0.0,0.0,0.0,0.0,0.0,0.0,0.0,0.0,0.0,0.0,1.0656,1.1034,1.0863,1.1155,1.1365,0.0,0.0,0.0,0.0,0.0,0.0,0.0,0.0,0.0,1.5294,1.5617,1.5886,1.6093,1.6243,1.6487,1.6731,1.6794,1.7017,1.7414,1.7143,1.7085,1.7178,1.6854,1.6182,1.5264,1.4414,1.3969,1.3728,0.0,0.0,0.0,0.0,1.1735,1.2058,1.2166,1.2427,1.2696,1.2527,0.0,0.0,0.0,0.0,0.0,0.0,0.0,1.3317,1.3835,1.4581,1.5253,1.5371,1.5478,1.5546,1.5488,1.4897,1.4108,0.0,1.2848,1.2438,1.1836,0.0,0.0,0.0,0.0,1.2933,1.2878,1.3259,1.3598,1.3737,1.3821,1.3997,1.4326,1.4063,1.3942,1.4034,1.3367,1.2911,1.2726,1.1586,1.052,0.0,0.0,0.0,0.0,0.0,0.0,0.0,0.0,0.0,0.0,0.0,0.0,0.0,0.0,0.0,0.0,0.0,0.0,0.0,0.0,0.0,0.0,0.0,0.0,0.0,0.0,0.0,0.0,1.1272,1.1646,1.1934,1.2081,1.2228,0.0,0.0,0.0,0.0,0.0,0.0,1.49,1.5224,1.5718,1.642,1.6662,1.6906,1.7224,1.7344,1.7468,1.7617,1.7649,1.7885,1.819,1.7823,1.7834,1.8082,1.7629,1.7193,1.6749,1.5702,1.5166,1.4973,1.4369,1.4031,1.3884,1.345,1.3354,1.3468,1.3717,1.4013,1.427,1.4249,1.4231,1.4034,1.3334,0.0,0.0,0.0,0.0,1.451,1.4677,1.5225,1.5672,1.5575,1.5633,1.5788,1.5904,1.5999,1.5787,0.0,1.454,1.4332,1.3614,0.0,0.0,0.0,0.0,1.3883,1.3524,1.371,1.3895,1.4073,1.3891,1.3927,1.4326,1.408,1.3885,1.394,1.352,1.3188,1.3044,1.2168,1.1248,1.0288,0.0,0.0,0.0,0.0,0.0,0.0,0.0,0.0,0.0,0.0,0.0,0.0,0.0,0.0,0.0,0.0,0.0,0.0,0.0,0.0,0.0,0.0,0.0,0.0,0.0,0.0,0.0,0.0,0.0,1.2889,1.3094,0.0,0.0,0.0,0.0,1.3911,1.4389,1.4754,1.4969,1.5537,1.5998,1.6296,1.7062,1.7581,1.7857,1.8224,1.8412,1.8445,1.8646,1.8857,1.9034,1.8813,1.8697,1.8637,1.8243,1.7849,1.74,1.6587,1.589,1.5391,1.5659,1.5392,1.4879,1.5285,1.5081,1.4617,1.4617,1.4558,1.4538,1.4852,1.4813,1.4677,1.4775,1.446,0.0,0.0,1.5108,1.5167,1.5323,1.5546,1.573,1.5856,1.5885,1.6,1.6467,1.657,1.6314,0.0,1.5439,1.5391,1.4893,0.0,1.4684,1.4279,1.4638,1.4706,1.4042,1.3811,1.3784,1.3965,1.3999,1.4154,1.4551,1.4449,1.4374,1.4364,1.3758,1.3336,1.3209,1.2715,1.1996,1.1047,1.0117,0.0,0.0,0.0,0.0,0.0,0.0,0.0,0.0,0.0,0.0,0.0,0.0,0.0,0.0,0.0,0.0,0.0,0.0,0.0,0.0,0.0,0.0,0.0,0.0,0.0,0.0,0.0,0.0,1.3698,1.3756,0.0,1.4294,1.403,1.4061,1.4616,1.5177,1.5776,1.6455,1.7051,1.7593,1.8105,1.8247,1.8432,1.8652,1.8693,1.8818,1.9019,1.9085,1.9241,1.9407,1.9341,1.9224,1.9056,1.8666,1.8341,1.8017,1.7451,1.7184,1.7161,1.6845,1.6843,1.7005,1.6773,1.6562,1.6373,1.6373,1.6155,1.5841,1.5742,1.5546,1.5371,1.5594,1.5439,1.5216,1.5546,1.571,1.5787,1.5855,1.6009,1.6144,1.6048,1.6038,1.6066,1.6228,1.6381,1.642,1.62,1.62,1.6114,1.5739,1.5584,1.5477,1.5253,1.4955,1.4676,1.4544,1.4035,1.3914,1.4476,1.4505,1.4625,1.485,1.4668,1.4336,1.3902,1.3577,1.3289,1.3021,1.2792,1.2202,1.1107,1.0633,0.9598,0.0,0.0,0.0,0.0,0.0,0.0,0.0,0.0,0.0,0.0,0.0,0.0,0.0,0.0,0.0,0.0,0.0,0.0,0.0,0.0,0.0,0.0,0.0,0.0,0.0,0.0,1.3605,1.4224,1.4428,1.4708,1.5096,1.4974,1.5022,1.5448,1.6001,1.6592,1.717,1.7693,1.8221,1.8761,1.8639,1.8754,1.9175,1.9042,1.9075,1.9318,1.945,1.9539,1.9605,1.9671,1.9638,1.9495,1.9091,1.8857,1.8783,1.8331,1.8329,1.8481,1.7684,1.7479,1.7623,1.7225,1.689,1.6697,1.6878,1.683,1.6617,1.6411,1.6102,1.5865,1.6124,1.6038,1.5875,1.6029,1.6163,1.6257,1.621,1.6306,1.6374,1.622,1.6142,1.6142,1.6257,1.642,1.6563,1.6712,1.6623,1.6395,1.6143,1.5897,1.5706,1.5681,1.5215,1.4887,1.4952,1.4476,1.4326,1.4812,1.4813,1.4904,1.5128,1.4754,1.4279,1.3643,1.3582,1.329,1.2623,1.2743,1.2318,1.1256,1.0824,0.9888,0.8438,0.0,0.0,0.0,0.0,0.0,0.0,0.0,0.0,0.0,0.0,0.0,0.0,0.0,0.0,0.0,0.0,0.0,0.0,0.0,0.0,0.0,0.0,0.0,1.3299,1.345,1.3791,1.4476,1.5188,1.5626,1.5645,1.6172,1.6497,1.6414,1.6918,1.7158,1.7053,1.7356,1.7747,1.8102,1.8155,1.85,1.9274,1.9318,1.9318,1.9318,1.9671,1.9769,1.9605,1.9802,1.99,1.9868,1.9473,1.9417,1.9572,1.9241,1.9208,1.9191,1.8134,1.7287,1.6648,1.6648,1.6168,1.5615,1.6177,1.6588,1.6848,1.6827,1.651,1.6142,1.6345,1.6278,1.6142,1.6345,1.6506,1.6552,1.6431,1.6413,1.6413,1.6402,1.6278,1.62,1.6542,1.6694,1.6835,1.6983,1.6617,1.6278,1.6153,1.5743,1.549,1.5618,1.5495,0.0,1.5323,1.5129,1.5018,1.5038,1.4916,1.4999,1.5342,1.4792,1.4184,1.365,1.3802,1.3367,1.2122,1.2569,1.243,1.1539,1.0675,0.9809,0.8929,0.0,0.0,0.0,0.0,0.0,0.0,0.0,0.0,0.0,0.0,0.0,0.0,0.0,0.0,0.0,0.0,0.0,0.0,0.0,0.0,0.0,1.3047,1.3442,1.4082,1.4419,1.4969,1.6033,1.612,1.6309,1.6837,1.6794,1.6687,1.6624,1.729,1.7716,1.7791,1.8354,1.8721,1.8812,1.8922,1.905,1.9142,1.9241,1.9374,1.9517,1.9374,1.9539,1.9944,1.978,1.9769,1.99,1.9769,1.9671,1.9605,1.9506,1.9407,1.9255,1.8604,1.8228,1.8051,1.8051,1.8112,1.8203,1.807,1.7874,1.7633,1.7397,1.6861,1.6363,1.662,1.641,1.6171,1.6467,1.641,1.6285,1.6495,1.6477,1.6459,1.6648,1.6581,1.6485,1.657,1.6694,1.6807,1.6864,1.6644,1.6499,1.6735,1.6554,1.6356,1.6195,1.5776,0.0,1.5833,1.5375,1.5175,1.5607,1.5618,1.5515,1.5284,1.5039,1.4708,1.4222,1.4091,1.3894,1.3534,1.372,1.3279,1.2164,1.129,1.0527,0.0,0.0,0.0,0.0,0.0,0.0,0.0,0.0,0.0,0.0,0.0,0.0,0.0,0.0,0.0,0.0,0.0,0.0,0.0,0.0,0.0,0.0,1.3541,1.3911,1.4499,1.4745,1.52,1.6113,1.6423,1.6751,1.715,1.7469,1.7548,1.7396,1.8006,1.8377,1.8289,1.8798,1.9075,1.8975,1.9142,1.9241,1.9308,1.9384,1.9473,1.9605,1.9539,1.9638,1.9878,1.9846,1.9878,1.9976,1.99,1.9878,1.9813,1.9736,1.9671,1.9475,0.0,0.0,0.0,0.0,1.8176,1.8657,1.868,1.8543,1.83,1.7905,1.7379,1.6833,1.6814,1.6609,1.6428,1.6637,1.657,1.6531,1.6729,1.6712,1.6694,1.6853,1.6779,1.6694,1.6694,1.6797,1.6881,1.6881,1.6861,0.0,1.6985,1.6671,1.6351,1.6276,1.5929,1.5808,1.6187,1.5786,1.5612,1.596,1.5875,1.574,1.5508,1.5406,0.0,0.0,0.0,1.444,1.3802,1.3427,0.0,0.0,0.0,1.1221,1.0837,1.0791,0.0,0.0,1.0009,1.0227,0.0,0.0,0.0,0.0,0.0,0.0,0.0,0.0,0.0,0.0,0.0,0.0,0.0,0.0,0.0,0.0,1.407,1.4378,1.4627,1.4677,1.4902,1.5478,1.6486,1.7106,1.7083,1.8167,1.8741,1.8405,1.8841,1.8975,1.8617,0.0,0.0,0.0,0.0,1.9308,1.9605,1.9605,1.9638,1.9648,1.9878,1.9878,1.9681,1.9944,2.0042,2.0074,1.9966,2.0009,2.0074,1.9966,1.9901,1.9738,1.8634,1.7986,1.7544,1.7143,1.7327,1.7884,1.8596,0.0,0.0,1.8485,1.7974,1.7432,1.7066,1.6878,1.6779,1.6807,1.6881,1.6955,1.6983,1.6983,1.6983,1.7011,1.6948,1.6807,1.6807,1.6937,1.7039,1.7011,1.7172,1.7239,1.7039,1.6439,1.6012,1.6153,1.6087,1.6108,1.6379,1.6239,1.6114,1.6114,0.0,0.0,1.5885,1.5827,1.5571,1.5071,1.5376,1.4972,1.3569,1.2672,1.1965,1.1504,1.1887,1.1982,1.1794,1.2026,1.215,1.2119,1.1731,1.181,0.0,0.0,0.0,0.0,0.0,0.0,0.0,0.0,0.0,0.0,0.0,0.0,0.0,0.0,0.0,1.4061,1.4198,1.4357,1.4538,1.4617,1.5095,1.6218,1.7307,1.8061,1.8248,1.8852,1.9142,1.8975,1.9142,1.9241,1.9142,1.9374,1.9473,1.944,1.9638,1.9704,1.9605,1.9769,1.9835,1.9835,1.9583,0.0,2.0009,1.978,1.9846,2.0118,2.0074,2.0074,2.0118,2.0074,1.9846,1.9432,1.8671,1.8323,1.8221,1.8135,1.8157,1.841,1.9329,1.92,1.868,1.921,1.8555,1.7555,1.7828,1.7306,0.0,1.6899,1.6825,1.674,1.6955,1.6909,1.692,1.7183,1.7117,1.6955,1.6955,1.7117,1.7183,1.7039,1.7172,1.7239,1.7039,1.702,1.6917,1.6697,1.6714,1.6736,1.657,1.642,1.6278,1.6114,1.6056,1.598,1.5914,1.6116,1.6161,1.5877,1.5614,1.527,1.4834,1.4292,1.3756,1.3237,1.3202,1.2913,1.2357,1.2406,1.2382,1.2258,1.1946,1.2382,0.0,0.0,0.0,0.0,0.0,0.0,0.0,0.0,0.0,0.0,0.0,1.3377,1.3854,0.0,1.4567,1.4775,1.4577,1.4398,1.4398,1.4636,1.5116,1.6009,1.7073,1.7916,1.8364,1.9125,1.9473,1.9208,1.9351,1.9374,1.9208,1.944,1.9506,1.9374,1.9704,1.9802,1.9605,1.9802,1.99,1.99,1.978,1.9813,2.0009,2.0009,2.0107,2.0248,2.0248,2.0248,2.0248,2.0151,2.003,1.9831,1.9151,1.8611,1.82,1.82,1.82,1.833,1.9315,1.9336,1.902,1.9436,1.9049,1.8408,1.8265,1.7831,1.7391,1.7367,1.7245,1.7172,1.7245,1.7245,1.7228,1.7172,1.7145,1.7117,1.6937,1.7022,1.7106,1.7011,1.7172,1.7278,1.7172,1.7239,1.7194,1.6846,1.6909,1.6899,1.6627,1.6524,1.6449,1.6278,1.6153,1.6142,1.6239,1.6477,1.6563,1.6467,1.5718,1.5211,1.5016,1.4306,1.3776,1.3402,1.3318,1.3135,1.2808,1.2725,1.2806,1.2984,1.2783,1.3103,0.0,0.0,0.0,0.0,0.0,0.0,0.0,0.0,1.1938,1.2458,1.3512,1.4525,1.5099,1.5272,1.5303,1.5362,1.4883,1.4476,1.4375,1.4602,1.498,1.5537,1.6588,1.7544,1.824,1.9221,1.9705,1.9473,1.9572,1.9539,1.9308,1.9473,1.9506,1.9274,1.9671,1.9835,1.9671,1.9835,1.9933,1.9933,2.0042,2.0074,1.9998,2.0237,2.0378,2.0475,2.0475,2.0443,2.0378,2.0216,2.0248,2.0279,1.9569,1.8838,1.817,1.817,1.809,1.8097,1.9078,1.9416,1.9372,1.9527,1.9493,1.9228,1.8585,1.8249,1.8045,1.7796,1.7711,1.7684,1.7606,1.7645,1.759,1.7179,1.7228,1.7239,1.692,1.6965,1.7095,1.7078,1.72,1.7323,1.7239,1.7278,1.7222,1.6931,1.7004,1.6965,1.6712,1.6684,1.6609,1.6459,1.6296,1.6314,1.6609,1.6751,1.6835,1.6835,1.5833,1.5133,1.4898,1.3949,1.3358,1.3196,1.3148,1.3163,1.3253,1.313,1.3322,1.3848,1.3876,1.4035,1.0863,1.0968,1.12,1.129,1.1451,1.1625,0.0,0.0,1.2605,1.3382,1.4227,1.5003,1.5535,1.5642,1.5556,1.5264,1.4813,1.4517,1.456,1.4462,1.4655,1.5423,1.6588,1.7654,1.8553,1.9147,1.9617,1.9977,1.9911,1.9911,1.9976,1.9747,1.9671,1.9802,1.9868,1.99,1.9868,2.0009,2.0074,2.0074,2.0074,2.0183,2.0346,2.0216,2.0346,2.0669,2.0669,2.0572,2.041,2.0378,2.027,2.0052,1.9269,1.8901,1.8813,1.8813,1.8349,1.7907,1.916,1.9432,1.9354,2.0077,1.9798,1.9216,1.9115,1.8467,1.7751,1.7695,1.7711,1.7728,1.7826,1.7783,1.7656,1.7468,1.7468,1.7385,1.7039,1.7207,1.7423,1.7295,1.7368,1.7385,1.7067,1.7172,1.7278,1.725,1.725,1.7183,1.6983,1.6955,1.6842,1.6599,1.6552,1.6609,1.6751,1.6909,1.6983,1.6983,1.5967,1.5315,1.5148,1.4146,1.3573,1.3549,1.3324,1.338,1.3811,1.3675,1.3852,1.4341,1.4989,1.5352,1.2165,1.2062,0.0,0.0,1.1773,1.1872,1.2116,1.2361,1.2919,1.413,1.4897,1.5552,1.613,1.621,1.6187,0.0,1.5501,1.5158,1.5228,1.4989,1.5132,1.5939,1.6373,1.7093,1.8291,1.9187,1.976,1.9966,1.9813,1.9736,1.9813,1.9583,1.9473,1.9539,1.9769,1.9835,1.9747,1.9976,2.0151,2.027,2.027,2.0378,2.0572,2.0475,2.054,2.0701,2.0701,2.0701,2.069,2.0475,2.0309,2.0104,1.966,1.9178,1.8679,1.8342,1.7974,1.7852,1.8978,1.9226,1.9152,1.9852,1.9796,1.9371,1.898,1.8508,1.8087,1.7983,1.7893,1.7826,1.7881,1.7909,1.7838,1.7451,1.7451,1.7385,1.6965,1.7145,1.7379,1.7306,1.7396,1.7468,1.7329,1.7295,1.7306,1.7306,1.7306,1.7239,1.7039,1.7011,1.6899,1.6627,1.674,1.6825,1.6818,1.7032,1.7088,1.6892,1.6031,1.5403,1.5091,1.4205,1.3769,1.3881,1.3504,1.3547,1.4013,1.3877,1.4108,1.4639,1.5311,1.588,1.3108,0.0,0.0,1.2079,1.195,1.1998,1.2233,1.2436,1.2907,1.4164,1.5005,1.5673,1.6242,1.6514,1.6614,1.6417,1.6049,1.5757,1.5716,1.5504,1.5638,1.6427,1.6436,1.6875,1.8134,1.8998,1.9586,1.9889,1.9671,1.9572,1.9747,1.9407,1.9255,1.9261,1.9639,1.9716,1.9489,1.989,2.0216,2.041,2.041,2.0529,2.0754,2.0754,2.0754,2.0754,2.0619,2.0615,2.0687,2.031,2.0042,1.987,1.9632,1.9246,1.8725,1.8019,1.7783,1.7918,1.8715,1.9037,1.9197,1.9524,1.9624,1.9507,1.8802,1.8442,1.825,1.8132,1.7991,1.7909,1.7936,1.803,1.7975,1.7462,1.7462,1.7451,1.7043,1.7183,1.7418,1.7418,1.7507,1.7579,1.7496,1.7423,1.7323,1.7306,1.7306,1.7239,1.7106,1.7039,1.6927,1.674,1.687,1.6955,1.6864,1.7127,1.7129,1.6738,1.6165,1.562,1.5128,1.453,1.4247,1.4353,1.3863,1.3889,1.4471,1.4261,1.4495,1.5181,1.5739,1.6349,0.0,0.0,1.3361,1.2499,1.2282,1.23,1.2292,1.2359,1.2555,1.304,1.4143,1.5173,1.5641,1.6305,1.6657,1.6186,1.6158,1.6077,1.5753,1.5689,1.5965,1.6703,1.6939,1.7422,0.0,1.8371,1.8794,1.9835,1.9539,1.955,2.0053,1.9473,1.9141,1.92,1.9479,1.9468,1.9221,1.9792,2.0216,2.041,2.041,2.0561,2.0903,2.0903,2.0903,2.088,2.0415,2.0211,2.0177,1.9655,1.9321,1.9104,1.878,1.8957,1.9258,1.8272,1.7991,1.8137,1.8357,1.898,1.96,1.9093,1.9284,1.9549,1.8827,1.8289,1.7947,1.8068,1.7991,1.7936,1.8057,1.8084,1.8002,1.7579,1.759,1.7629,1.7323,1.749,1.7684,1.7684,1.781,1.7826,1.7551,1.7496,1.7451,1.7334,1.7306,1.7306,1.7306,1.7106,1.7011,1.6983,1.7011,1.7011,1.6983,1.7172,1.7071,1.6541,1.6444,1.6084,1.5414,1.5231,1.5102,1.4976,1.4384,1.4512,1.5362,1.4961,1.5216,1.6073,1.656,1.7022,0.0,0.0,1.3084,1.2616,1.2289,1.2166,1.238,1.2195,1.2233,1.3059,1.3734,1.4336,1.4978,1.5612,1.6029,1.6076,1.6333,1.6593,1.6785,1.6954,1.724,1.7845,1.7787,0.0,0.0,0.0,0.0,1.9462,1.9274,1.9341,1.9747,1.944,1.9377,1.9652,1.9759,1.977,1.9684,2.0096,2.0335,2.041,2.054,2.069,2.0903,2.0903,2.0733,2.0415,2.0257,1.9996,1.9655,1.9474,1.9184,1.8849,1.8925,1.8988,1.9,1.8446,1.8455,1.8767,1.864,1.8753,1.8958,1.8918,1.8918,1.8896,1.8412,1.8017,1.781,1.803,1.7947,1.781,1.803,1.8084,1.8057,1.7826,1.7799,1.7772,1.7601,1.77,1.7826,1.7826,1.7881,1.7854,1.7645,1.7562,1.7451,1.7334,1.7306,1.7306,1.7306,1.7239,1.72,1.72,1.72,1.72,1.72,1.7145,1.703,1.6829,1.6428,1.6058,1.5727,1.5395,1.5279,1.5452,1.4748,1.4759,1.5588,1.5251,1.5414,1.6119,1.677,1.7346,0.0,1.3557,1.3219,1.2709,1.2354,1.2087,1.2083,1.1952,1.1984,1.2494,1.3093,1.3817,1.4658,1.5245,1.578,1.6364,1.6672,1.6954,1.7344,1.7701,1.809,1.8553,1.8341,1.8442,0.0,0.0,0.0,1.9285,1.9108,1.9208,1.9671,1.9517,1.9498,1.9716,1.9868,1.9879,1.9716,2.0149,2.0464,2.0593,2.0786,2.0914,2.0999,2.0871,2.0733,2.052,2.0033,1.9693,1.9483,1.9078,1.8748,1.8492,1.8677,1.8924,1.912,1.8446,1.8714,1.9275,1.8646,1.8578,1.8748,1.8594,1.8623,1.8623,1.8205,1.7947,1.781,1.803,1.7947,1.781,1.803,1.8084,1.8057,1.7925,1.7897,1.7881,1.7783,1.7826,1.7897,1.7963,1.7963,1.7909,1.7739,1.7545,1.7423,1.7379,1.7334,1.7306,1.7306,1.7306,1.7334,1.7379,1.7256,1.7211,1.7306,1.706,1.689,1.6746,1.6617,1.632,1.5807,1.5712,1.5733,1.5834,1.5169,1.5243,1.6095,1.5705,1.585,1.6525,1.7048,1.7678,1.4631,1.4236,1.3637,1.2794,1.2436,1.2134,1.148,1.1635,1.1823,1.1481,1.244,1.3645,0.0,0.0,1.5932,1.6898,1.7095,1.7222,1.7376,1.7958,1.8472,0.0,0.0,0.0,0.0,0.0,0.0,1.9252,0.0,1.9108,1.9835,1.9671,1.9533,1.9431,1.9878,1.9899,1.9462,2.0082,2.0593,2.0935,2.1094,2.119,2.119,2.0862,2.0871,2.1066,1.9704,1.9317,1.9574,1.8536,1.8134,1.813,1.8123,1.8782,1.9574,1.8367,1.8759,1.9686,1.836,1.8421,1.8934,1.8178,1.8349,1.8759,1.826,1.8002,1.7936,1.8057,1.7991,1.7936,1.8057,1.8084,1.8057,1.7936,1.7897,1.7897,1.7897,1.7897,1.7936,1.8084,1.8084,1.8002,1.7767,1.749,1.7351,1.7479,1.7407,1.7306,1.7306,1.7306,1.7351,1.7507,1.7207,1.7106,1.7306,1.7015,1.6671,1.6337,1.6901,1.6754,1.5653,1.6135,1.6321,1.609,1.5653,1.585,1.6775,1.6318,1.6503,1.7217,1.744,1.8007,1.3553,1.3194,1.2826,1.2452,1.2274,1.2135,1.1996,1.2154,1.2459,1.2774,1.3409,1.4105,0.0,0.0,0.0,1.6272,1.7189,0.0,1.7454,1.834,0.0,0.0,0.0,1.9031,1.9285,1.8808,0.0,0.0,1.8841,1.8942,1.9308,1.9506,1.9683,1.99,2.0171,2.0279,2.0158,2.0473,2.0786,2.1126,2.0914,2.0946,2.119,2.0862,2.0647,2.0561,1.9708,1.9172,1.8925,1.8497,1.8396,1.8538,1.8495,1.8967,1.9562,1.864,1.8762,1.9312,1.8384,1.8285,1.8542,1.8348,1.8285,1.8283,1.8157,1.8002,1.7909,1.7936,1.7936,1.7909,1.7936,1.803,1.8084,1.8057,1.8057,1.8057,1.8057,1.8057,1.8057,1.8084,1.803,1.7936,1.7854,1.77,1.7573,1.7507,1.7479,1.7396,1.7306,1.7407,1.7507,1.7617,1.7479,1.7412,1.7601,1.7323,1.6977,1.6477,1.6618,1.6368,1.5642,1.5754,1.5793,1.5741,1.5622,1.5833,1.6433,1.6402,1.6803,1.759,1.7936,1.8467,1.3484,1.3081,1.2621,1.2274,1.1965,1.1682,1.1432,1.1791,1.2281,1.264,1.3436,0.0,0.0,0.0,0.0,0.0,0.0,0.0,1.7968,1.8721,1.9208,0.0,1.9075,0.0,1.9208,1.8841,1.8717,0.0,1.8942,1.9042,1.9308,1.9627,1.99,2.0074,2.0313,2.0443,2.054,2.069,2.0914,2.119,2.101,2.101,2.119,2.0914,2.0756,2.0699,1.9844,1.9358,1.9108,1.8598,1.8405,1.8429,1.839,1.8772,1.927,1.8642,1.8764,1.9221,1.8557,1.8383,1.8464,1.8313,1.8193,1.8084,1.8018,1.7991,1.7991,1.7936,1.7936,1.8018,1.81,1.8166,1.8259,1.8302,1.8275,1.822,1.822,1.8166,1.8084,1.8084,1.7991,1.7963,1.81,1.7893,1.77,1.7755,1.7606,1.7479,1.749,1.7434,1.749,1.7684,1.744,1.7357,1.7518,1.7239,1.6911,1.652,1.6487,1.6306,1.5888,1.5891,1.599,1.621,1.621,1.6425,1.6825,1.7031,1.7409,1.7963,1.8356,1.8827,1.3774,1.3351,1.259,1.2158,1.1654,1.1122,1.0522,1.118,1.192,1.201,0.0,1.4519,1.5334,0.0,1.584,1.7422,0.0,1.7536,1.8629,1.8942,1.9075,1.9075,1.8875,1.8808,1.9042,1.8875,1.8841,1.9065,1.9142,1.9308,1.9572,1.9889,2.0118,2.0205,2.0335,2.0508,2.0765,2.085,2.0999,2.119,2.119,2.119,2.119,2.0999,2.0999,2.1144,2.006,1.9606,1.9638,1.877,1.8348,1.823,1.8189,1.8504,1.8884,1.8526,1.8729,1.9116,1.8658,1.8533,1.8533,1.822,1.8111,1.8084,1.7963,1.8002,1.8084,1.7936,1.7991,1.8139,1.8313,1.8394,1.8422,1.856,1.8491,1.8394,1.8394,1.8232,1.8084,1.8084,1.8018,1.8045,1.8302,1.8014,1.7822,1.803,1.7755,1.7562,1.7684,1.749,1.7445,1.77,1.7357,1.7162,1.7351,1.7034,1.6703,1.6486,1.6479,1.6365,1.6129,1.6238,1.65,1.6901,1.6954,1.7147,1.7517,1.7793,1.8088,1.8387,1.8732,1.9158,1.3155,1.2723,1.2151,1.1778,1.1404,1.1093,1.0845,1.1665,0.0,0.0,0.0,1.5383,1.5904,1.6291,0.0,1.7522,0.0,0.0,0.0,0.0,1.8841,0.0,0.0,0.0,0.0,0.0,0.0,0.0,1.9374,1.9539,1.9605,1.9802,2.0194,2.0743,2.0529,2.0625,2.1106,2.0967,2.0999,2.119,2.119,2.119,2.119,2.0999,2.0999,2.1132,1.9958,0.0,1.9638,1.8869,1.8698,1.8897,1.8736,1.8834,1.9013,1.8553,1.848,1.8511,1.8162,1.8209,1.8422,1.8367,1.8232,1.8084,1.8084,1.8084,1.8084,1.7936,1.7991,1.8111,1.8139,1.8286,1.8422,1.856,1.8491,1.8394,1.8394,1.8232,1.8084,1.8084,1.8232,1.8286,1.8166,1.8084,1.7986,1.7794,1.7711,1.7673,1.7711,1.7656,1.7684,1.7854,1.77,1.7645,1.7772,1.7216,1.6702,1.6276,1.637,1.6196,1.5628,1.6047,1.6356,1.6511,1.6707,1.707,1.7583,1.7909,1.8348,1.8881,1.9184,1.946,1.3549,1.2912,1.2182,1.1716,1.1216,1.0836,1.0877,0.0,0.0,0.0,0.0,1.5609,1.6026,0.0,0.0,0.0,0.0,0.0,0.0,0.0,0.0,0.0,0.0,0.0,0.0,0.0,0.0,0.0,1.9407,1.9539,1.9736,2.0009,2.0399,2.0871,2.0743,2.085,2.119,2.1094,2.1094,2.119,2.119,2.1169,2.1031,2.1063,2.0957,2.0764,2.0054,1.9668,1.9448,1.8862,1.8658,1.872,1.8515,1.8669,1.8957,1.8553,1.8557,1.8751,1.8695,1.8616,1.8538,1.8752,1.8494,1.8084,1.803,1.8057,1.8084,1.803,1.8139,1.8275,1.8356,1.8464,1.861,1.8587,1.8491,1.8394,1.8394,1.8232,1.8139,1.8232,1.834,1.8422,1.8449,1.834,1.8247,1.8193,1.7963,1.7838,1.7904,1.7838,1.781,1.781,1.7728,1.77,1.7689,1.741,1.7064,1.6725,1.6639,1.6579,1.6482,1.6658,1.6933,1.7273,1.7417,1.7649,1.7958,1.8309,1.8721,1.921,1.9486,1.9558,1.4038,1.3189,1.2297,1.1654,1.1059,1.0681,1.0807,1.1495,0.0,0.0,1.4502,1.547,1.5964,0.0,0.0,0.0,0.0,0.0,0.0,0.0,0.0,0.0,0.0,0.0,0.0,0.0,0.0,0.0,1.9517,1.9605,1.9933,2.0237,2.0561,2.0935,2.0935,2.0999,2.1253,2.1221,2.119,2.119,2.119,2.1126,2.0967,2.1158,2.1003,2.0588,2.0216,1.983,1.938,1.8803,1.8518,1.8422,1.8275,1.8532,1.8963,1.8709,1.8802,1.9094,1.9392,1.9085,1.8627,1.9032,1.8746,1.8193,1.8045,1.8084,1.8166,1.8166,1.8259,1.8367,1.8518,1.8625,1.8691,1.8572,1.8546,1.8522,1.8364,1.8205,1.815,1.8313,1.8394,1.8503,1.8637,1.8556,1.8476,1.8452,1.8209,1.8018,1.8002,1.7947,1.7826,1.7673,1.77,1.77,1.7645,1.7517,1.7375,1.7258,1.7036,1.7062,1.7355,1.7391,1.7603,1.8045,1.8111,1.8236,1.8441,1.8732,1.9018,1.9326,1.9571,1.9447,1.4038,1.3135,1.212,1.1272,1.0926,1.0737,1.0661,0.0,0.0,0.0,1.4252,1.4927,1.5691,1.5657,1.5857,0.0,0.0,0.0,0.0,0.0,0.0,0.0,0.0,0.0,0.0,0.0,0.0,0.0,1.9878,2.0031,2.0074,2.0291,2.0625,2.1158,2.0999,2.1051,2.1388,2.1253,2.119,2.119,2.119,2.119,2.119,2.1305,2.1365,2.1272,2.0319,1.9878,0.0,1.8802,1.8464,1.8587,1.856,1.885,1.9252,1.9312,1.9156,1.9011,1.9634,1.9226,1.8503,1.8965,1.8861,1.8533,1.8383,1.8367,1.8367,1.8367,1.8259,1.8166,1.8367,1.8422,1.8422,1.8422,1.8732,1.8874,1.8269,1.8111,1.8123,1.8111,1.8371,1.8479,1.822,1.8503,1.8572,1.8034,1.8193,1.8205,1.7794,1.7826,1.7788,1.7551,1.7744,1.7936,1.803,1.7539,1.7255,1.7381,1.7355,1.7314,1.722,1.7721,1.7984,1.7936,1.8143,1.8494,1.8934,1.9093,1.9124,1.9033,1.9194,1.8964,1.4491,1.3519,1.2398,1.156,1.1185,1.1087,1.1521,0.0,0.0,1.3994,1.4442,1.4784,1.5355,1.5461,1.5583,0.0,0.0,0.0,0.0,0.0,0.0,0.0,0.0,0.0,0.0,0.0,0.0,0.0,1.9648,1.9835,1.9955,2.0237,2.0669,2.119,2.0999,2.1051,2.1388,2.0942,2.0679,2.0605,2.0803,2.0741,2.0438,2.0823,2.0753,2.0266,1.9692,1.929,0.0,1.8585,1.8464,1.8587,1.8518,1.895,1.9639,1.9347,1.9529,2.0046,2.038,1.99,1.9219,1.9726,1.9408,1.8801,1.8598,1.8464,1.8422,1.8491,1.841,1.8313,1.8394,1.8313,1.8275,1.8464,1.8507,1.849,1.8418,1.8329,1.834,1.8503,1.8572,1.8587,1.853,1.853,1.8476,1.8247,1.822,1.8111,1.7854,1.7881,1.7854,1.7744,1.7854,1.7854,1.7744,1.7684,1.7625,1.7571,1.7571,1.7556,1.7501,1.7736,1.7865,1.7897,1.817,1.8575,1.9107,1.8858,1.8907,1.9216,1.8801,1.8346,1.4986,1.4028,1.2964,1.2284,1.1877,1.183,0.0,0.0,1.2791,1.4308,1.4533,1.4605,1.5034,1.5213,1.5284,0.0,0.0,0.0,0.0,0.0,0.0,0.0,0.0,0.0,0.0,0.0,0.0,1.9274,1.9539,1.9769,1.9955,2.0172,2.0561,2.1094,2.1126,2.1253,2.1506,2.0869,2.0461,2.0339,2.0396,2.0274,2.0051,2.0372,2.0259,1.9819,1.9367,1.8953,0.0,1.8453,1.841,1.8441,1.841,1.893,1.9703,1.9505,1.989,2.0542,2.1077,2.0659,1.9896,2.0265,1.9861,1.9164,1.8741,1.8572,1.853,1.8587,1.8596,1.8616,1.8561,1.8566,1.8591,1.8666,1.8494,1.835,1.8433,1.8383,1.8367,1.8556,1.8572,1.8545,1.8583,1.853,1.841,1.8275,1.8166,1.803,1.7826,1.7772,1.7772,1.7717,1.7799,1.7799,1.7689,1.7826,1.7854,1.7783,1.7755,1.7728,1.7711,1.7794,1.7893,1.8007,1.8333,1.8691,1.9033,1.8731,1.866,1.8805,1.8244,1.7809,1.5427,1.4606,1.3817,1.3477,1.3124,1.3021,0.0,0.0,1.3301,1.4391,1.4353,1.4281,1.4792,1.4908,1.4908,1.4908,1.507,0.0,0.0,0.0,0.0,0.0,0.0,0.0,0.0,0.0,0.0,1.9318,1.9671,0.0,2.0107,2.0096,2.0367,2.0903,2.1434,2.1698,2.1698,2.1158,2.0827,2.0687,2.0019,1.9953,2.0389,2.0181,2.0198,2.0343,1.9674,1.9049,0.0,1.8439,1.829,1.812,1.8329,1.8764,1.939,1.9976,2.0077,2.0111,2.1672,2.1398,2.0384,2.0384,2.0129,1.9645,1.8848,1.8706,1.8771,1.864,1.8842,1.906,1.8942,1.9275,1.9539,1.9011,1.8885,1.8747,1.8226,1.8084,1.8084,1.8123,1.8259,1.834,1.8139,1.8383,1.8452,1.7991,1.803,1.7947,1.7551,1.7496,1.7451,1.7334,1.7545,1.7822,1.8057,1.7963,1.7897,1.7897,1.7897,1.7826,1.7711,1.7947,1.8166,1.8278,1.8747,1.8865,1.8596,1.8871,1.8444,1.7423,1.7463,1.7401,1.5334,1.4782,1.4131,1.37,1.3534,1.3561,1.3942,0.0,1.3793,1.4462,1.473,1.4788,1.4581,1.4985,1.5284,1.5147,1.5284,0.0,0.0,0.0,0.0,0.0,0.0,0.0,0.0,0.0,0.0,1.9473,1.9857,2.0118,2.0302,2.0603,2.0828,2.0903,2.1063,2.1233,2.1371,2.0943,2.0626,2.0358,1.9996,1.9775,1.9711,1.9639,1.9517,1.9362,1.9001,1.8627,1.8253,1.8848,1.8962,1.8788,1.9001,1.9329,1.9692,1.9608,2.0012,2.0669,2.1253,2.1278,2.1032,2.0672,2.0209,1.9684,1.8952,1.8771,1.8815,1.8896,1.8854,1.8771,1.8766,1.8851,1.8839,1.845,1.8285,1.8267,1.8406,1.8275,1.8139,1.8286,1.8259,1.8139,1.7991,1.7975,1.792,1.7783,1.7893,1.7854,1.7551,1.759,1.7601,1.7451,1.7601,1.7656,1.7573,1.7783,1.7772,1.7518,1.7645,1.77,1.7562,1.7728,1.7804,1.7742,1.8083,1.8232,1.8202,1.7901,1.7422,1.6732,1.6785,1.6879,0.0,1.5206,1.4858,1.4586,1.4365,0.0,0.0,0.0,0.0,1.4522,1.4751,1.4801,1.4464,1.4787,1.5069,1.4995,1.5133,0.0,0.0,0.0,0.0,0.0,0.0,0.0,0.0,0.0,1.9506,1.9758,1.9977,2.0237,2.0561,2.0807,2.0955,2.0999,2.1138,2.1221,2.1285,2.0881,2.0565,2.0266,1.9759,1.9603,1.9708,1.9419,1.936,1.9436,1.9259,1.8953,0.0,1.937,1.9556,1.9418,1.9539,1.9678,1.9795,1.9871,2.0235,2.0771,2.1337,2.1613,2.162,2.102,2.0394,1.9733,1.9167,1.8975,1.9038,1.9217,1.9143,1.897,1.8905,1.8758,1.8589,1.8367,1.8194,1.8127,1.829,1.8275,1.8205,1.815,1.8111,1.803,1.7865,1.781,1.7755,1.7711,1.7728,1.7689,1.7523,1.7562,1.759,1.7507,1.7617,1.7629,1.7473,1.7728,1.7799,1.7534,1.7673,1.7755,1.7661,1.7783,1.7908,1.8052,1.8235,1.8259,1.8155,1.7436,1.6882,1.6513,1.6556,1.6663,0.0,1.5797,1.5841,1.5841,1.5541,1.5311,0.0,0.0,0.0,0.0,0.0,0.0,0.0,1.4501,1.4581,1.4784,1.4932,0.0,0.0,0.0,0.0,0.0,0.0,0.0,0.0,1.9527,1.9791,2.0107,2.0161,2.0399,2.0892,2.0818,2.0926,2.1233,2.1529,2.158,2.1388,2.0977,2.0653,2.0446,1.95,1.9423,2.0159,1.9448,1.9553,0.0,2.0135,1.9849,1.9526,1.9989,2.01,1.9942,1.9977,1.983,1.974,2.0547,2.0653,2.0568,2.1716,2.2137,2.2053,2.1397,2.0582,1.9791,1.9422,1.931,1.9359,1.9516,1.9543,1.9461,1.9194,1.8886,1.8651,1.8674,1.8495,1.8286,1.7991,1.8166,1.8232,1.7794,1.7893,1.8002,1.7711,1.7783,1.7826,1.7684,1.759,1.7523,1.7496,1.7523,1.7523,1.7523,1.7617,1.7711,1.7711,1.7826,1.7881,1.7881,1.7897,1.7909,1.7897,1.8057,1.8387,1.8939,1.8943,1.8755,1.838,1.7399,1.6854,1.6739,1.6701,1.6697,1.5832,0.0,1.6035,1.6035,1.5956,1.5885,0.0,0.0,0.0,0.0,0.0,0.0,0.0,0.0,0.0,0.0,0.0,0.0,0.0,0.0,0.0,0.0,0.0,0.0,0.0,2.0095,2.015,2.0529,2.0807,2.0999,2.1126,2.134,2.1509,2.1561,2.1506,2.14,2.1253,2.1401,2.1374,2.1151,2.0677,2.0274,1.9975,1.9613,1.9265,1.8925,1.9574,1.9608,1.9281,2.057,2.0783,2.0319,2.0561,2.0491,2.0224,2.0163,2.0141,2.0293,2.1074,2.1463,2.1542,2.1218,2.0422,1.9587,1.9541,1.9447,1.9394,1.9431,1.9198,1.884,1.8533,1.8385,1.8293,1.8248,1.8137,1.8073,1.8247,1.8127,1.7936,1.7728,1.7838,1.7826,1.7462,1.7601,1.7684,1.7434,1.7645,1.7744,1.7523,1.7689,1.7772,1.7645,1.7783,1.7854,1.7854,1.7783,1.7755,1.7755,1.7947,1.8002,1.7897,1.8166,1.8357,1.8398,1.84,1.8335,1.8251,1.7604,1.7276,1.7219,1.6757,1.6599,1.6208,1.6501,1.6679,1.6394,1.6501,1.6608,1.6358,0.0,0.0,0.0,0.0,0.0,0.0,0.0,0.0,0.0,0.0,0.0,0.0,0.0,0.0,0.0,0.0,0.0,0.0,2.0139,2.0259,2.0669,2.0862,2.1042,2.119,2.136,2.1466,2.1466,2.1348,2.1348,2.1434,2.1517,2.1537,2.1514,2.1195,2.0806,2.0345,2.0091,1.9717,1.93,1.9989,2.0255,2.0222,2.1158,2.1429,2.1233,2.1263,2.111,2.0838,2.0743,2.0657,2.0647,2.127,2.1539,2.1565,2.1121,2.0664,2.0181,1.9677,1.9523,1.9515,1.9424,1.9075,1.8632,1.837,1.8093,1.7895,1.7906,1.7865,1.7865,1.8111,1.8018,1.7854,1.7739,1.7865,1.7893,1.7545,1.7645,1.7728,1.759,1.77,1.7772,1.7689,1.7826,1.7881,1.781,1.781,1.7854,1.7991,1.7755,1.7645,1.7772,1.792,1.7991,1.7897,1.8139,1.8362,1.8566,1.8697,1.861,1.8298,1.7844,1.7438,1.7065,1.6737,1.6599,1.6561,1.7234,1.7542,1.68,1.6927,1.7117,1.6603,0.0,0.0,0.0,0.0,0.0,0.0,0.0,0.0,0.0,0.0,0.0,0.0,0.0,0.0,0.0,0.0,0.0,2.0085,2.0151,2.0346,2.0701,2.0666,2.0737,2.098,2.1043,2.1075,2.1118,2.1187,2.1423,2.1761,2.1549,2.1526,2.1714,2.1461,2.1211,2.0924,2.0593,2.0384,2.0326,2.0689,2.1039,2.138,2.1673,2.1886,2.2061,2.1792,2.1552,2.1391,2.1565,2.1357,2.1091,2.159,2.1775,2.1685,2.1195,2.1067,2.0891,1.975,1.9545,1.9636,1.9264,1.8875,1.8507,1.8281,1.7828,1.7468,1.7656,1.7711,1.7728,1.7909,1.7963,1.7936,1.7822,1.8002,1.8084,1.7783,1.7881,1.7991,1.7881,1.7838,1.7838,1.7881,1.7897,1.7909,1.7936,1.781,1.781,1.8057,1.7744,1.7661,1.7854,1.7909,1.7936,1.7991,1.8127,1.8491,1.8987,1.9309,1.9149,1.8483,1.8118,1.7555,1.6802,1.6713,1.6599,1.6096,1.7387,1.8302,1.6998,1.6801,1.6793,0.0,0.0,0.0,0.0,0.0,0.0,0.0,0.0,0.0,0.0,0.0,0.0,0.0,0.0,0.0,0.0,0.0,2.0617,2.0896,2.0719,2.0669,2.0871,2.0506,2.0226,2.0101,2.0257,2.0484,2.0784,2.1148,2.16,2.2135,2.1824,2.1718,2.1862,2.1978,2.1733,2.1146,2.0763,2.0483,2.0384,2.0567,2.0836,2.12,2.1846,2.1894,2.1526,2.1655,2.1514,2.1212,2.1262,2.1024,2.0736,2.1084,2.1138,2.1106,2.1451,2.1187,2.0511,1.9666,1.9545,1.9461,1.8425,1.8034,1.7864,1.7538,1.7281,1.7179,1.759,1.7711,1.7767,1.803,1.8193,1.8313,1.8313,1.841,1.8371,1.7936,1.8209,1.8317,1.781,1.8041,1.8193,1.7925,1.7897,1.7936,1.8057,1.7936,1.7881,1.7936,1.787,1.7799,1.7728,1.7947,1.8139,1.8313,1.8679,1.8907,1.8987,1.9491,1.9472,1.8919,1.839,1.7859,1.7295,1.6769,1.6522,1.5992,1.7178,1.8091,1.7485,1.7779,1.7969,0.0,0.0,0.0,0.0,0.0,0.0,0.0,0.0,0.0,0.0,0.0,0.0,0.0,0.0,0.0,0.0,0.0,2.0291,2.042,2.0348,2.0441,2.088,2.0481,2.031,2.0603,2.0175,2.0281,2.1039,2.1047,2.1362,2.203,2.1874,2.1968,2.234,2.2432,2.2153,2.1558,2.121,2.0787,2.0355,2.0623,2.0896,2.1158,2.1784,2.1894,2.1694,2.1769,2.1655,2.1466,2.1348,2.126,2.1229,2.1365,2.1415,2.1434,2.1306,2.0873,2.0209,1.9206,1.8855,1.8602,1.7791,1.7665,1.7719,1.7561,1.7272,1.7095,1.7507,1.7396,1.7368,1.7975,1.8068,1.8123,1.8437,1.8491,1.8464,1.829,1.8398,1.841,1.8123,1.8259,1.8313,1.8045,1.7936,1.7963,1.8084,1.792,1.7854,1.8002,1.7799,1.7689,1.7711,1.7893,1.8018,1.8139,1.856,1.8854,1.8987,1.91,1.8971,1.8556,1.7969,1.744,1.7011,1.6626,1.65,1.5978,1.6923,1.7751,1.7752,0.0,1.8753,1.8032,0.0,0.0,0.0,0.0,0.0,0.0,0.0,0.0,0.0,0.0,0.0,0.0,0.0,0.0,1.9474,1.9758,1.9961,1.9972,1.9972,2.0211,2.073,2.0239,2.0118,2.0576,1.9918,1.9985,2.1005,2.0845,2.1115,2.1894,2.1968,2.2185,2.2586,2.2586,2.2378,2.1974,2.1524,2.1075,2.0683,2.0818,2.103,2.1275,2.1634,2.1788,2.1788,2.1769,2.1675,2.16,2.1272,2.1369,2.1612,2.1495,2.1529,2.1509,2.1047,2.0563,1.9935,1.8912,1.8364,1.8009,1.758,1.7607,1.7741,1.7622,1.7291,1.705,1.7357,1.72,1.7172,1.7893,1.7975,1.8057,1.8545,1.8545,1.853,1.8587,1.8518,1.8422,1.8313,1.8313,1.8259,1.803,1.7881,1.7881,1.8057,1.7838,1.7822,1.8084,1.7799,1.7645,1.7728,1.7826,1.7897,1.7936,1.8371,1.8635,1.8766,1.8615,1.8326,1.7909,1.7426,1.7007,1.6654,1.6491,1.6534,1.599,1.6848,1.7575,1.7318,0.0,0.0,1.835,0.0,0.0,0.0,0.0,0.0,0.0,0.0,0.0,0.0,0.0,0.0,0.0,0.0,1.9815,1.905,1.9638,2.0104,2.0158,2.0188,2.0262,2.0427,1.9533,1.8937,1.8787,1.8903,1.9281,1.9977,2.0592,2.1195,2.1894,2.2092,2.2197,2.2259,2.2259,2.2204,2.2144,2.1427,2.1359,2.1751,2.1178,2.1181,2.1639,2.1482,2.1431,2.142,2.1285,2.1305,2.133,2.0723,2.0869,2.1361,2.0908,2.0733,2.071,2.0857,2.0451,1.9796,1.9086,1.8669,1.8382,1.7962,1.7937,1.7872,1.7442,1.7065,1.6892,1.7239,1.7368,1.7523,1.7854,1.8236,1.8587,1.8744,1.8771,1.8744,1.8614,1.8587,1.8452,1.8018,1.8057,1.8041,1.7767,1.7617,1.7634,1.7881,1.7783,1.7822,1.8084,1.7963,1.7881,1.787,1.7881,1.7963,1.8084,1.8437,1.8416,1.8084,1.8293,1.7983,1.7083,1.7171,1.695,1.6522,1.65,1.6629,1.5867,1.7,1.8089,1.7731,0.0,0.0,0.0,0.0,0.0,0.0,0.0,0.0,0.0,0.0,0.0,0.0,0.0,0.0,0.0,2.0296,2.0034,1.9295,1.9381,1.9459,1.9383,1.9453,1.9678,2.0049,1.95,1.925,1.9518,1.9011,1.931,2.0618,2.0505,2.0877,2.1894,2.1968,2.203,2.203,2.2123,2.2197,2.2185,2.1704,2.1572,2.1737,2.1389,2.1319,2.1506,2.1431,2.1388,2.1388,2.1336,2.1108,2.0823,2.1098,2.1218,2.1205,2.1284,2.1169,2.09,2.0434,1.9773,1.9023,1.8362,1.8176,1.8173,1.7988,1.8129,1.8189,1.7691,1.7474,1.7381,1.7153,1.7162,1.7301,1.77,1.8057,1.8383,1.8625,1.8679,1.8625,1.8491,1.8464,1.8356,1.8084,1.8057,1.8057,1.7947,1.77,1.7606,1.787,1.7854,1.7838,1.7849,1.7947,1.7991,1.7909,1.7991,1.8002,1.7991,1.7813,1.7824,1.7999,1.7273,1.6931,1.6999,1.662,1.646,1.65,1.6457,1.6556,1.6009,1.6901,1.781,0.0,0.0,0.0,0.0,0.0,0.0,0.0,0.0,0.0,0.0,0.0,0.0,0.0,0.0,0.0,2.068,2.0492,2.0065,1.9371,1.9223,1.9111,1.8993,1.9078,1.937,1.9848,1.9434,1.9337,1.9792,1.9112,1.94,2.0902,2.0505,2.0795,2.1894,2.1874,2.1843,2.1843,2.1894,2.1987,2.2092,2.1824,2.1667,2.1592,2.14,2.1368,2.1388,2.1305,2.1273,2.1313,2.1214,2.1051,2.09,2.1131,2.1273,2.1365,2.1381,2.1266,2.0979,2.0279,1.958,1.8885,1.83,1.8216,1.8291,1.8354,1.8457,1.8451,1.8046,1.7822,1.7585,1.7119,1.7039,1.719,1.7518,1.781,1.81,1.8344,1.8398,1.8398,1.8275,1.8247,1.8166,1.7947,1.792,1.7865,1.7772,1.7606,1.7606,1.787,1.7854,1.7826,1.7822,1.7947,1.803,1.7963,1.8057,1.7988,1.7763,1.7433,1.7321,1.7426,1.6536,1.6255,1.6605,1.6249,1.6197,1.6479,1.6491,1.6599,1.64,1.6478,0.0,0.0,0.0,0.0,0.0,0.0,0.0,0.0,0.0,0.0,0.0,0.0,0.0,0.0,0.0,0.0,2.0917,2.0429,1.9854,1.9186,1.9212,1.9223,1.9106,1.9207,1.9431,1.9761,1.9176,1.8919,1.9186,1.9093,1.9507,2.0567,2.0603,2.1032,2.1894,2.1761,2.1698,2.1698,2.1506,2.1588,2.1894,2.1761,2.1592,2.14,2.1253,2.1273,2.1356,2.1019,2.1019,2.1164,2.0769,2.1131,2.172,2.057,2.0872,2.1791,2.0965,2.0778,2.0827,2.0492,2.0037,1.9536,1.9198,1.8999,1.894,1.9153,1.8957,1.8668,1.8455,1.7959,1.7419,1.709,1.7145,1.7306,1.7306,1.7617,1.7897,1.7897,1.8002,1.8057,1.7936,1.7897,1.7826,1.7551,1.7496,1.7385,1.7039,1.729,1.7606,1.787,1.7783,1.7822,1.8084,1.7991,1.7963,1.8084,1.8111,1.7882,1.7419,1.7396,1.7025,1.6221,1.6197,1.6055,1.5792,1.6069,1.6275,1.6392,1.6611,1.6803,1.6541,1.7348,0.0,0.0,0.0,0.0,0.0,0.0,0.0,0.0,0.0,0.0,0.0,0.0,0.0,1.9808,1.9808,2.0053,2.0781,2.0199,1.9585,1.9275,1.9073,1.8915,1.89,1.9012,1.9174,1.9361,1.9269,1.9263,1.933,1.967,2.0113,2.0705,2.1017,2.1338,2.1749,2.1812,2.1781,2.1698,2.1987,2.1987,2.1749,2.158,2.1549,2.1592,2.1328,2.1273,2.1365,2.0768,2.0444,2.0319,2.0672,2.0668,2.0581,2.1307,2.1468,2.1353,2.1393,2.1124,2.0717,2.0473,1.9916,1.931,1.9209,1.9213,1.9264,1.9323,1.9289,1.9093,1.8714,1.8048,1.7389,1.697,1.6892,1.7015,1.72,1.7507,1.7783,1.7881,1.7925,1.7881,1.7661,1.7634,1.7579,1.7496,1.7496,1.7423,1.7239,1.7451,1.7645,1.7634,1.7744,1.7854,1.7936,1.8002,1.8111,1.8313,1.779,1.7395,1.7273,1.6908,1.6495,1.6079,1.573,1.5701,1.5935,1.6122,1.6275,1.6392,1.6611,1.6718,1.6982,0.0,0.0,0.0,0.0,0.0,0.0,0.0,0.0,0.0,0.0,0.0,0.0,0.0,0.0,1.9925,1.9733,1.98,2.0653,2.0065,1.9531,1.9503,1.9134,1.8919,1.9037,1.9158,1.9303,1.9436,1.95,1.9565,1.9565,2.0085,2.0588,2.0986,2.1367,2.1675,2.1968,2.1937,2.1937,2.1968,2.2142,2.2111,2.1968,2.18,2.1737,2.1761,2.1498,2.1411,2.1353,2.0761,2.0496,2.0509,2.0565,2.061,2.0775,2.1504,2.1679,2.1539,2.1643,2.1424,2.1032,2.071,2.0226,1.9773,1.9618,1.961,1.9638,1.9442,1.9277,1.8984,1.8474,1.7779,1.7148,1.6786,1.686,1.7013,1.7037,1.7437,1.7795,1.7817,1.7826,1.7811,1.779,1.7584,1.749,1.766,1.7461,1.7301,1.7306,1.7379,1.7468,1.7562,1.7661,1.7772,1.7881,1.7963,1.8111,1.8259,1.7641,1.7262,1.7194,1.6502,1.6011,1.5742,1.5497,1.5664,1.6227,1.643,1.6663,1.6963,1.7049,1.7091,0.0,0.0,0.0,0.0,0.0,0.0,0.0,0.0,0.0,0.0,0.0,0.0,0.0,0.0,0.0,2.0289,2.0085,1.9956,2.0494,1.9985,1.961,1.9736,1.9329,1.9146,1.942,1.9565,1.9682,1.9824,1.9824,1.9824,1.9837,2.0427,2.0939,2.1297,2.1679,2.2042,2.242,2.2111,2.2111,2.2389,2.2142,2.2173,2.2451,2.2278,2.2092,2.1937,2.1761,2.158,2.1385,2.0896,2.0923,2.1225,2.0457,2.083,2.1744,2.1348,2.1624,2.2135,2.1824,2.1698,2.1592,2.1094,2.0818,2.0625,2.0193,2.0053,1.9943,1.9464,1.9004,1.8493,1.7951,1.7345,1.6843,1.6701,1.6956,1.7164,1.6956,1.737,1.7781,1.7718,1.769,1.779,1.8048,1.7652,1.7446,1.7821,1.7387,1.7078,1.7239,1.7106,1.719,1.7629,1.7562,1.7606,1.7854,1.7881,1.7963,1.8084,1.763,1.7329,1.722,1.63,1.5692,1.5429,1.5587,1.6005,1.6702,1.6957,1.7331,1.7822,1.7779,1.7728,0.0,0.0,0.0,0.0,0.0,0.0,0.0,0.0,0.0,0.0,0.0,0.0,0.0,0.0,1.9736,2.0327,1.9883,1.967,2.022,1.9706,1.934,1.946,1.9377,1.9408,1.9682,1.9849,1.9978,2.0093,2.0118,2.008,1.9952,2.0927,2.1411,2.1216,2.2078,2.2463,2.2389,2.2328,2.2328,2.2389,2.2684,2.2805,2.2787,2.2371,2.2197,2.2135,2.1824,2.1686,2.1585,2.0804,2.0531,2.06,2.0684,2.0833,2.1049,2.1836,2.1997,2.1824,2.2042,2.1831,2.1443,2.1221,2.0946,2.0602,1.9978,1.9667,1.9442,1.8982,1.8512,1.813,1.8003,1.7767,1.7517,1.7214,1.6945,1.6916,1.7528,1.7424,1.7281,1.764,1.7704,1.7611,1.7301,1.7359,1.737,1.7095,1.703,1.6983,1.6931,1.7099,1.7267,1.739,1.7451,1.7562,1.7739,1.7826,1.7897,1.7936,1.7508,1.7247,1.7194,1.6784,1.6541,1.6474,1.6716,1.7027,1.7388,1.7543,1.7735,1.7953,1.816,1.7994,0.0,0.0,0.0,0.0,0.0,0.0,0.0,0.0,0.0,0.0,0.0,0.0,0.0,0.0,1.9785,2.0053,1.9698,1.9492,1.9775,1.9578,1.9447,1.9591,1.9642,1.981,2.0105,2.0195,2.0271,2.0347,2.0385,2.045,2.0513,2.1396,2.1914,2.1955,2.2551,2.2848,2.2744,2.2604,2.2543,2.2555,2.2927,2.3108,2.3133,2.2739,2.2494,2.2402,2.2061,2.1874,2.1721,2.0896,2.058,2.0651,2.0749,2.096,2.1268,2.1911,2.2111,2.203,2.2061,2.1831,2.1517,2.1253,2.0808,2.0254,1.9841,1.941,1.8971,1.8501,1.8196,1.7999,1.7988,1.7669,1.7437,1.7959,1.7837,1.7668,1.7858,1.7867,1.793,1.8115,1.7966,1.781,1.7817,1.7722,1.7426,1.6796,1.6825,1.6853,1.6722,1.6902,1.7099,1.7145,1.7323,1.7462,1.759,1.7728,1.781,1.781,1.7337,1.7194,1.7523,1.7306,1.7066,1.6811,1.707,1.7434,1.7883,1.8105,1.8351,1.866,1.8358,1.8039,0.0,0.0,0.0,0.0,0.0,0.0,0.0,0.0,0.0,0.0,0.0,0.0,0.0,1.9785,1.9734,1.9862,1.9668,1.9499,1.9473,1.9539,1.9668,1.9862,1.9978,2.0169,2.0486,2.0537,2.0562,2.0537,2.0728,2.0925,2.1145,2.1869,2.2463,2.2827,2.3056,2.3168,2.3138,2.2878,2.2769,2.283,2.306,2.3241,2.342,2.309,2.2848,2.2708,2.2309,2.2061,2.1827,2.1093,2.0841,2.0953,2.0896,2.1206,2.1714,2.1956,2.2185,2.2328,2.2111,2.1906,2.1698,2.1348,2.0745,2.0048,1.9716,1.9229,1.8668,1.8119,1.802,1.8086,1.8024,1.7676,1.7584,1.8689,1.8913,1.8722,1.8207,1.8332,1.852,1.8492,1.8067,1.7893,1.8461,1.8027,1.738,1.669,1.6694,1.6733,1.6581,1.6666,1.6807,1.6927,1.7088,1.7267,1.7368,1.7562,1.7645,1.759,1.7243,1.7279,1.7804,1.7763,1.7484,1.695,1.7344,1.7818,1.8338,1.8507,1.8817,1.9196,1.8351,1.7879,0.0,0.0,0.0,0.0,0.0,0.0,0.0,0.0,0.0,0.0,0.0,0.0,0.0,2.0118,2.0131,2.0144,2.0003,1.9888,1.9759,1.9656,1.9746,2.0105,2.0156,2.0271,2.0573,2.0737,2.08,2.0687,2.1119,2.1407,2.1446,2.2463,2.3033,2.2969,2.335,2.348,2.3373,2.303,2.3,2.3313,2.333,2.342,2.3569,2.3228,2.2987,2.2848,2.2204,2.1925,2.1862,2.1353,2.1132,2.119,2.1459,2.1616,2.1776,2.2359,2.2432,2.2247,2.2494,2.2278,2.1831,2.1494,2.1227,2.08,1.9629,1.9205,1.894,1.7985,1.8058,1.8382,1.8209,1.8725,1.9282,1.9166,1.9329,1.9392,1.9009,1.8191,1.7609,1.8017,1.7482,1.7138,1.7824,1.7269,1.6729,1.6609,1.6637,1.6581,1.6431,1.6524,1.6627,1.6655,1.6779,1.6864,1.6892,1.7284,1.7412,1.7095,1.7413,1.7578,1.7551,1.8015,1.8057,1.7508,1.8436,1.8909,1.8879,1.869,1.8571,1.8532,1.7995,1.7457,0.0,0.0,0.0,0.0,0.0,0.0,0.0,0.0,0.0,0.0,0.0,0.0,2.047,2.0287,2.0147,2.0346,1.9976,1.9749,2.0004,2.0105,2.0258,2.051,2.0598,2.0736,2.0921,2.0947,2.1068,2.1361,2.1586,2.2022,2.2696,2.3211,2.3565,2.371,2.381,2.376,2.3509,2.33,2.33,2.3509,2.333,2.336,2.3599,2.3258,2.3078,2.2987,2.2543,2.2173,2.187,2.1663,2.138,2.1094,2.1541,2.1812,2.2018,2.2309,2.2445,2.2463,2.2432,2.2123,2.1749,2.1494,2.1046,2.0517,1.9931,1.9494,1.9101,1.8664,1.8697,1.8865,1.8766,1.8939,1.9107,1.8953,1.8867,1.8754,1.8531,1.8186,1.7851,1.7664,1.731,1.7093,1.7223,1.6945,1.6694,1.6599,1.6524,1.642,1.6239,1.622,1.6278,1.6477,1.6545,1.6676,1.6881,1.7095,1.7151,1.7011,1.7312,1.749,1.7496,1.7909,1.8089,1.8042,1.872,1.8789,1.8222,1.8397,1.835,1.8044,1.7435,1.7011,0.0,0.0,0.0,0.0,0.0,0.0,0.0,0.0,0.0,0.0,0.0,0.0,2.0407,2.0162,1.9911,2.0139,1.9718,1.9544,2.0088,2.0351,2.0588,2.0906,2.1153,2.1267,2.1242,2.124,2.1395,2.1821,2.1993,2.2551,2.363,2.3843,2.4081,2.4379,2.4232,2.3982,2.3599,2.3509,2.3509,2.3599,2.3348,2.3348,2.3539,2.3198,2.3017,2.3,2.2708,2.2328,2.1889,2.1819,2.1506,2.1169,2.1592,2.1949,2.2228,2.229,2.2463,2.2586,2.2414,2.2104,2.1792,2.1537,2.105,2.0542,2.0312,1.9905,1.9467,1.9343,1.928,1.925,1.922,1.8999,1.8747,1.8717,1.8475,1.8158,1.788,1.7895,1.7833,1.7252,1.7066,1.695,1.6814,1.6733,1.6676,1.6552,1.642,1.6249,1.6066,1.5933,1.5972,1.623,1.6259,1.6381,1.6655,1.6842,1.6899,1.6786,1.7088,1.7323,1.7385,1.7705,1.7961,1.8063,1.8608,1.849,1.7689,1.8043,1.7958,1.747,1.6759,1.6449,0.0,0.0,0.0,0.0,0.0,0.0,0.0,0.0,0.0,0.0,0.0,1.9938,1.986,1.9557,1.9318,1.9286,1.9237,1.9423,2.0009,2.0123,2.0428,2.1269,2.1776,2.1872,2.1429,2.1676,2.1795,2.1706,2.2247,2.2909,2.3657,2.4245,2.4551,2.4578,2.4392,2.4073,2.3599,2.3599,2.3599,2.3599,2.3586,2.3509,2.3403,2.306,2.286,2.2708,2.2371,2.2092,2.1894,2.1557,2.1506,2.1667,2.1843,2.203,2.2259,2.2555,2.2555,2.2451,2.2616,2.2445,2.2135,2.1792,2.1655,2.1475,2.0653,2.037,2.0244,1.9785,1.9547,1.9346,1.922,1.9089,1.8928,1.8747,1.8536,1.8205,1.7499,1.7088,1.6845,1.6678,1.6374,1.6288,1.6733,1.6602,1.6413,1.6402,1.6239,1.6066,1.5943,1.5798,1.5769,1.5914,1.5923,1.5884,1.5788,1.642,1.6609,1.6171,1.6864,1.7211,1.7039,1.7595,1.7682,1.7179,1.8115,1.8407,1.7977,1.775,1.7315,1.6654,1.6047,1.5751,0.0,0.0,0.0,0.0,0.0,0.0,0.0,0.0,0.0,0.0,0.0,1.8451,1.8604,1.931,1.9946,2.0125,2.022,2.0357,2.052,2.098,2.1289,2.1148,2.2,2.2523,2.2254,2.2637,2.3013,2.3232,2.3352,2.3727,2.4386,2.4614,2.4635,2.4421,2.445,2.4203,2.3628,2.3599,2.3569,2.345,2.345,2.339,2.3198,2.3,2.2757,2.2494,2.2278,2.208,2.1901,2.1994,2.1913,2.1737,2.1999,2.2185,2.2328,2.2371,2.2463,2.2586,2.2432,2.2216,2.1968,2.1761,2.1561,2.1325,2.1014,2.0976,2.1004,2.0738,2.0599,2.0346,1.9449,1.9323,1.9218,1.8333,1.7677,1.7222,1.7134,1.6827,1.6597,1.6554,1.6435,1.6496,1.697,1.7052,1.7022,1.6941,1.6739,1.6477,1.6088,1.582,1.5593,1.5478,1.5439,1.5488,1.5633,1.5894,1.597,1.5797,1.6314,1.6694,1.674,1.6912,1.7022,1.704,1.7553,1.7541,1.6966,1.7133,1.6812,1.609,1.5821,1.5715,0.0,0.0,0.0,0.0,0.0,0.0,0.0,0.0,0.0,0.0,0.0,1.776,1.8048,1.9322,2.0258,1.9998,2.0426,2.0787,2.0765,2.1445,2.1828,2.1503,2.2566,2.308,2.2467,2.3173,2.37,2.373,2.3824,2.416,2.478,2.4806,2.4664,2.4321,2.4376,2.4187,2.37,2.3628,2.3569,2.3463,2.3593,2.3578,2.3396,2.3443,2.3281,2.2912,2.271,2.2404,2.1994,2.2161,2.208,2.1894,2.2123,2.2247,2.2328,2.2278,2.2371,2.2494,2.234,2.2123,2.1874,2.173,2.1498,2.1253,2.1126,2.1146,2.121,2.1126,2.0905,2.0506,1.9654,1.9243,1.8846,1.7906,1.7246,1.6838,1.6915,1.6678,1.6487,1.6698,1.6636,1.6695,1.7119,1.719,1.7149,1.7138,1.6971,1.6615,1.6001,1.5729,1.5455,1.5067,1.5029,1.5108,1.5274,1.5449,1.5526,1.5526,1.6028,1.6381,1.6581,1.6626,1.6765,1.6992,1.7234,1.7,1.6275,1.6746,1.6563,1.5703,1.5659,1.5659,0.0,0.0,0.0,0.0,0.0,0.0,0.0,0.0,0.0,0.0,0.0,1.8055,1.826,1.9528,2.0089,1.8734,1.9729,2.0677,2.0726,2.1377,2.1972,2.2317,2.3437,2.3561,2.2021,2.3233,2.3825,2.3124,2.3608,2.4186,2.4751,2.4778,2.4635,2.4321,2.4157,2.4037,2.3891,2.3688,2.3611,2.3624,2.4004,2.4129,2.4042,2.4434,2.4365,2.3976,2.3639,2.303,2.2234,2.2023,2.2054,2.2234,2.2221,2.2221,2.2209,2.234,2.2309,2.2216,2.2359,2.2173,2.1906,2.1761,2.158,2.1325,2.1019,2.0903,2.0903,2.0903,2.0331,1.9743,1.9865,1.8849,1.7776,1.7571,1.7423,1.7235,1.6918,1.6588,1.6516,1.7099,1.6938,1.6821,1.7146,1.6926,1.6799,1.6979,1.6862,1.6454,1.5742,1.5605,1.5374,1.4771,1.4686,1.4677,1.4686,1.5118,1.5381,1.5381,1.5941,1.6381,1.657,1.6832,1.6961,1.6961,1.7162,1.6846,1.596,1.6625,1.6455,1.5491,1.5491,1.5491,1.4744,0.0,0.0,0.0,0.0,0.0,1.6695,1.7375,1.7837,0.0,0.0,1.7819,1.8158,1.8885,1.9273,1.8791,2.071,2.2075,2.1571,2.2134,2.2414,2.1867,2.2927,2.3603,2.3409,2.3989,2.4436,0.0,2.4483,2.4475,2.4635,2.4419,2.4361,2.452,2.4141,2.3861,2.3688,2.3522,2.3606,2.3889,2.4009,2.4173,2.4414,2.4402,2.4157,2.3758,2.3592,2.335,2.3096,2.2767,2.2839,2.3084,2.2542,2.2356,2.2352,2.2299,2.2216,2.2216,2.2359,2.2278,2.2092,2.1906,2.1632,2.1356,2.1178,2.1178,2.1178,2.085,2.0653,2.0419,1.9715,1.898,1.8382,1.807,1.7979,1.7912,1.778,1.7577,1.7446,1.7372,1.7272,1.7295,1.7512,1.747,1.7436,1.7494,1.7379,1.7111,1.6594,1.6038,1.5494,1.5035,1.4511,1.4279,1.4526,1.4586,1.4764,1.5088,1.5449,1.5826,1.6228,1.621,1.6252,1.6351,1.6498,1.6168,1.5351,1.5967,1.5866,1.5074,1.5176,1.5221,0.0,0.0,0.0,0.0,0.0,0.0,1.6302,1.6982,1.7519,0.0,1.7594,1.7909,1.8371,1.8776,1.9086,1.9196,2.0975,2.2002,2.1026,2.1823,2.2286,2.1713,2.2833,2.3664,2.3706,2.4253,2.464,2.4805,2.4728,2.4677,2.4677,2.4447,2.4361,2.4463,2.4171,2.3848,2.3599,2.345,2.3508,2.3745,2.4148,2.4455,2.4683,2.5066,2.4997,2.4602,2.4203,2.3972,2.3857,2.32,2.3001,2.3138,2.2589,2.2277,2.2098,2.2024,2.198,2.2011,2.2092,2.1987,2.1831,2.1675,2.1411,2.1178,2.1042,2.1031,2.1063,2.085,2.0786,2.07,2.0171,1.9564,1.9006,1.8744,1.8807,1.872,1.8219,1.8342,1.8422,1.7876,1.7713,1.7691,1.7813,1.775,1.774,1.7818,1.7632,1.7252,1.6534,1.6007,1.5405,1.4624,1.4212,1.4109,1.4387,1.4417,1.4586,1.5059,1.5284,1.5594,1.6009,1.5946,1.5952,1.6015,1.6154,1.5828,1.506,1.5698,1.5584,1.4789,1.4811,1.4811,0.0,0.0,0.0,0.0,0.0,0.0,1.6302,1.6843,1.7238,1.7553,1.7769,1.8048,1.8532,1.8739,1.9017,1.9539,2.0571,2.0954,1.9934,2.1126,2.2019,2.1785,2.2956,2.3639,2.3339,2.4077,2.4513,2.4326,2.4623,2.4778,2.4778,2.462,2.4463,2.4321,2.4115,2.3907,2.3599,2.345,2.3436,2.3576,2.4406,2.4883,2.5034,2.5979,2.6223,2.5851,2.5107,2.4659,2.4379,2.3371,2.2891,2.276,2.2462,2.2104,2.1749,2.171,2.1702,2.1717,2.1749,2.1631,2.1449,2.1334,2.114,2.0903,2.0765,2.0733,2.0733,2.0807,2.0754,2.0705,2.0808,2.029,1.9712,1.9547,1.9703,1.9637,1.8527,1.892,1.928,1.8494,1.8178,1.8008,1.7974,1.7818,1.775,1.7906,1.7666,1.7075,1.6035,1.5758,1.5237,1.4061,1.3946,1.404,1.4297,1.4428,1.4686,1.5176,1.5332,1.5536,1.5885,1.5885,1.5885,1.5885,1.5987,1.5679,1.4971,1.5502,1.5312,1.4511,1.4373,1.4326,0.0,0.0,0.0,0.0,0.0,0.0,1.6304,1.6607,1.6841,0.0,1.7174,1.7337,1.7465,1.742,1.7563,1.831,1.8948,1.9751,2.0895,2.1985,2.2503,2.2154,2.2552,2.2964,2.3273,2.361,2.4004,2.4434,2.4568,2.4649,2.4649,2.4361,2.4245,2.4292,2.391,2.3658,2.3599,2.3318,2.362,2.4525,2.472,2.5285,2.6151,2.6055,2.5898,2.5641,2.5063,2.4531,2.4071,2.3537,2.3339,2.3259,2.2352,2.2034,2.2069,2.1796,2.1774,2.192,2.2168,2.2059,2.1799,2.1897,2.1588,2.1094,2.0903,2.0871,2.0807,2.0561,2.0475,2.0433,2.0293,2.0522,2.0697,2.0236,2.0437,2.0523,1.9647,1.9497,1.9349,1.8799,1.8438,1.8134,1.7818,1.7623,1.7529,1.7608,1.7382,1.7067,1.6514,1.5923,1.5314,1.475,1.4035,1.3842,1.4419,1.433,1.4567,1.5303,1.5381,1.5536,1.5885,1.5885,1.5885,1.5885,1.5654,1.5308,1.4829,1.4316,1.4037,1.3962,1.381,1.381,0.0,0.0,0.0,1.6203,0.0,0.0,0.0,1.6202,1.6684,1.6902,1.6833,0.0,0.0,0.0,1.7003,1.7602,1.8267,1.9027,1.9962,2.1237,2.184,2.1209,2.1956,2.2705,2.3259,2.3523,2.3978,2.46,2.4617,2.4591,2.4591,2.4287,2.4128,2.4203,2.3806,2.3599,2.3599,2.3258,2.3565,2.4501,2.4618,2.5082,2.5915,2.5879,2.5681,2.532,2.4834,2.422,2.3449,2.299,2.2654,2.2439,2.2047,2.1799,2.171,2.1666,2.1537,2.1441,2.1681,2.1481,2.1203,2.144,2.1317,2.1105,2.1307,2.1251,2.1093,2.094,2.083,2.0831,2.1237,2.1454,2.1424,2.093,2.0984,2.0892,1.9795,1.9603,1.9452,1.8765,1.8506,1.8269,1.7896,1.7725,1.7522,1.7229,1.7182,1.6943,1.6239,1.5935,1.5512,1.4729,1.4285,1.4114,1.4228,1.4359,1.4656,1.5167,1.5332,1.5478,1.5633,1.5662,1.5701,1.5798,1.5339,1.5027,1.4898,1.4198,1.376,1.3597,1.3539,1.3491,0.0,0.0,0.0,0.0,0.0,1.6293,0.0,0.0,0.0,0.0,0.0,0.0,0.0,0.0,0.0,0.0,0.0,0.0,0.0,1.9947,0.0,2.0183,2.1361,2.2405,2.2849,2.3167,2.3699,2.4551,2.4389,2.4315,2.4578,2.4287,2.4083,2.4083,2.3909,2.3731,2.3599,2.3533,2.3739,2.4311,2.4598,2.4983,2.5462,2.577,2.563,2.511,2.4721,2.401,2.3117,2.2591,2.208,2.1649,2.1686,2.1518,2.1277,2.1435,2.1314,2.1069,2.1097,2.0886,2.0688,2.0905,2.0992,2.1102,2.1647,2.1652,2.1442,2.1342,2.123,2.1284,2.2079,2.2054,2.1718,2.1341,2.1271,2.0982,1.9672,1.9601,1.9555,1.8731,1.8516,1.8381,1.8008,1.7794,1.7508,1.7016,1.7073,1.6838,1.5941,1.6002,1.5731,1.4736,1.471,1.4626,1.4282,1.4568,1.4859,1.5039,1.5225,1.5332,1.5332,1.5332,1.54,1.5595,1.5098,1.4845,1.4851,1.4424,1.3939,1.3456,1.3488,1.3405,0.0,0.0,0.0,0.0,1.7451,0.0,0.0,0.0,1.6539,1.7,0.0,0.0,0.0,0.0,0.0,0.0,0.0,0.0,1.7684,1.8828,1.9826,2.0152,2.0975,2.1485,2.1445,2.1632,2.2366,2.389,2.3274,2.3366,2.4536,2.4287,2.4083,2.4083,2.4403,2.4266,2.3599,2.4429,2.4849,2.4732,2.5259,2.5677,2.6079,2.5955,2.5687,2.5263,2.4898,2.4319,2.3583,2.3189,2.2822,2.2454,2.1409,2.1232,2.1527,2.113,2.1273,2.1651,2.1229,2.126,2.1428,2.1309,2.132,2.1494,2.1722,2.1711,2.1487,2.1082,2.1018,2.1096,2.1093,2.1149,2.1158,2.1075,2.1037,2.0804,1.9948,1.9761,1.9589,1.89,1.8617,1.8337,1.7808,1.7623,1.7442,1.7214,1.7044,1.6743,1.6303,1.6266,1.6044,1.5445,1.54,1.5333,1.5158,1.509,1.5095,1.5176,1.5088,1.5059,1.5059,1.5059,1.5117,1.5244,1.507,1.4773,1.4374,1.4559,1.4312,1.3675,1.3782,1.3711,0.0,0.0,0.0,0.0,0.0,0.0,1.7424,0.0,1.6473,0.0,0.0,0.0,0.0,0.0,0.0,0.0,1.692,0.0,0.0,0.0,1.8701,0.0,0.0,0.0,2.099,2.114,2.1833,2.3326,2.311,2.3317,2.4261,2.4083,2.3979,2.3979,2.4331,2.4376,2.4085,2.464,2.5036,2.5272,2.5311,2.5552,2.6015,2.5688,2.5366,2.5006,2.4728,2.4222,2.3566,2.3155,2.2719,2.2286,2.1666,2.1531,2.1652,2.1475,2.1408,2.1394,2.1277,2.1303,2.1461,2.1649,2.1991,2.2346,2.2155,2.2043,2.1974,2.1767,2.1563,2.1444,2.1671,2.1563,2.1354,2.1223,2.1101,2.0787,2.008,1.9861,1.9589,1.8933,1.865,1.8337,1.7774,1.7588,1.7316,1.6767,1.689,1.6924,1.6526,1.6775,1.6766,1.6182,1.6145,1.5979,1.5573,1.5324,1.5213,1.5258,1.5112,1.5,1.5,1.5,1.5039,1.5098,1.5039,1.4885,1.4715,1.4811,1.4591,1.4059,1.4036,1.3883,1.9966,0.0,0.0,0.0,0.0,0.0,0.0,0.0,0.0,0.0,0.0,0.0,0.0,0.0,0.0,0.0,0.0,1.6917,0.0,0.0,0.0,0.0,0.0,0.0,0.0,2.0358,2.0981,2.2406,2.246,2.2877,2.3865,2.3848,2.3789,2.3772,2.4333,2.4553,2.4351,2.4929,2.5372,2.5598,2.5484,2.5564,2.5875,2.5535,2.5212,2.485,2.4677,2.4255,2.3752,2.3282,2.2981,2.2766,2.2435,2.2306,2.2284,2.194,2.1694,2.1505,2.14,2.1423,2.1571,2.2096,2.2644,2.301,2.2681,2.2582,2.255,2.2418,2.2087,2.1865,2.2226,2.1819,2.1346,2.1395,2.1009,2.052,2.0101,1.991,1.9678,1.9178,1.8956,1.8671,1.8201,1.781,1.7322,1.6659,1.6955,1.7176,1.6876,1.7271,1.7372,1.691,1.6839,1.6603,1.6053,1.5725,1.5544,1.5423,1.5268,1.5221,1.5251,1.5117,1.5021,1.5091,1.4909,1.4832,1.4862,1.4852,1.4663,1.4306,1.4278,1.4105,0.0,0.0,0.0,2.0267,0.0,0.0,0.0,0.0,1.7954,0.0,0.0,0.0,0.0,0.0,0.0,0.0,0.0,0.0,0.0,0.0,0.0,0.0,0.0,0.0,0.0,1.8825,1.9467,0.0,2.0884,2.1566,2.3348,2.3539,2.3539,2.3433,2.4599,2.4918,2.4209,2.564,2.6113,2.5598,2.5971,2.6072,2.5898,2.5688,2.5418,2.5099,2.4873,2.4683,2.4407,2.3815,2.3951,2.4465,2.3858,2.376,2.3736,2.2322,2.2125,2.2446,2.1804,2.177,2.2081,2.2742,2.3102,2.3298,2.3276,2.3276,2.3176,2.2736,2.2424,2.2302,2.2313,2.1463,2.0803,2.1538,2.0684,1.9802,2.0032,1.9945,1.9811,1.9847,1.9703,1.9495,1.9284,1.8369,1.7569,1.7217,1.7348,1.7495,1.7486,1.7613,1.7647,1.7486,1.7486,1.7281,1.6788,1.6452,1.6101,1.5698,1.5693,1.5748,1.5876,1.5379,1.5176,1.53,1.4638,1.4396,1.4515,1.4517,1.4449,1.4309,1.4569,1.4464,2.227,2.274,2.2952,2.1906,0.0,0.0,0.0,0.0,0.0,0.0,0.0,0.0,0.0,0.0,0.0,0.0,0.0,0.0,0.0,0.0,0.0,0.0,0.0,0.0,0.0,0.0,0.0,0.0,2.1216,0.0,2.3511,2.3533,2.3733,2.4293,2.483,2.5173,2.5331,2.6076,2.6317,2.6018,2.5998,2.591,2.5688,2.5488,2.5347,2.5241,2.5147,2.4981,2.4646,2.42,2.4266,2.4608,2.3963,2.4034,2.4371,2.3073,2.2728,2.2802,2.2466,2.2472,2.2672,2.2761,2.2927,2.3113,2.3113,2.3113,2.308,2.2915,2.2579,2.2277,2.2147,2.1563,2.1156,2.1443,2.1058,2.0617,2.0563,2.052,2.0366,2.0108,2.0021,1.9913,1.9749,1.9284,1.8767,1.8266,1.849,1.8547,1.8136,1.8368,1.8311,1.772,1.7564,1.737,1.7082,1.6594,1.6138,1.5716,1.5689,1.5721,1.5753,1.5592,1.5519,1.5551,1.521,1.4948,1.4778,1.4624,1.4532,1.451,1.4594,1.4408,2.3535,2.3959,2.4131,2.2971,2.2744,0.0,2.1114,0.0,2.0021,0.0,0.0,0.0,0.0,0.0,0.0,0.0,0.0,0.0,0.0,1.6259,0.0,0.0,0.0,0.0,0.0,0.0,0.0,0.0,0.0,0.0,0.0,2.33,2.3679,2.4491,2.4755,2.5128,2.5624,2.604,2.6258,2.6213,2.5992,2.584,2.5688,2.5418,2.5276,2.5206,2.5147,2.4945,2.4693,2.4469,2.4565,2.4804,2.4443,2.47,2.5025,2.3717,2.3154,2.2964,2.2852,2.2889,2.2964,2.2665,2.2815,2.3075,2.3001,2.3038,2.3113,2.3113,2.2794,2.2407,2.2276,2.1786,2.1417,2.1692,2.1413,2.1118,2.1246,2.1213,2.1093,2.0869,2.0745,2.0608,2.0477,2.0229,1.9824,1.9134,1.9168,1.9189,1.8854,1.8846,1.864,1.807,1.7718,1.7392,1.7107,1.6661,1.6337,1.6138,1.6054,1.6044,1.612,1.5917,1.5844,1.5909,1.5609,1.5313,1.5061,1.4912,1.4785,1.4721,1.4721,1.4549]}]]